Date StartTime U_cm/s V_cm/s W_cm/s Ustd_cm/s Vstd_cm/s Wstd_cm/s Uvar_(cm/s)^2 Vvar_(cm/s)^2 Wvar_(cm/s)^2 KE_(m/s)^2 TurbulentKE_(m/s)^2 HorizWindSpeed_cm/s FrictionSpeec_cm/s DragCoef SpeedOfSound_m/s SonicTemperature_C Pressure_mb 
04/05/2014  00:00:00       31.430       61.481      -15.117       12.952       18.145        8.017      167.765      329.246       64.279        0.278        0.028       69.049        5.965        0.007      334.494        4.504      858.992
04/05/2014  00:01:00        7.480       48.606      -10.782       22.665       18.689       15.321      513.725      349.285      234.745        0.182        0.055       49.178       11.280        0.053      334.752        4.932      859.003
04/05/2014  00:02:00       -7.020       15.744       -1.842       12.907       15.030       10.865      166.585      225.892      118.042        0.041        0.026       17.238        4.604        0.071      334.679        4.810      859.012
04/05/2014  00:03:00      -28.596      -26.520       -5.578       19.879       12.745        9.359      395.187      162.432       87.592        0.110        0.032       39.001        8.631        0.049      334.720        4.880      859.014
04/05/2014  00:04:00      -24.000      -31.333        2.239       26.483       17.025       14.352      701.341      289.847      205.970        0.138        0.060       39.469       15.800        0.160      334.589        4.660      859.018
04/05/2014  00:05:00      -30.978      -27.507        0.154       24.007       18.133       12.233      576.341      328.801      149.635        0.139        0.053       41.428        8.264        0.040      334.715        4.871      859.014
04/05/2014  00:06:00       19.229       16.164        0.941       15.267       11.788       10.971      233.091      138.956      120.370        0.056        0.025       25.121        4.919        0.038      334.667        4.790      859.010
04/05/2014  00:07:00       35.768       19.486       14.654       15.606       19.004       19.056      243.534      361.167      363.119        0.142        0.048       40.731       13.478        0.109      334.622        4.716      859.010
04/05/2014  00:08:00        5.679       -5.217        0.596       24.513       10.739       11.944      600.873      115.329      142.671        0.046        0.043        7.712        6.474        0.705      334.754        4.936      859.008
04/05/2014  00:09:00      -24.636        0.896       12.006       16.669       11.157       10.172      277.865      124.478      103.468        0.063        0.025       24.652        8.523        0.120      334.734        4.902      859.017
04/05/2014  00:10:00       -9.888        5.404       10.695       19.303       24.773       15.958      372.608      613.686      254.655        0.074        0.062       11.269       18.513        2.699      334.587        4.660      859.031
04/05/2014  00:11:00       18.682       41.143       24.339       18.860       17.775       16.046      355.693      315.966      257.473        0.178        0.046       45.186       14.784        0.107      334.548        4.592      859.032
04/05/2014  00:12:00       -0.530        9.461       29.350       11.678       11.983        9.863      136.384      143.584       97.275        0.066        0.019        9.476        6.041        0.406      334.534        4.569      859.033
04/05/2014  00:13:00       -9.137      -20.863       21.626       14.724       24.031       13.896      216.810      577.513      193.096        0.099        0.049       22.776        8.879        0.152      334.634        4.734      859.039
04/05/2014  00:14:00       -5.567        0.345        4.297       10.080       17.364       11.447      101.605      301.500      131.026        0.029        0.027        5.578        7.581        1.847      334.669        4.794      859.050
04/05/2014  00:15:00      -18.977        8.314       -3.999       11.146        8.356        8.905      124.244       69.827       79.302        0.036        0.014       20.718        6.097        0.087      334.644        4.751      859.062
04/05/2014  00:16:00        1.626       12.017        5.855       10.140        6.136        6.549      102.821       37.649       42.883        0.018        0.009       12.126        5.205        0.184      334.633        4.736      859.067
04/05/2014  00:17:00       13.800        4.123       -5.012       17.806        9.610       10.717      317.057       92.343      114.860        0.038        0.026       14.403        9.669        0.451      334.682        4.817      859.064
04/05/2014  00:18:00      -14.612       15.150       17.258       13.865       13.022       13.803      192.233      169.581      190.536        0.065        0.028       21.048       12.307        0.342      334.661        4.781      859.061
04/05/2014  00:19:00      -29.906       -2.951       15.701       20.769       15.514       10.894      431.370      240.694      118.689        0.097        0.040       30.051       13.097        0.190      334.622        4.717      859.067
04/05/2014  00:20:00      -32.251      -14.858        4.485       31.748       29.465       15.350     1007.942      868.186      235.626        0.170        0.106       35.509        9.711        0.075      334.657        4.774      859.074
04/05/2014  00:21:00      -74.905      -52.670        2.275       35.817       30.933       17.782     1282.844      956.820      316.196        0.547        0.128       91.569       19.817        0.047      334.652        4.766      859.074
04/05/2014  00:22:00      -73.205      -46.646        6.683       31.847       23.241       21.861     1014.220      540.163      477.925        0.481        0.102       86.804       15.856        0.033      334.613        4.702      859.078
04/05/2014  00:23:00      -81.042      -69.841        1.748       50.249       33.400       25.668     2524.953     1115.527      658.864        0.787        0.215      106.984       28.636        0.072      334.613        4.701      859.081
04/05/2014  00:24:00      -81.188      -55.220       -0.442       41.653       30.160       19.584     1735.003      909.638      383.513        0.633        0.151       98.187       17.536        0.032      334.619        4.711      859.084
04/05/2014  00:25:00      -37.308      -34.387        7.703       24.511       28.966       20.386      600.797      839.017      415.598        0.224        0.093       50.738       15.626        0.095      334.693        4.834      859.085
04/05/2014  00:26:00      -52.489      -82.001       -1.427       28.001       38.248       14.501      784.045     1462.899      210.285        0.597        0.123       97.362       16.888        0.030      334.730        4.895      859.094
04/05/2014  00:27:00      -18.587      -24.586       15.447       45.950       23.700       21.688     2111.421      561.681      470.358        0.217        0.157       30.822       23.075        0.560      334.641        4.749      859.098
04/05/2014  00:28:00      -34.886      -32.671        7.985       41.389       20.574       17.405     1713.070      423.272      302.943        0.239        0.122       47.795       21.024        0.193      334.602        4.683      859.102
04/05/2014  00:29:00      -20.317      -18.746        7.836       23.729       22.477       17.312      563.064      505.202      299.689        0.110        0.068       27.644       15.261        0.305      334.525        4.555      859.107
04/05/2014  00:30:00      -27.395       12.146       -4.633        8.422       10.691        6.316       70.933      114.289       39.887        0.057        0.011       29.967        5.922        0.039      334.377        4.312      859.108
04/05/2014  00:31:00       19.897       24.294       13.303       16.829       19.543       13.216      283.230      381.909      174.659        0.100        0.042       31.402       14.909        0.225      334.367        4.295      859.094
04/05/2014  00:32:00       63.185       34.790       -7.039       22.380       21.956       12.961      500.883      482.044      167.977        0.320        0.058       72.130       12.743        0.031      334.291        4.168      859.097
04/05/2014  00:33:00       53.819       24.758        5.365       23.828       14.640       14.576      567.764      214.315      212.460        0.227        0.050       59.241       10.549        0.032      334.223        4.053      859.103
04/05/2014  00:34:00       32.425       15.899        6.438       25.630       11.768       13.547      656.883      138.489      183.517        0.116        0.049       36.113        8.984        0.062      334.306        4.192      859.117
04/05/2014  00:35:00       39.232       21.009        3.687       18.605       11.178       12.063      346.164      124.943      145.528        0.131        0.031       44.504        5.063        0.013      334.313        4.205      859.129
04/05/2014  00:36:00       92.870       57.474       21.378       27.371       27.312       23.953      749.151      745.950      573.751        0.723        0.103      109.216       16.208        0.022      334.427        4.392      859.127
04/05/2014  00:37:00       87.559       52.490       45.031       28.768       30.707       28.898      827.584      942.898      835.105        0.753        0.130      102.088       19.364        0.036      334.368        4.294      859.132
04/05/2014  00:38:00       73.906       39.406       28.414       33.020       32.119       29.322     1090.351     1031.641      859.788        0.540        0.149       83.755       18.883        0.051      334.260        4.116      859.147
04/05/2014  00:39:00       52.212       30.697       17.159       27.766       26.470       18.712      770.952      700.686      350.156        0.289        0.091       60.567       14.159        0.055      334.242        4.085      859.140
04/05/2014  00:40:00       44.785       31.040       20.369       32.528       28.737       18.284     1058.076      825.808      334.307        0.280        0.111       54.490       10.814        0.039      334.184        3.988      859.135
04/05/2014  00:41:00       60.094       50.611        2.644       30.551       21.319       20.198      933.371      454.490      407.951        0.399        0.090       78.567       15.388        0.038      334.126        3.892      859.143
04/05/2014  00:42:00       40.118       58.252        2.483       29.579       31.061       19.330      874.891      964.782      373.649        0.361        0.111       70.730       11.879        0.028      334.079        3.814      859.153
04/05/2014  00:43:00       60.922       62.906       -1.805       32.956       33.014       26.191     1086.082     1089.921      685.952        0.527        0.143       87.571       20.169        0.053      334.013        3.707      859.155
04/05/2014  00:44:00       41.179       43.491        1.257       25.947       33.437       25.562      673.271     1118.063      653.435        0.302        0.122       59.893       16.822        0.079      333.999        3.683      859.161
04/05/2014  00:45:00       62.865       39.407       13.292       37.040       28.379       14.702     1371.998      805.394      216.137        0.404        0.120       74.195        8.182        0.012      333.988        3.666      859.172
04/05/2014  00:46:00      108.927       58.556        1.479       24.930       23.480       24.138      621.526      551.300      582.660        0.853        0.088      123.668        9.408        0.006      333.998        3.680      859.167
04/05/2014  00:47:00       46.582       57.905       53.612       41.866       36.729       32.675     1752.755     1349.007     1067.635        0.628        0.208       74.316       25.692        0.120      334.065        3.791      859.170
04/05/2014  00:48:00       98.353       84.513       56.830       58.938       38.569       46.798     3473.709     1487.560     2190.072        1.360        0.358      129.675       43.712        0.114      334.155        3.939      859.169
04/05/2014  00:49:00       12.799       83.212       95.488       38.798       53.834       40.708     1505.281     2898.074     1657.145        1.113        0.303       84.190       41.245        0.240      334.271        4.133      859.171
04/05/2014  00:50:00      -12.012       12.653       55.557       18.082       29.473       21.439      326.966      868.654      459.612        0.252        0.083       17.446       18.457        1.119      334.342        4.252      859.187
04/05/2014  00:51:00       -3.049      -10.337       16.313       13.477       19.130       16.879      181.641      365.964      284.902        0.061        0.042       10.778       12.144        1.270      334.243        4.089      859.196
04/05/2014  00:52:00      -55.507      -23.234       -5.203       33.658       16.963       10.304     1132.831      287.755      106.168        0.259        0.076       60.174       11.893        0.039      334.060        3.784      859.211
04/05/2014  00:53:00      -96.299      -29.650       -0.866       30.568       30.431       18.024      934.390      926.039      324.861        0.617        0.109      100.760       16.729        0.028      334.054        3.774      859.222
04/05/2014  00:54:00     -115.267      -12.945       -5.770       41.910       30.592       19.383     1756.457      935.895      375.697        0.828        0.153      115.992       18.674        0.026      334.158        3.946      859.228
04/05/2014  00:55:00      -74.553       -6.258       -8.123       26.316       17.612       15.456      692.510      310.193      238.895        0.345        0.062       74.815       16.322        0.048      334.259        4.115      859.221
04/05/2014  00:56:00      -71.363        2.795       -5.424       12.155       11.345       10.909      147.751      128.719      119.007        0.276        0.020       71.418        7.072        0.010      334.415        4.372      859.205
04/05/2014  00:57:00      -74.062      -12.320       -4.712       21.903       23.794       12.979      479.734      566.149      168.462        0.344        0.061       75.080       13.780        0.034      334.512        4.534      859.205
04/05/2014  00:58:00      -64.755      -44.940       10.203       47.919       32.183       24.957     2296.227     1035.715      622.863        0.514        0.198       78.821       26.855        0.116      334.500        4.516      859.209
04/05/2014  00:59:00      -40.467      -40.084       -0.027       27.415       27.106       13.310      751.608      734.753      177.144        0.245        0.083       56.959       10.766        0.036      334.684        4.819      859.214
04/05/2014  01:00:00      -49.016       -0.261        8.436       33.241       30.524       19.898     1104.979      931.695      395.914        0.245        0.122       49.016       16.371        0.112      334.587        4.660      859.220
04/05/2014  01:01:00      -12.080       28.046       10.165       13.089       22.243       15.034      171.318      494.734      226.028        0.096        0.045       30.537       12.043        0.156      334.490        4.495      859.238
04/05/2014  01:02:00       12.746      100.413      -11.643       15.049       32.425       14.972      226.461     1051.387      224.158        0.594        0.075      101.218       13.453        0.018      334.237        4.078      859.248
04/05/2014  01:03:00       40.837       48.732        1.464       32.548       30.268       23.333     1059.385      916.181      544.410        0.328        0.126       63.580       20.511        0.104      334.242        4.085      859.259
04/05/2014  01:04:00       98.539       61.712        1.521       36.000       29.216       22.299     1295.988      853.550      497.251        0.808        0.132      116.269       14.944        0.017      334.343        4.254      859.271
04/05/2014  01:05:00       73.841       28.106        0.046       39.698       22.878       18.952     1575.923      523.412      359.184        0.435        0.123       79.009       11.595        0.022      334.373        4.304      859.285
04/05/2014  01:06:00       97.409       55.980       15.902       32.744       22.379       23.201     1072.186      500.801      538.292        0.749        0.106      112.349       16.547        0.022      334.382        4.319      859.290
04/05/2014  01:07:00      104.915       58.715       28.163       34.882       22.313       25.510     1216.734      497.856      650.773        0.881        0.118      120.227       20.931        0.030      334.358        4.280      859.301
04/05/2014  01:08:00       81.066       65.907       36.342       43.750       28.104       36.024     1914.082      789.826     1297.717        0.812        0.200      104.477       33.476        0.103      334.304        4.188      859.309
04/05/2014  01:09:00       23.551       53.777       53.260       24.732       25.124       18.133      611.680      631.226      328.791        0.393        0.079       58.707        9.598        0.027      334.314        4.207      859.308
04/05/2014  01:10:00       19.777       59.315       61.132       34.536       33.560       24.537     1192.764     1126.292      602.064        0.528        0.146       62.525       23.865        0.146      334.265        4.124      859.311
04/05/2014  01:11:00       14.824       81.191       86.851       25.024       35.889       18.829      626.203     1288.045      354.540        0.831        0.113       82.533       19.998        0.059      334.337        4.243      859.320
04/05/2014  01:12:00       57.668       54.270       51.332       37.320       35.784       32.684     1392.764     1280.461     1068.234        0.632        0.187       79.189       30.327        0.147      334.314        4.205      859.346
04/05/2014  01:13:00       64.550       50.277       52.211       40.578       29.799       29.429     1646.559      887.954      866.062        0.641        0.170       81.820       24.185        0.087      334.358        4.278      859.362
04/05/2014  01:14:00       93.363       70.067       46.223       33.253       25.577       27.700     1105.792      654.172      767.267        0.914        0.126      116.730       22.318        0.037      334.387        4.326      859.376
04/05/2014  01:15:00       85.693       75.766       38.398       35.246       24.100       32.599     1242.261      580.826     1062.677        0.872        0.144      114.385       21.940        0.037      334.386        4.326      859.383
04/05/2014  01:16:00       97.570       78.750       33.227       30.848       21.582       34.847      951.572      465.786     1214.303        0.973        0.132      125.386       22.619        0.033      334.357        4.277      859.392
04/05/2014  01:17:00      107.060       59.755       36.752       40.538       25.669       24.500     1643.323      658.922      600.253        0.964        0.145      122.607       15.045        0.015      334.403        4.353      859.402
04/05/2014  01:18:00       75.151       53.481       50.441       60.583       35.263       34.124     3670.276     1243.514     1164.470        0.856        0.304       92.238       27.392        0.088      334.362        4.285      859.401
04/05/2014  01:19:00       34.014       60.181       61.526       28.722       27.892       19.589      824.959      777.946      383.734        0.527        0.099       69.128        4.439        0.004      334.317        4.211      859.397
04/05/2014  01:20:00       65.442       59.077       38.366       33.415       25.773       28.553     1116.537      664.254      815.273        0.592        0.130       88.163       16.562        0.035      334.292        4.171      859.398
04/05/2014  01:21:00       18.103       53.758       62.900       28.598       28.690       12.965      817.844      823.106      168.080        0.449        0.090       56.725       14.105        0.062      334.209        4.033      859.412
04/05/2014  01:22:00       35.349       58.046       70.409       37.970       30.761       27.332     1441.733      946.259      747.059        0.636        0.157       67.962        9.871        0.021      334.245        4.091      859.426
04/05/2014  01:23:00       54.265       44.268       18.270       33.583       20.551       31.094     1127.825      422.324      966.847        0.388        0.126       70.031       24.454        0.122      334.238        4.078      859.447
04/05/2014  01:24:00       55.280       20.743       26.348       31.742       23.497       25.253     1007.558      552.100      637.733        0.319        0.110       59.044       20.698        0.123      334.149        3.930      859.450
04/05/2014  01:25:00       59.016       37.093       31.319       29.074       18.645       24.507      845.283      347.622      600.590        0.382        0.090       69.705       17.631        0.064      334.225        4.057      859.440
04/05/2014  01:26:00       51.758       24.917       34.924       30.797       21.252       28.627      948.472      451.652      819.531        0.337        0.111       57.444       21.220        0.136      334.239        4.082      859.434
04/05/2014  01:27:00       39.648       15.438       34.829       31.795       30.959       25.810     1010.904      958.434      666.164        0.283        0.132       42.547       23.565        0.307      334.216        4.042      859.446
04/05/2014  01:28:00       24.976       33.190       46.049       25.803       25.718       16.919      665.789      661.410      286.249        0.273        0.081       41.538       15.779        0.144      334.251        4.101      859.441
04/05/2014  01:29:00       69.105      -67.149       -3.262       40.743       49.680       27.740     1659.959     2468.069      769.509        0.710        0.245       96.356       34.671        0.129      334.323        4.219      859.437
04/05/2014  01:30:00       43.336      -16.702       16.405       49.164       36.997       33.063     2417.120     1368.792     1093.180        0.365        0.244       46.443       36.259        0.610      334.318        4.212      859.447
04/05/2014  01:31:00       12.094       -2.030       33.075       23.168       35.024       26.729      536.770     1226.667      714.429        0.186        0.124       12.263       20.740        2.860      334.360        4.282      859.467
04/05/2014  01:32:00       11.493      -37.945       20.788       19.848       34.818       20.183      393.957     1212.295      407.352        0.201        0.101       39.647       18.750        0.224      334.553        4.602      859.482
04/05/2014  01:33:00       34.035      -40.871        3.705       27.391       30.051       22.375      750.244      903.039      500.629        0.250        0.108       53.186       20.434        0.148      334.495        4.506      859.481
04/05/2014  01:34:00       -2.961        0.144       37.665       18.317       29.792       14.561      335.512      887.563      212.020        0.143        0.072        2.964       11.926       16.187      334.488        4.495      859.484
04/05/2014  01:35:00      -10.229       -7.492       16.297       19.768       19.752       15.026      390.792      390.146      225.779        0.072        0.050       12.679       12.963        1.045      334.497        4.510      859.484
04/05/2014  01:36:00       14.951       31.100       31.538       19.670       25.707       11.970      386.900      660.833      143.282        0.169        0.060       34.507        8.156        0.056      334.343        4.254      859.479
04/05/2014  01:37:00        9.494       21.081       46.958       20.638       20.687       12.164      425.932      427.939      147.965        0.187        0.050       23.120       12.545        0.294      334.261        4.116      859.479
04/05/2014  01:38:00        9.029       28.362       38.046       19.781       20.400       13.333      391.274      416.145      177.782        0.166        0.049       29.765        7.108        0.057      334.193        4.005      859.490
04/05/2014  01:39:00       52.480       36.943       19.629       33.317       16.679       17.067     1110.052      278.179      291.286        0.309        0.084       64.179       17.916        0.078      334.154        3.938      859.507
04/05/2014  01:40:00       32.585       23.287        8.386       15.205       14.968       11.992      231.186      224.037      143.819        0.114        0.030       40.051        8.751        0.048      334.091        3.835      859.520
04/05/2014  01:41:00       32.374       22.351       14.910       12.880       10.798       15.563      165.892      116.587      242.194        0.115        0.026       39.340        7.482        0.036      334.133        3.903      859.515
04/05/2014  01:42:00        4.231       31.419       49.436       18.370       22.596       14.266      337.442      510.571      203.528        0.225        0.053       31.703       10.104        0.102      334.265        4.123      859.506
04/05/2014  01:43:00       16.023      -20.787       25.144       25.820       41.220       25.899      666.698     1699.061      670.738        0.218        0.152       26.245       28.706        1.196      334.397        4.343      859.514
04/05/2014  01:44:00       12.858       25.016       27.030       26.723       30.735       20.575      714.125      944.663      423.347        0.180        0.104       28.127       18.212        0.419      334.272        4.136      859.529
04/05/2014  01:45:00       16.806       43.472       -4.010       19.951       20.920       12.922      398.045      437.649      166.978        0.160        0.050       46.607       14.704        0.100      334.032        3.739      859.533
04/05/2014  01:46:00       23.098       47.723       -4.030       13.926       19.035       13.921      193.933      362.332      193.783        0.179        0.038       53.019        9.624        0.033      334.008        3.697      859.526
04/05/2014  01:47:00       50.924       31.882        8.069       24.989       15.108       17.287      624.433      228.261      298.829        0.241        0.058       60.081       12.358        0.042      334.034        3.741      859.511
04/05/2014  01:48:00       43.793       59.244       33.063       23.389       20.834       22.998      547.049      434.060      528.903        0.402        0.076       73.673       15.687        0.045      334.092        3.836      859.496
04/05/2014  01:49:00       33.220       55.501       54.499       31.524       30.486       25.839      993.769      929.413      667.642        0.487        0.130       64.683       15.958        0.061      334.161        3.950      859.477
04/05/2014  01:50:00       50.607       82.069       67.614       29.415       27.484       20.990      865.271      755.348      440.574        0.796        0.103       96.418       15.402        0.026      334.290        4.165      859.470
04/05/2014  01:51:00       54.222       48.950       64.701       26.239       28.763       20.634      688.503      827.294      425.750        0.573        0.097       73.049       18.121        0.062      334.289        4.164      859.457
04/05/2014  01:52:00       33.020       41.614       55.351       43.490       31.344       26.794     1891.365      982.417      717.940        0.474        0.180       53.123       27.659        0.271      334.312        4.202      859.443
04/05/2014  01:53:00       39.307       72.905       75.466       29.445       35.846       20.614      866.980     1284.928      424.924        0.757        0.129       82.826       22.512        0.074      334.365        4.290      859.425
04/05/2014  01:54:00       18.363       24.317       54.962       33.782       31.428       23.654     1141.209      987.689      559.533        0.332        0.134       30.472       21.629        0.504      334.300        4.182      859.399
04/05/2014  01:55:00       18.743       39.701       67.819       38.750       43.999       34.601     1501.528     1935.902     1197.225        0.558        0.232       43.903       32.008        0.532      334.346        4.258      859.370
04/05/2014  01:56:00       -4.252       -4.038       40.037       20.032       46.464       28.399      401.298     2158.885      806.512        0.250        0.168        5.864       31.514       28.880      334.427        4.393      859.354
04/05/2014  01:57:00       36.798      -81.455       -1.807       37.597       34.915       26.109     1413.515     1219.091      681.679        0.565        0.166       89.381       22.460        0.063      334.466        4.455      859.350
04/05/2014  01:58:00       29.866      -11.500       21.030       40.870       44.423       26.680     1670.364     1973.401      711.824        0.291        0.218       32.003       30.897        0.932      334.385        4.325      859.334
04/05/2014  01:59:00        3.666       -5.820       33.528       20.984       20.346       17.310      440.312      413.978      299.622        0.116        0.058        6.878       14.537        4.467      334.370        4.298      859.331
04/05/2014  02:00:00       12.830      -17.667       31.292       27.878       33.506       18.929      777.203     1122.646      358.323        0.186        0.113       21.835        9.427        0.186      334.454        4.440      859.321
04/05/2014  02:01:00       41.142      -30.952       17.478       39.135       65.599       39.324     1531.569     4303.200     1546.354        0.517        0.369       51.485       44.636        0.752      334.477        4.474      859.317
04/05/2014  02:02:00        9.351       10.013       53.554       24.609       31.031       25.589      605.593      962.910      654.776        0.264        0.111       13.701       19.845        2.098      334.419        4.380      859.319
04/05/2014  02:03:00       10.052      -34.982       13.676       20.247       40.995       25.626      409.930     1680.620      656.710        0.213        0.137       36.398       26.597        0.534      334.456        4.441      859.327
04/05/2014  02:04:00       -2.085      -45.014        6.147       18.373       17.443       15.621      337.564      304.260      244.010        0.148        0.044       45.062       13.438        0.089      334.539        4.579      859.338
04/05/2014  02:05:00      -12.512      -26.776      -18.972       15.849       20.708       11.314      251.188      428.804      128.011        0.102        0.040       29.555       10.769        0.133      334.398        4.345      859.346
04/05/2014  02:06:00        0.579        6.742       11.241       17.254        7.383       13.047      297.702       54.515      170.212        0.035        0.026        6.767       12.632        3.485      334.357        4.276      859.351
04/05/2014  02:07:00       17.364       15.963        2.313       15.749       19.616       13.250      248.041      384.789      175.575        0.068        0.040       23.587       12.271        0.271      334.220        4.049      859.356
04/05/2014  02:08:00       -1.706        6.484       24.948       13.540       27.579       24.113      183.343      760.613      581.424        0.110        0.076        6.704       23.310       12.089      334.269        4.131      859.359
04/05/2014  02:09:00       -7.905        0.642       18.562        8.777       15.818       12.088       77.043      250.213      146.128        0.044        0.024        7.931       11.638        2.153      334.262        4.119      859.373
04/05/2014  02:10:00      -16.461      -26.737        8.604       15.003       28.961       15.485      225.075      838.740      239.796        0.118        0.065       31.398        5.681        0.033      334.370        4.299      859.381
04/05/2014  02:11:00       12.471      -60.931      -13.247       28.798       25.877       22.935      829.332      669.621      526.018        0.303        0.101       62.194       21.227        0.116      334.408        4.362      859.383
04/05/2014  02:12:00      -20.906       -4.049       -4.275       13.769       11.919        9.410      189.575      142.057       88.548        0.045        0.021       21.294        8.245        0.150      334.276        4.144      859.380
04/05/2014  02:13:00      -28.162       22.821      -14.188       15.670       17.049       12.807      245.560      290.655      164.025        0.111        0.035       36.248        9.501        0.069      334.280        4.149      859.376
04/05/2014  02:14:00      -12.736        6.510       24.758       12.887       18.479       12.560      166.075      341.461      157.749        0.074        0.033       14.303        3.752        0.069      334.278        4.146      859.370
04/05/2014  02:15:00      -11.726       25.671       34.328       11.061       14.747       10.113      122.344      217.476      102.264        0.121        0.022       28.222        3.041        0.012      334.256        4.109      859.362
04/05/2014  02:16:00      -17.471       13.698       33.508       12.559       24.510       15.448      157.719      600.721      238.628        0.131        0.050       22.201       15.371        0.479      334.268        4.129      859.353
04/05/2014  02:17:00      -17.312       -8.826       25.660       16.417       26.477       12.678      269.522      701.041      160.726        0.108        0.057       19.432       14.062        0.524      334.375        4.308      859.352
04/05/2014  02:18:00       -6.867      -10.040       21.195       14.034       32.022       16.569      196.951     1025.401      274.523        0.105        0.075       12.164       12.763        1.101      334.329        4.230      859.355
04/05/2014  02:19:00       75.790      -82.993      -11.146       23.706       27.075       18.661      561.954      733.073      348.232        0.720        0.082      112.392       14.033        0.016      334.328        4.228      859.360
04/05/2014  02:20:00       20.415      -24.392       28.943       32.717       68.326       21.947     1070.402     4668.432      481.653        0.403        0.311       31.808       35.777        1.265      334.338        4.246      859.367
04/05/2014  02:21:00        3.650       17.402       39.653       16.018       18.155       10.840      256.566      329.604      117.504        0.130        0.035       17.780        8.499        0.228      334.300        4.183      859.374
04/05/2014  02:22:00       17.862      -34.738       29.300       21.748       42.207       21.101      472.964     1781.444      445.232        0.254        0.135       39.062       20.187        0.267      334.292        4.169      859.383
04/05/2014  02:23:00       14.764       12.746       42.970       21.351       28.853       21.413      455.880      832.476      458.528        0.199        0.087       19.505       18.626        0.912      334.232        4.069      859.384
04/05/2014  02:24:00        6.884       43.643       63.034       25.015       23.849       20.053      625.757      568.753      402.107        0.376        0.080       44.183       11.254        0.065      334.246        4.092      859.378
04/05/2014  02:25:00        4.361       53.823       70.736       20.512       31.877       20.878      420.759     1016.114      435.889        0.490        0.094       53.999       21.905        0.165      334.201        4.018      859.372
04/05/2014  02:26:00        8.735       56.166       73.852       32.886       39.012       14.720     1081.463     1521.910      216.668        0.575        0.141       56.841       15.086        0.070      334.205        4.025      859.361
04/05/2014  02:27:00        2.109       42.053       75.392       26.502       32.994       20.052      702.374     1088.634      402.073        0.482        0.110       42.106       20.304        0.233      334.242        4.086      859.356
04/05/2014  02:28:00       10.443       17.219       57.740       22.913       33.174       22.893      525.021     1100.503      524.079        0.294        0.107       20.139       21.559        1.146      334.213        4.038      859.347
04/05/2014  02:29:00        0.363       -7.019       40.569       15.378       27.320       16.258      236.474      746.356      264.314        0.147        0.062        7.028       11.469        2.663      334.215        4.040      859.349
04/05/2014  02:30:00       17.131      -52.634       16.312       20.201       31.955       19.520      408.097     1021.110      381.036        0.257        0.091       55.352       14.049        0.064      334.283        4.154      859.357
04/05/2014  02:31:00       50.272      -73.023       -0.716       22.734       31.708       18.782      516.814     1005.402      352.766        0.487        0.094       88.654       17.129        0.037      334.276        4.143      859.360
04/05/2014  02:32:00       61.199      -71.009       -6.302       17.548       29.857       14.260      307.942      891.425      203.357        0.511        0.070       93.742       11.613        0.015      334.260        4.116      859.366
04/05/2014  02:33:00       44.965      -75.946        2.742       26.154       27.334       18.932      684.011      747.128      358.407        0.479        0.089       88.259       19.517        0.049      334.329        4.231      859.381
04/05/2014  02:34:00        5.989      -20.759       24.639       14.040       28.475       20.429      197.125      810.821      417.361        0.125        0.071       21.606       17.744        0.674      334.252        4.103      859.381
04/05/2014  02:35:00       -0.606       18.199       36.049       18.726       20.772       11.158      350.676      431.460      124.508        0.127        0.045       18.209       10.387        0.325      334.154        3.938      859.384
04/05/2014  02:36:00       18.320      -26.139       16.010       18.865       33.166       26.138      355.905     1099.955      683.170        0.171        0.107       31.920       24.623        0.595      334.231        4.067      859.376
04/05/2014  02:37:00        3.650      -48.554        3.457       29.632       21.355       21.667      878.079      456.035      469.445        0.209        0.090       48.691       19.854        0.166      334.223        4.054      859.373
04/05/2014  02:38:00      -40.009      -11.491       -5.712       13.125       11.097        7.723      172.279      123.140       59.644        0.106        0.018       41.627        4.797        0.013      333.982        3.653      859.372
04/05/2014  02:39:00      -70.641      -51.845       -1.094       51.489       48.474       26.717     2651.082     2349.734      713.801        0.670        0.286       87.625       11.566        0.017      333.976        3.646      859.369
04/05/2014  02:40:00      -73.873      -88.031        6.286       61.276       35.254       27.700     3754.758     1242.825      767.316        0.950        0.288      114.920       31.141        0.073      333.990        3.670      859.375
04/05/2014  02:41:00     -115.289      -99.234       -1.205       38.759       41.827       30.327     1502.268     1749.528      919.727        1.366        0.209      152.115       21.078        0.019      333.908        3.531      859.378
04/05/2014  02:42:00     -116.999     -105.381       -4.943       42.004       31.598       24.116     1764.318      998.453      581.559        1.408        0.167      157.461       17.694        0.013      333.901        3.520      859.373
04/05/2014  02:43:00     -127.707     -129.487       -8.974       35.171       30.025       18.336     1237.009      901.513      336.191        1.782        0.124      181.868       12.983        0.005      333.921        3.553      859.383
04/05/2014  02:44:00     -107.320      -63.713        4.192       43.659       30.624       22.877     1906.103      937.838      523.357        0.948        0.168      124.808       18.854        0.023      333.881        3.488      859.390
04/05/2014  02:45:00      -83.917      -54.131       -2.591       31.847       35.752       19.330     1014.212     1278.178      373.640        0.632        0.133       99.861       12.906        0.017      333.894        3.508      859.401
04/05/2014  02:46:00      -90.081      -46.406       -6.536       22.599       25.901       10.894      510.715      670.847      118.669        0.581        0.065      101.332       10.557        0.011      333.886        3.496      859.415
04/05/2014  02:47:00      -84.643       -9.426       -6.168       46.191       33.729       25.302     2133.582     1137.667      640.181        0.560        0.196       85.166       29.788        0.122      333.667        3.132      859.421
04/05/2014  02:48:00     -115.382      -15.573       -0.622       51.932       34.889       25.929     2696.959     1217.248      672.294        0.907        0.229      116.428       26.104        0.050      333.478        2.818      859.414
04/05/2014  02:49:00     -111.532      -13.793        0.570       51.044       44.577       23.082     2605.451     1987.094      532.799        0.888        0.256      112.381       23.284        0.043      333.458        2.784      859.411
04/05/2014  02:50:00     -114.227        8.759       -5.803       24.840       32.479       20.746      617.034     1054.856      430.379        0.763        0.105      114.562       13.993        0.015      333.254        2.448      859.401
04/05/2014  02:51:00      -99.891       18.863       -5.827       32.045       25.208       19.918     1026.857      635.464      396.724        0.621        0.103      101.656       11.986        0.014      333.217        2.387      859.383
04/05/2014  02:52:00     -119.111       13.633       -9.182       27.630       22.450       12.580      763.423      504.010      158.266        0.794        0.071      119.889       12.173        0.010      333.299        2.523      859.377
04/05/2014  02:53:00     -115.630       -3.538      -10.901       12.408       17.492        9.753      153.969      305.963       95.112        0.703        0.028      115.684        4.610        0.002      333.416        2.716      859.374
04/05/2014  02:54:00      -70.907      -22.866        5.200       28.525       23.080       14.754      813.689      532.669      217.686        0.357        0.078       74.502       15.731        0.045      333.348        2.604      859.375
04/05/2014  02:55:00     -108.422      -39.693        0.865       36.793       19.507       14.275     1353.747      380.537      203.772        0.763        0.097      115.459       11.825        0.010      333.349        2.606      859.373
04/05/2014  02:56:00      -98.544      -35.828       -2.707       24.527       23.216       14.314      601.575      539.002      204.897        0.617        0.067      104.855       14.425        0.019      333.344        2.599      859.375
04/05/2014  02:57:00      -98.629      -11.279       -5.874       20.534       15.917       11.804      421.629      253.345      139.328        0.535        0.041       99.271        9.306        0.009      333.322        2.562      859.372
04/05/2014  02:58:00      -62.603        3.743       -6.106       30.070       18.105       16.086      904.208      327.776      258.767        0.273        0.075       62.715       18.316        0.085      333.220        2.391      859.372
04/05/2014  02:59:00      -55.968        7.222       -0.252       37.232       17.379       13.286     1386.238      302.036      176.525        0.252        0.093       56.432        8.463        0.022      333.262        2.462      859.379
04/05/2014  03:00:00      -84.570       13.927       -6.909       27.314       20.446       14.371      746.030      418.038      206.540        0.438        0.069       85.709        8.677        0.010      333.284        2.499      859.388
04/05/2014  03:01:00     -102.853      -16.685       -9.682       30.908       21.938       14.062      955.312      481.263      197.738        0.629        0.082      104.197       13.313        0.016      333.311        2.542      859.401
04/05/2014  03:02:00      -93.112       -8.572       -2.718       33.180       27.009       20.456     1100.941      729.485      418.441        0.550        0.112       93.506       19.848        0.045      333.273        2.479      859.412
04/05/2014  03:03:00     -107.978        7.440      -12.215       42.344       25.727       22.256     1793.052      661.885      495.349        0.741        0.148      108.234       19.278        0.032      333.375        2.647      859.420
04/05/2014  03:04:00     -116.662      -17.504       -5.243       41.863       20.289       13.525     1752.485      411.630      182.915        0.814        0.117      117.967       16.007        0.018      333.370        2.640      859.429
04/05/2014  03:05:00     -112.130      -15.614       -7.464       35.988       29.431       17.471     1295.163      866.180      305.220        0.767        0.123      113.212       16.055        0.020      333.263        2.463      859.433
04/05/2014  03:06:00      -97.483       -3.015       -1.961       40.532       30.333       27.279     1642.839      920.095      744.123        0.641        0.165       97.529       28.357        0.085      333.166        2.302      859.443
04/05/2014  03:07:00     -132.401      -28.694       -1.518       38.674       36.743       24.715     1495.677     1350.063      610.824        1.091        0.173      135.475       23.406        0.030      333.181        2.327      859.450
04/05/2014  03:08:00     -141.248      -61.150       -4.940       25.929       22.971       16.771      672.312      527.651      281.253        1.260        0.074      153.916       14.742        0.009      333.343        2.596      859.460
04/05/2014  03:09:00     -119.065      -69.654       -1.180       44.855       28.403       16.449     2012.010      806.725      270.571        1.106        0.154      137.943       18.809        0.019      333.348        2.602      859.472
04/05/2014  03:10:00     -104.438      -63.552        6.302       55.876       34.968       23.257     3122.081     1222.740      540.885        0.993        0.244      122.254       22.757        0.035      333.458        2.784      859.481
04/05/2014  03:11:00     -105.853      -77.321        6.909       50.630       41.895       30.725     2563.425     1755.197      944.009        1.125        0.263      131.085       26.171        0.040      333.495        2.845      859.483
04/05/2014  03:12:00     -101.742      -79.859        5.012       47.914       41.413       32.464     2295.789     1715.053     1053.917        1.091        0.253      129.341       28.954        0.050      333.555        2.947      859.493
04/05/2014  03:13:00     -103.375      -49.936        0.610       27.365       28.500       18.135      748.845      812.229      328.886        0.753        0.094      114.804       16.026        0.019      333.515        2.880      859.504
04/05/2014  03:14:00      -96.497      -42.479        4.917       49.829       34.058       26.722     2482.908     1159.954      714.061        0.775        0.218      105.433       30.359        0.083      333.472        2.810      859.518
04/05/2014  03:15:00      -87.055       -1.015       -5.910       38.864       24.720       15.909     1510.432      611.069      253.091        0.499        0.119       87.061       14.655        0.028      333.300        2.523      859.519
04/05/2014  03:16:00     -114.639       -6.791      -10.909       26.505       26.276       18.366      702.538      690.422      337.315        0.752        0.087      114.840       16.153        0.020      333.258        2.455      859.516
04/05/2014  03:17:00      -81.535      -44.882       -6.411       17.961       20.647       14.702      322.597      426.318      216.150        0.483        0.048       93.072       10.055        0.012      333.257        2.452      859.503
04/05/2014  03:18:00      -59.417      -28.520       -4.944       14.487       15.397       12.660      209.882      237.062      160.271        0.249        0.030       65.907       11.004        0.028      333.224        2.396      859.490
04/05/2014  03:19:00      -50.116      -25.791       -8.604       10.647       14.966        8.553      113.365      223.990       73.157        0.183        0.021       56.362        5.323        0.009      333.222        2.394      859.489
04/05/2014  03:20:00      -72.518      -36.878       -6.518       22.869       22.385       12.376      523.012      501.098      153.166        0.392        0.059       81.356        8.141        0.010      333.224        2.398      859.493
04/05/2014  03:21:00     -125.087      -38.244       -6.314       21.314       20.454       11.466      454.278      418.370      131.465        0.908        0.050      130.802       10.336        0.006      333.075        2.154      859.500
04/05/2014  03:22:00     -106.727      -52.304        3.910       42.913       32.543       21.266     1841.502     1059.052      452.248        0.875        0.168      118.854       23.984        0.041      333.054        2.119      859.511
04/05/2014  03:23:00      -62.637      -25.284        1.291       29.642       24.154       18.714      878.623      583.428      350.227        0.319        0.091       67.547       13.243        0.038      333.166        2.301      859.519
04/05/2014  03:24:00      -36.058        6.041       -1.380       14.677       15.716        9.035      215.411      247.001       81.626        0.094        0.027       36.561        6.872        0.035      333.039        2.094      859.522
04/05/2014  03:25:00      -49.639       17.642       -7.109       17.204       14.440        8.966      295.980      208.512       80.393        0.171        0.029       52.681        9.213        0.031      333.238        2.422      859.517
04/05/2014  03:26:00      -61.186        5.120       -8.570       21.223       21.980       14.079      450.402      483.134      198.232        0.249        0.057       61.399        8.602        0.020      333.211        2.376      859.526
04/05/2014  03:27:00      -68.290      -29.390      -14.116       11.268       16.763        9.691      126.978      280.987       93.913        0.311        0.025       74.346        3.023        0.002      333.055        2.118      859.535
04/05/2014  03:28:00      -43.172      -42.570       -1.894       22.727       20.529       13.186      516.503      421.458      173.881        0.240        0.056       60.630       11.108        0.034      333.097        2.188      859.545
04/05/2014  03:29:00      -31.393      -26.296        0.317       22.918       17.856       14.691      525.228      318.825      215.818        0.137        0.053       40.951       11.205        0.075      333.062        2.130      859.539
04/05/2014  03:30:00      -54.573      -42.047        6.534       37.626       16.248       13.955     1415.700      263.996      194.740        0.333        0.094       68.892       14.879        0.047      333.163        2.296      859.521
04/05/2014  03:31:00      -62.802       -7.870       -2.384       40.481       29.413       18.450     1638.749      865.120      340.403        0.343        0.142       63.293       20.495        0.105      332.979        1.996      859.516
04/05/2014  03:32:00      -72.893       15.742      -15.589       28.044       28.218       16.530      786.483      796.231      273.252        0.383        0.093       74.573       12.062        0.026      332.983        2.002      859.517
04/05/2014  03:33:00      -14.042       -5.411       -5.726       17.131       13.735        8.388      293.470      188.651       70.364        0.041        0.028       15.049        6.925        0.212      333.048        2.109      859.514
04/05/2014  03:34:00      -23.416      -16.778       -1.896       20.065       11.315        8.859      402.615      128.031       78.480        0.072        0.030       28.807        7.548        0.069      333.197        2.354      859.508
04/05/2014  03:35:00      -28.426      -10.066       -4.606       10.984        5.754        5.189      120.651       33.111       26.925        0.056        0.009       30.155        4.165        0.019      333.496        2.847      859.507
04/05/2014  03:36:00      -35.692      -17.358       -6.186        8.234        8.956        7.796       67.796       80.204       60.770        0.091        0.010       39.689        2.705        0.005      333.520        2.888      859.508
04/05/2014  03:37:00      -45.965      -14.382       -7.297       14.318       10.133        7.982      205.006      102.686       63.716        0.137        0.019       48.162        7.862        0.027      333.338        2.586      859.513
04/05/2014  03:38:00      -62.802       11.155       -4.202       22.293       16.566        9.951      496.985      274.444       99.018        0.248        0.044       63.785       11.071        0.030      333.164        2.300      859.528
04/05/2014  03:39:00      -59.807       -0.260       -9.893       29.463       17.849       13.212      868.089      318.587      174.561        0.252        0.068       59.808       15.867        0.070      333.009        2.044      859.549
04/05/2014  03:40:00      -70.465        4.864       -9.122       21.754       26.957       13.072      473.244      726.665      170.888        0.322        0.069       70.633        7.665        0.012      333.145        2.268      859.554
04/05/2014  03:41:00      -55.665      -13.290      -13.642       18.391       18.937        7.246      338.213      358.611       52.506        0.211        0.037       57.230        6.263        0.012      333.257        2.451      859.558
04/05/2014  03:42:00      -10.723      -31.589        5.751       23.508       15.388       15.163      552.621      236.784      229.909        0.108        0.051       33.359        9.952        0.089      333.223        2.397      859.552
04/05/2014  03:43:00       -5.972      -12.256        2.692       19.017        7.824       11.370      361.628       61.214      129.283        0.037        0.028       13.633       13.132        0.928      333.266        2.467      859.545
04/05/2014  03:44:00      -64.293       -6.523       -9.358       29.744       12.957        6.835      884.681      167.877       46.714        0.268        0.055       64.623        4.042        0.004      333.137        2.253      859.551
04/05/2014  03:45:00      -57.120       -2.798       -7.748       19.615        9.684       11.655      384.750       93.781      135.832        0.197        0.031       57.189        9.137        0.026      333.021        2.062      859.555
04/05/2014  03:46:00       -2.990       23.319        1.188       21.482       24.407       13.439      461.485      595.713      180.608        0.090        0.062       23.510       13.847        0.347      333.301        2.525      859.559
04/05/2014  03:47:00       29.578       84.742      -10.276       24.346       30.150       16.648      592.716      909.007      277.157        0.497        0.089       89.756       16.843        0.035      333.540        2.922      859.560
04/05/2014  03:48:00       24.295       21.820       -1.741       15.492       24.141       11.349      240.005      582.776      128.807        0.101        0.048       32.655       10.407        0.102      333.522        2.892      859.559
04/05/2014  03:49:00       15.629       -6.019        0.393       18.784       14.101        6.282      352.839      198.837       39.461        0.044        0.030       16.748        6.385        0.145      333.627        3.066      859.560
04/05/2014  03:50:00      -21.118      -10.822       -5.273       17.582       10.890        7.438      309.143      118.594       55.322        0.054        0.024       23.729        4.656        0.038      333.582        2.992      859.574
04/05/2014  03:51:00      -53.788       14.658       -4.841       16.155       10.676        6.479      260.969      113.969       41.972        0.177        0.021       55.749        5.758        0.011      333.292        2.512      859.594
04/05/2014  03:52:00      -38.968       -1.900       -9.216       19.595       28.323       12.452      383.976      802.193      155.045        0.147        0.067       39.014        3.071        0.006      333.006        2.040      859.611
04/05/2014  03:53:00      -79.792      -17.760       -6.972       27.492       23.806       15.548      755.837      566.703      241.740        0.415        0.078       81.745       12.875        0.025      332.719        1.565      859.622
04/05/2014  03:54:00      -63.637      -30.478       -7.554       27.687       19.078       12.458      766.578      363.957      155.204        0.316        0.064       70.559        9.435        0.018      332.781        1.666      859.632
04/05/2014  03:55:00      -29.022      -24.972        3.195       15.252       13.143        9.827      232.609      172.731       96.572        0.099        0.025       38.287        9.145        0.057      333.115        2.220      859.636
04/05/2014  03:56:00      -18.987      -22.500       -0.836       14.153        8.173        8.013      200.310       66.794       64.215        0.060        0.017       29.441        5.454        0.034      333.198        2.355      859.636
04/05/2014  03:57:00       -2.686      -27.684       -7.623        9.107       10.680        9.871       82.944      114.063       97.429        0.056        0.015       27.814        4.769        0.029      333.491        2.842      859.635
04/05/2014  03:58:00      -18.903       -9.729       -2.944       17.129        7.451        6.590      293.388       55.520       43.427        0.043        0.020       21.260        6.688        0.099      333.485        2.830      859.633
04/05/2014  03:59:00      -49.483      -17.715       -6.955        9.110        9.488        7.581       83.000       90.025       57.465        0.152        0.012       52.559        2.221        0.002      333.198        2.354      859.642
04/05/2014  04:00:00      -54.132      -19.637       -4.987        8.654        8.542        6.596       74.888       72.965       43.506        0.177        0.010       57.583        4.736        0.007      333.090        2.180      859.656
04/05/2014  04:01:00      -41.811      -15.881       -6.254        8.056        6.503        7.107       64.897       42.288       50.510        0.110        0.008       44.726        3.530        0.006      333.220        2.391      859.660
04/05/2014  04:02:00      -22.354       -9.785       -6.881       13.531        8.264        5.312      183.084       68.289       28.215        0.046        0.014       24.402        3.854        0.025      333.351        2.608      859.671
04/05/2014  04:03:00      -19.310      -26.343       -4.846       11.696        8.989        7.763      136.805       80.796       60.260        0.068        0.014       32.662        7.314        0.050      333.620        3.054      859.678
04/05/2014  04:04:00      -18.107      -17.165        3.033       12.518        7.526        7.562      156.711       56.643       57.182        0.045        0.014       24.950        7.696        0.095      333.553        2.943      859.683
04/05/2014  04:05:00      -17.769      -11.079       -2.669       12.478        6.514        2.718      155.710       42.438        7.390        0.033        0.010       20.939        2.556        0.015      333.572        2.977      859.691
04/05/2014  04:06:00      -39.771        6.327       -8.321        5.155        5.335        4.265       26.571       28.465       18.192        0.088        0.004       40.271        2.775        0.005      333.547        2.935      859.693
04/05/2014  04:07:00      -36.413        7.594      -10.346       12.226        5.790        8.140      149.472       33.523       66.268        0.087        0.012       37.197        7.425        0.040      333.722        3.223      859.686
04/05/2014  04:08:00      -26.139       11.925       -7.712       13.334        6.675        6.907      177.803       44.559       47.713        0.058        0.014       28.731        4.152        0.021      333.819        3.384      859.682
04/05/2014  04:09:00        7.176       27.882        0.899       11.012       16.898        6.092      121.264      285.549       37.111        0.064        0.022       28.790        3.693        0.016      333.804        3.358      859.674
04/05/2014  04:10:00       11.908       39.768       -6.509        5.451        8.055        4.833       29.715       64.885       23.360        0.094        0.006       41.513        4.365        0.011      333.796        3.348      859.677
04/05/2014  04:11:00       13.479       31.101       -5.215        4.006        4.982        3.414       16.048       24.816       11.657        0.061        0.003       33.897        1.854        0.003      333.803        3.355      859.686
04/05/2014  04:12:00       21.069       31.532       -2.164        7.921        9.178       11.646       62.750       84.236      135.618        0.086        0.014       37.924        7.738        0.042      333.763        3.290      859.699
04/05/2014  04:13:00       27.368       36.310        8.049        6.995        7.516        6.974       48.926       56.483       48.639        0.114        0.008       45.469        3.216        0.005      333.740        3.253      859.707
04/05/2014  04:14:00      -21.625        4.310        1.111       26.576       25.539        6.429      706.261      652.219       41.326        0.094        0.070       22.050        8.767        0.158      333.454        2.780      859.718
04/05/2014  04:15:00      -67.383      -27.611       -8.235        9.983       11.183        7.621       99.667      125.063       58.080        0.283        0.014       72.820        4.941        0.005      333.094        2.186      859.723
04/05/2014  04:16:00      -74.856      -48.311      -10.770       13.860       13.930        9.527      192.105      194.040       90.758        0.427        0.024       89.092        5.600        0.004      333.196        2.353      859.726
04/05/2014  04:17:00      -60.175      -58.729      -11.537       15.987       14.535       11.421      255.576      211.263      130.444        0.390        0.030       84.084        7.658        0.008      333.532        2.908      859.725
04/05/2014  04:18:00      -42.314      -31.458        0.150       19.259       12.806        8.619      370.923      163.993       74.295        0.169        0.030       52.727        7.315        0.019      333.639        3.086      859.719
04/05/2014  04:19:00      -56.693      -23.958       -4.471       11.418       18.544        7.591      130.371      343.880       57.619        0.217        0.027       61.547        4.631        0.006      333.514        2.877      859.715
04/05/2014  04:20:00      -38.691       -7.798       -0.341       16.312       12.591        7.042      266.091      158.531       49.593        0.102        0.024       39.469        7.309        0.034      333.352        2.610      859.713
04/05/2014  04:21:00      -61.656       -8.884       -6.069        7.147        9.200        7.179       51.078       84.637       51.537        0.205        0.009       62.293        5.033        0.007      333.366        2.631      859.711
04/05/2014  04:22:00      -44.046      -31.902       -0.483       13.373       11.240        6.623      178.833      126.348       43.865        0.165        0.017       54.386        4.321        0.006      333.370        2.640      859.717
04/05/2014  04:23:00      -32.786      -21.677        3.555       22.258       18.303       15.256      495.425      335.005      232.758        0.131        0.053       39.304       13.450        0.117      333.253        2.447      859.719
04/05/2014  04:24:00      -35.598      -17.778        1.895       18.377       12.876       11.108      337.729      165.780      123.378        0.111        0.031       39.790       11.548        0.084      333.078        2.157      859.725
04/05/2014  04:25:00      -49.378       -3.718       -6.871       14.556       10.483        7.244      211.864      109.897       52.478        0.144        0.019       49.518        7.139        0.021      333.062        2.132      859.735
04/05/2014  04:26:00      -40.955      -11.839       -0.420       14.063       12.226        8.972      197.781      149.473       80.503        0.112        0.021       42.632        5.672        0.018      333.038        2.092      859.742
04/05/2014  04:27:00      -61.762      -18.694       -1.367       16.306       17.775       10.089      265.884      315.949      101.792        0.242        0.034       64.529        9.204        0.020      333.052        2.113      859.746
04/05/2014  04:28:00      -68.424      -14.764       -3.882       16.381       13.432       10.170      268.344      180.432      103.435        0.273        0.028       69.999        9.217        0.017      333.019        2.061      859.747
04/05/2014  04:29:00      -53.530      -21.004        2.707       23.883       17.209       11.204      570.409      296.145      125.533        0.215        0.050       57.503       12.173        0.045      332.840        1.766      859.741
04/05/2014  04:30:00      -69.976       -7.293       -1.408       25.168       19.962       12.711      633.404      398.468      161.559        0.307        0.060       70.355        9.108        0.017      332.723        1.570      859.742
04/05/2014  04:31:00      -53.958      -14.367       -3.124       27.941       16.092       13.696      780.725      258.954      187.582        0.218        0.061       55.838       16.381        0.086      332.658        1.464      859.745
04/05/2014  04:32:00      -83.943       -1.727       -8.572       23.915       12.270       13.446      571.944      150.546      180.798        0.401        0.045       83.961       13.880        0.027      332.684        1.506      859.746
04/05/2014  04:33:00      -55.193       -6.828        1.050       26.312       19.174       13.474      692.343      367.641      181.556        0.217        0.062       55.614       10.311        0.034      332.689        1.516      859.742
04/05/2014  04:34:00      -65.693       -8.240       -6.971       19.018       13.071       10.149      361.667      170.846      103.012        0.253        0.032       66.208        8.212        0.015      332.775        1.657      859.742
04/05/2014  04:35:00      -65.931      -15.122       -6.727       11.204       14.240        8.252      125.537      202.775       68.095        0.251        0.020       67.643        5.837        0.007      332.830        1.748      859.740
04/05/2014  04:36:00      -68.439      -25.175       -8.598        9.846       12.377        7.060       96.951      153.192       49.846        0.285        0.015       72.923        3.593        0.002      332.893        1.853      859.734
04/05/2014  04:37:00      -38.924      -25.744        0.629       21.799       18.163       12.577      475.214      329.899      158.190        0.157        0.048       46.668       11.898        0.065      332.797        1.694      859.738
04/05/2014  04:38:00      -57.336      -22.004       -2.335       28.746       19.391       12.265      826.345      376.001      150.438        0.256        0.068       61.413       14.148        0.053      332.723        1.570      859.749
04/05/2014  04:39:00      -57.801      -18.113        0.550       25.105       18.592       11.774      630.258      345.667      138.626        0.239        0.056       60.573        9.501        0.025      332.778        1.662      859.752
04/05/2014  04:40:00      -60.582      -29.840        2.688       24.357       17.707       15.194      593.286      313.543      230.844        0.285        0.057       67.532       14.322        0.045      332.909        1.877      859.757
04/05/2014  04:41:00      -62.379      -36.019       -0.015       35.406       21.986       13.681     1253.563      483.394      187.163        0.356        0.096       72.032       18.047        0.063      332.968        1.975      859.755
04/05/2014  04:42:00      -40.129      -32.264        4.728       27.734       16.115       16.480      769.187      259.694      271.580        0.199        0.065       51.491       13.502        0.069      333.023        2.068      859.749
04/05/2014  04:43:00      -15.925      -25.931        4.611       25.746       13.750       14.479      662.880      189.062      209.646        0.100        0.053       30.431       14.198        0.218      333.103        2.199      859.744
04/05/2014  04:44:00      -36.284      -26.636        3.350       24.987       14.899       10.725      624.350      221.979      115.035        0.150        0.048       45.011       10.599        0.055      333.007        2.040      859.746
04/05/2014  04:45:00      -45.016       -4.471        1.204       21.712       20.360       13.350      471.415      414.529      178.226        0.156        0.053       45.237       11.200        0.061      332.801        1.702      859.745
04/05/2014  04:46:00      -31.034       20.758       -4.099       22.839       19.198       13.989      521.629      368.575      195.694        0.125        0.054       37.336       14.150        0.144      332.663        1.471      859.756
04/05/2014  04:47:00        2.994       50.760       -2.655       29.704       34.378       15.891      882.314     1181.838      252.514        0.245        0.116       50.848       19.745        0.151      332.679        1.499      859.765
04/05/2014  04:48:00       18.156      104.161      -11.453       13.560       23.325       12.616      183.883      544.067      159.163        0.610        0.044      105.732       10.240        0.009      332.685        1.508      859.767
04/05/2014  04:49:00       -5.043       34.644        8.521       25.594       28.319       13.721      655.032      801.968      188.263        0.147        0.082       35.009        9.875        0.080      332.774        1.657      859.762
04/05/2014  04:50:00       -1.185       24.570       -4.239        9.914        7.801        8.348       98.291       60.861       69.682        0.043        0.011       24.598        5.265        0.046      332.816        1.725      859.757
04/05/2014  04:51:00      -42.918        0.200       -7.535        9.339        8.362        7.944       87.225       69.922       63.100        0.106        0.011       42.918        4.882        0.013      332.806        1.709      859.753
04/05/2014  04:52:00      -58.091      -19.566       -6.282       11.597       13.135        8.276      134.490      172.540       68.484        0.209        0.019       61.298        4.460        0.005      332.754        1.622      859.757
04/05/2014  04:53:00      -72.550      -18.415       -7.751        7.804        8.574        5.726       60.905       73.520       32.792        0.291        0.008       74.850        5.142        0.005      332.752        1.619      859.756
04/05/2014  04:54:00      -65.535      -13.443       -6.861       16.856       16.202       10.444      284.140      262.517      109.072        0.259        0.033       66.900        6.555        0.010      332.689        1.516      859.755
04/05/2014  04:55:00      -88.407       -6.004      -11.824       29.575       17.972       15.085      874.708      323.000      227.570        0.471        0.071       88.611       17.455        0.039      332.519        1.234      859.755
04/05/2014  04:56:00      -69.438      -27.574       -1.563       17.718       19.493       15.680      313.923      379.958      245.875        0.326        0.047       74.713       12.406        0.028      332.523        1.240      859.760
04/05/2014  04:57:00      -67.772      -31.214      -12.981       16.375       10.721       12.939      268.133      114.944      167.407        0.314        0.028       74.615        6.423        0.007      332.511        1.219      859.757
04/05/2014  04:58:00      -68.514      -31.537       -9.127       18.914       14.810       15.948      357.731      219.340      254.325        0.330        0.042       75.423        8.453        0.013      332.444        1.110      859.758
04/05/2014  04:59:00      -96.644      -30.082       -5.502       19.747       20.587       13.854      389.960      423.838      191.921        0.564        0.050      101.218        4.366        0.002      332.413        1.060      859.758
04/05/2014  05:00:00     -104.222      -36.152       -3.356       26.597       20.923       14.676      707.425      437.755      215.392        0.677        0.068      110.314       13.020        0.014      332.526        1.246      859.757
04/05/2014  05:01:00     -122.575       13.476      -10.590       47.977       34.139       27.701     2301.825     1165.487      767.345        0.978        0.212      123.313       28.557        0.054      332.310        0.890      859.768
04/05/2014  05:02:00     -191.292       16.061      -18.255       35.263       27.448       22.261     1243.455      753.382      495.546        1.984        0.125      191.966       18.671        0.009      332.225        0.749      859.786
04/05/2014  05:03:00     -210.108       18.689      -21.248       15.845       23.800       11.812      251.060      566.434      139.531        2.295        0.048      210.938        8.623        0.002      332.346        0.947      859.803
04/05/2014  05:04:00     -137.578      -16.982       -9.268       49.658       29.796       23.900     2465.918      887.785      571.195        1.161        0.196      138.622       26.252        0.036      332.380        1.006      859.810
04/05/2014  05:05:00      -99.671      -11.863       -9.218       41.999       25.523       23.266     1763.912      651.418      541.326        0.656        0.148      100.375       23.353        0.054      332.322        0.910      859.810
04/05/2014  05:06:00     -103.403       -5.197       -5.521       34.090       22.414       17.473     1162.120      502.377      305.313        0.636        0.098      103.533       19.007        0.034      332.364        0.977      859.808
04/05/2014  05:07:00     -103.125        3.163       -8.089       47.140       21.073       25.219     2222.175      444.072      635.999        0.701        0.165      103.173       27.673        0.072      332.367        0.983      859.820
04/05/2014  05:08:00     -131.170      -12.800      -12.355       20.400       17.565       15.713      416.176      308.512      246.912        0.925        0.049      131.793       10.153        0.006      332.353        0.962      859.825
04/05/2014  05:09:00     -113.881      -17.758       -8.905       22.181       14.263       14.774      491.991      203.426      218.259        0.714        0.046      115.257       13.425        0.014      332.340        0.940      859.826
04/05/2014  05:10:00      -81.530      -29.628       -1.235       33.606       24.308       15.951     1129.394      590.892      254.434        0.475        0.099       86.746       17.245        0.040      332.373        0.993      859.826
04/05/2014  05:11:00      -89.322      -26.498       -2.885       36.419       24.880       22.290     1326.350      619.000      496.836        0.557        0.122       93.170       20.390        0.048      332.138        0.605      859.832
04/05/2014  05:12:00      -54.795       13.680      -13.868       37.665       30.405       20.067     1418.650      924.494      402.679        0.306        0.137       56.477       16.832        0.089      332.053        0.466      859.844
04/05/2014  05:13:00     -106.275       36.956       -7.495       46.495       42.666       30.646     2161.801     1820.386      939.166        0.882        0.246      112.517       25.483        0.051      332.128        0.590      859.853
04/05/2014  05:14:00     -156.701       40.845      -12.627       48.579       27.623       18.201     2359.932      763.009      331.258        1.492        0.173      161.937       17.455        0.012      332.150        0.624      859.858
04/05/2014  05:15:00     -188.353       46.873      -13.210       30.661       34.335       20.244      940.078     1178.921      409.819        2.019        0.126      194.097       11.201        0.003      332.194        0.699      859.872
04/05/2014  05:16:00     -194.262       45.000      -14.017       22.245       24.692       15.906      494.839      609.692      252.990        2.066        0.068      199.406       11.035        0.003      332.273        0.829      859.890
04/05/2014  05:17:00     -140.778       26.015       -9.769       31.336       23.739       19.353      981.961      563.534      374.552        1.125        0.096      143.162       12.570        0.008      332.342        0.943      859.891
04/05/2014  05:18:00     -141.075       23.031       -8.254       20.362       17.852       11.124      414.609      318.700      123.740        1.068        0.043      142.942        7.299        0.003      332.551        1.286      859.889
04/05/2014  05:19:00      -98.799        6.981       -6.763       28.701       16.402       12.565      823.751      269.018      157.870        0.555        0.063       99.045        8.054        0.007      332.536        1.261      859.899
04/05/2014  05:20:00      -27.650      -10.528       -1.030       14.972       14.850        7.926      224.150      220.519       62.827        0.069        0.025       29.587        7.037        0.057      332.503        1.207      859.887
04/05/2014  05:21:00      -66.480      -22.285      -10.752       14.496       11.041        8.401      210.146      121.895       70.576        0.272        0.020       70.116        6.505        0.009      332.622        1.404      859.881
04/05/2014  05:22:00     -100.456      -26.176      -20.630       18.278       11.511       10.710      334.067      132.512      114.696        0.589        0.029      103.810        7.678        0.005      332.392        1.025      859.904
04/05/2014  05:23:00      -88.478      -46.438       -9.179       43.375       29.999       21.114     1881.392      899.960      445.787        0.665        0.161       99.924       10.874        0.012      332.231        0.758      859.908
04/05/2014  05:24:00     -136.908      -28.715      -10.853       24.369       34.713       18.122      593.854     1205.016      328.404        1.091        0.106      139.887       12.353        0.008      332.171        0.663      859.914
04/05/2014  05:25:00      -36.249      -30.739        2.563       50.682       24.153       18.810     2568.672      583.383      353.801        0.288        0.175       47.528       22.292        0.220      332.232        0.761      859.923
04/05/2014  05:26:00      -82.348      -47.639        1.749       30.646       21.843       17.010      939.184      477.119      289.352        0.538        0.085       95.135       16.524        0.030      332.304        0.879      859.929
04/05/2014  05:27:00      -56.442      -37.967        3.121       33.094       20.284       16.478     1095.242      411.450      271.510        0.321        0.089       68.023       15.955        0.055      332.374        0.995      859.935
04/05/2014  05:28:00      -52.608      -33.230        1.802       24.059       20.501       14.853      578.839      420.293      220.626        0.255        0.061       62.224       15.592        0.063      332.393        1.025      859.951
04/05/2014  05:29:00      -81.627      -26.959       -3.793       34.895       22.771       13.914     1217.688      518.516      193.591        0.467        0.096       85.964       12.655        0.022      332.346        0.949      859.969
04/05/2014  05:30:00     -108.156      -10.842      -10.333       27.136       25.764       15.818      736.356      663.776      250.197        0.679        0.083      108.698       12.817        0.014      332.250        0.792      859.982
04/05/2014  05:31:00      -55.936      -52.108        2.512       43.770       33.833       20.116     1915.821     1144.669      404.641        0.466        0.173       76.447       18.175        0.057      332.291        0.859      859.992
04/05/2014  05:32:00     -101.412      -66.813       -7.233       60.573       51.714       24.639     3669.144     2674.317      607.100        1.087        0.348      121.442       28.355        0.055      332.229        0.756      860.010
04/05/2014  05:33:00      -84.111      -68.923        5.725       46.428       32.849       28.303     2155.574     1079.072      801.042        0.795        0.202      108.743       21.947        0.041      332.226        0.752      860.019
04/05/2014  05:34:00      -64.719      -47.327        6.569       31.682       33.831       17.760     1003.732     1144.565      315.415        0.447        0.123       80.177       17.834        0.049      332.362        0.976      860.021
04/05/2014  05:35:00      -34.126      -40.387        9.975       41.020       22.529       19.722     1682.673      507.577      388.947        0.274        0.129       52.874       23.299        0.194      332.492        1.190      860.019
04/05/2014  05:36:00      -72.866      -50.594        2.941       39.530       32.686       21.442     1562.619     1068.356      459.766        0.548        0.155       88.709       24.861        0.079      332.384        1.011      860.026
04/05/2014  05:37:00      -77.364      -66.489       -6.779       35.067       27.109       21.269     1229.728      734.905      452.373        0.643        0.121      102.010       20.041        0.039      332.473        1.157      860.035
04/05/2014  05:38:00      -74.028      -82.383       -4.502       25.788       26.289       15.527      665.006      691.122      241.078        0.694        0.080      110.757       13.702        0.015      332.558        1.299      860.037
04/05/2014  05:39:00      -50.377      -68.796        2.335       38.047       29.857       20.896     1447.548      891.458      436.644        0.503        0.139       85.269       17.972        0.044      332.594        1.358      860.033
04/05/2014  05:40:00      -30.987      -56.934        7.070       38.683       36.280       25.824     1496.361     1316.270      666.885        0.386        0.174       64.820       27.244        0.177      332.591        1.353      860.038
04/05/2014  05:41:00       -3.628      -25.117       23.512       34.162       25.702       23.907     1167.014      660.569      571.528        0.180        0.120       25.377       23.086        0.828      332.531        1.253      860.045
04/05/2014  05:42:00       -7.123      -23.587       19.721       33.714       22.373       19.118     1136.645      500.535      365.509        0.150        0.100       24.639       19.578        0.631      332.465        1.146      860.060
04/05/2014  05:43:00      -11.672      -33.249        7.324       27.420       18.922       13.746      751.858      358.026      188.966        0.130        0.065       35.238        9.493        0.073      332.397        1.033      860.065
04/05/2014  05:44:00      -30.870      -38.379        9.916       32.172       17.790       14.920     1035.064      316.477      222.606        0.205        0.079       49.253        3.588        0.005      332.467        1.150      860.069
04/05/2014  05:45:00      -33.438      -35.246        8.781       21.997       15.976       15.423      483.874      255.244      237.863        0.171        0.049       48.584       12.514        0.066      332.462        1.140      860.073
04/05/2014  05:46:00      -72.933      -66.048       -1.558       32.663       22.397       20.548     1066.862      501.625      422.211        0.584        0.100       98.395       17.153        0.030      332.453        1.125      860.079
04/05/2014  05:47:00      -59.501      -73.985        1.282       26.215       27.383       20.489      687.248      749.830      419.786        0.544        0.093       94.943       21.580        0.052      332.474        1.159      860.094
04/05/2014  05:48:00      -70.423      -82.584       -2.787       28.870       26.742       17.759      833.449      715.121      315.396        0.683        0.093      108.533       12.560        0.013      332.398        1.034      860.107
04/05/2014  05:49:00      -81.306      -35.725        0.261       34.212       23.794       19.696     1170.437      566.158      387.913        0.501        0.106       88.809       20.110        0.051      332.172        0.661      860.122
04/05/2014  05:50:00      -53.181      -26.908       -1.326       34.456       20.598       11.685     1187.239      424.295      136.541        0.265        0.087       59.600       16.080        0.073      332.102        0.547      860.143
04/05/2014  05:51:00      -97.810       -1.303       -4.158       26.288       16.543       17.030      691.055      273.665      290.026        0.542        0.063       97.818       15.925        0.027      331.957        0.307      860.160
04/05/2014  05:52:00     -117.753      -12.566       -2.247       40.199       21.570       23.151     1615.974      465.285      535.968        0.832        0.131      118.421       24.944        0.044      331.916        0.238      860.190
04/05/2014  05:53:00     -110.043      -23.535        2.061       31.332       26.518       19.209      981.676      703.190      368.990        0.736        0.103      112.531       18.664        0.028      331.969        0.328      860.220
04/05/2014  05:54:00     -104.363      -56.300       -3.703       37.210       27.416       16.032     1384.578      751.641      257.035        0.823        0.120      118.581       16.019        0.018      332.109        0.559      860.237
04/05/2014  05:55:00     -117.030      -18.125      -10.393       23.787       22.833       17.372      565.815      521.329      301.771        0.776        0.069      118.426       15.974        0.018      331.979        0.342      860.244
04/05/2014  05:56:00     -102.218      -37.179       -5.555       18.495       20.874       14.804      342.068      435.732      219.169        0.643        0.050      108.769        9.217        0.007      332.079        0.507      860.251
04/05/2014  05:57:00      -83.041      -38.051        0.644       24.833       22.408       18.811      616.666      502.105      353.868        0.491        0.074       91.344       14.949        0.027      332.050        0.461      860.259
04/05/2014  05:58:00     -119.268       -7.604      -13.384       18.407       17.671       13.254      338.821      312.255      175.670        0.764        0.041      119.510        7.618        0.004      331.984        0.350      860.272
04/05/2014  05:59:00     -112.901       -9.907      -10.487       20.278       21.033       15.871      411.184      442.396      251.892        0.703        0.055      113.335        6.293        0.003      332.025        0.420      860.280
04/05/2014  06:00:00     -113.772        1.056       -6.585       32.763       22.263       17.512     1073.416      495.621      306.681        0.743        0.094      113.777       15.103        0.018      331.978        0.342      860.292
04/05/2014  06:01:00     -134.305       -9.324       -4.528       34.757       32.762       23.564     1208.037     1073.334      555.266        1.049        0.142      134.628       24.067        0.032      331.925        0.255      860.306
04/05/2014  06:02:00     -111.860      -17.906      -12.626       34.195       31.584       15.683     1169.273      997.557      245.956        0.770        0.121      113.284       13.912        0.015      331.947        0.290      860.316
04/05/2014  06:03:00     -152.365       18.855      -21.301       27.269       33.264       18.155      743.586     1106.467      329.603        1.310        0.109      153.527       12.444        0.007      331.933        0.267      860.327
04/05/2014  06:04:00     -138.452      -24.478      -15.596       37.764       23.131       22.270     1426.096      535.040      495.950        1.123        0.123      140.599       21.895        0.024      331.909        0.228      860.341
04/05/2014  06:05:00     -102.242      -22.853       -3.269       41.712       34.761       20.949     1739.896     1208.359      438.856        0.719        0.169      104.765       17.186        0.027      331.868        0.161      860.356
04/05/2014  06:06:00      -87.408      -11.472       -4.902       47.791       41.101       23.258     2284.027     1689.329      540.916        0.615        0.226       88.157       23.613        0.072      331.858        0.143      860.371
04/05/2014  06:07:00     -115.162       15.225      -13.880       49.966       42.126       36.009     2496.645     1774.574     1296.638        0.963        0.278      116.164       24.226        0.043      331.895        0.205      860.397
04/05/2014  06:08:00     -102.627       24.900      -18.355       42.598       40.295       25.310     1814.620     1623.659      640.620        0.778        0.204      105.605       19.134        0.033      331.939        0.275      860.414
04/05/2014  06:09:00     -124.817       30.080      -15.108       37.888       37.015       21.454     1435.517     1370.101      460.265        0.999        0.163      128.390       14.685        0.013      331.936        0.273      860.421
04/05/2014  06:10:00      -88.739       10.203      -17.825       33.624       31.024       17.010     1130.556      962.468      289.349        0.534        0.119       89.324       13.624        0.023      331.954        0.303      860.424
04/05/2014  06:11:00      -73.407        5.701      -12.328       34.376       25.006       18.521     1181.735      625.319      343.029        0.386        0.108       73.628       17.709        0.058      331.976        0.337      860.432
04/05/2014  06:12:00      -56.499      -10.717      -10.168       13.834       18.320       12.696      191.377      335.619      161.200        0.205        0.034       57.506        5.216        0.008      331.989        0.361      860.452
04/05/2014  06:13:00      -48.039      -24.951       -7.195       12.398       12.912       10.861      153.716      166.715      117.964        0.171        0.022       54.132        7.394        0.019      332.051        0.464      860.463
04/05/2014  06:14:00      -48.238      -21.417      -16.763       13.571       12.816       11.158      184.160      164.251      124.497        0.177        0.024       52.779        7.010        0.018      332.058        0.474      860.468
04/05/2014  06:15:00      -72.353      -17.899      -14.673       13.166        9.858        7.575      173.352       97.177       57.378        0.305        0.016       74.534        3.737        0.003      331.951        0.298      860.468
04/05/2014  06:16:00      -75.126      -23.806      -11.150       12.984       16.191        8.506      168.585      262.136       72.353        0.342        0.025       78.808        4.600        0.003      331.951        0.297      860.489
04/05/2014  06:17:00      -71.671      -22.778      -12.676       16.985       17.239       10.612      288.506      297.172      112.605        0.326        0.035       75.203        7.350        0.010      331.910        0.230      860.500
04/05/2014  06:18:00      -60.814      -16.259       -9.384       23.852       25.262       13.489      568.924      638.171      181.953        0.272        0.069       62.950       10.119        0.026      331.943        0.284      860.510
04/05/2014  06:19:00      -58.875      -27.293       -5.064       20.233       26.224       16.915      409.365      687.712      286.131        0.281        0.069       64.893       11.044        0.029      331.958        0.309      860.520
04/05/2014  06:20:00      -77.493      -32.072       -6.478       29.406       25.823       15.453      864.705      666.835      238.794        0.442        0.089       83.868       12.999        0.024      331.894        0.202      860.540
04/05/2014  06:21:00      -60.023      -28.252       -4.595       15.855       18.506       11.064      251.393      342.483      122.412        0.257        0.036       66.339        5.410        0.007      331.887        0.193      860.562
04/05/2014  06:22:00      -66.191      -14.181       -8.418       10.686       13.450        6.579      114.186      180.915       43.284        0.250        0.017       67.693        4.405        0.004      331.912        0.233      860.573
04/05/2014  06:23:00      -52.618      -23.637      -12.265       14.845       11.305       10.250      220.385      127.796      105.062        0.197        0.023       57.684        4.737        0.007      332.030        0.427      860.587
04/05/2014  06:24:00      -83.500      -29.332      -10.169       17.437       16.437       12.591      304.053      270.168      158.529        0.433        0.037       88.502       11.746        0.018      332.019        0.410      860.597
04/05/2014  06:25:00      -86.721      -40.179       -8.414       16.416       14.725       12.299      269.487      216.823      151.264        0.492        0.032       95.576        5.395        0.003      331.966        0.321      860.610
04/05/2014  06:26:00      -48.010      -28.917       -4.046       15.753       12.913        8.400      248.159      166.740       70.563        0.182        0.024       56.046        5.764        0.011      332.018        0.410      860.619
04/05/2014  06:27:00      -66.588      -42.148       -8.175       15.837        8.555        8.869      250.823       73.190       78.656        0.334        0.020       78.806        4.402        0.003      332.038        0.442      860.631
04/05/2014  06:28:00     -103.677      -48.584      -10.798       16.372       14.752       11.087      268.035      217.608      122.928        0.692        0.030      114.496        4.544        0.002      332.030        0.427      860.642
04/05/2014  06:29:00      -91.300      -53.849       -2.870       31.108       18.357       16.208      967.735      336.976      262.684        0.641        0.078      105.998       12.939        0.015      331.959        0.311      860.660
04/05/2014  06:30:00     -104.581      -43.250      -13.235       17.294       19.411       15.698      299.090      376.805      246.422        0.695        0.046      113.171        8.558        0.006      331.995        0.369      860.678
04/05/2014  06:31:00      -91.001      -29.082      -10.171       16.387       17.641       10.678      268.524      311.197      114.021        0.496        0.035       95.535        6.095        0.004      331.946        0.288      860.691
04/05/2014  06:32:00     -104.248      -16.771      -11.092       16.568       18.409       13.080      274.488      338.875      171.082        0.603        0.039      105.588        9.070        0.007      331.882        0.184      860.697
04/05/2014  06:33:00     -117.713      -42.014       -2.606       32.638       22.670       13.869     1065.260      513.931      192.363        0.870        0.089      124.987       16.378        0.017      331.911        0.231      860.699
04/05/2014  06:34:00     -121.510      -57.618       -3.814       30.375       24.472       21.306      922.625      598.855      453.938        1.004        0.099      134.479       10.886        0.007      331.928        0.258      860.701
04/05/2014  06:35:00      -68.891      -44.902        7.724       53.350       32.079       25.846     2846.198     1029.036      668.023        0.568        0.227       82.232       22.307        0.074      331.915        0.238      860.709
04/05/2014  06:36:00      -96.147      -81.854       -3.669       43.333       35.549       32.222     1877.787     1263.765     1038.248        1.007        0.209      126.271       23.694        0.035      331.930        0.262      860.719
04/05/2014  06:37:00     -122.823      -75.431        0.444       31.218       35.151       22.863      974.549     1235.597      522.739        1.175        0.137      144.137       20.525        0.020      331.902        0.216      860.732
04/05/2014  06:38:00     -129.254      -53.304       -0.058       41.273       31.518       24.192     1703.494      993.370      585.245        1.141        0.164      139.814       20.566        0.022      331.967        0.324      860.747
04/05/2014  06:39:00     -110.064      -42.071       -4.588       42.482       25.768       20.477     1804.731      663.994      419.294        0.840        0.144      117.831       22.486        0.036      332.004        0.384      860.764
04/05/2014  06:40:00     -110.148      -25.880        1.561       33.359       26.155       18.994     1112.822      684.061      360.760        0.748        0.108      113.148       15.179        0.018      331.946        0.289      860.787
04/05/2014  06:41:00      -98.431      -35.817        4.411       33.062       27.934       17.727     1093.110      780.317      314.230        0.659        0.109      104.745       16.648        0.025      331.983        0.350      860.800
04/05/2014  06:42:00      -82.121      -39.344       -2.348       25.819       24.404       15.023      666.633      595.533      225.701        0.489        0.074       91.060       11.478        0.016      332.039        0.443      860.804
04/05/2014  06:43:00      -98.497      -25.237       -5.781       23.854       29.629       18.712      569.003      877.870      350.152        0.608        0.090      101.679       10.554        0.011      331.973        0.333      860.812
04/05/2014  06:44:00      -75.230       -6.541        3.564       36.835       26.268       19.129     1356.849      690.016      365.919        0.406        0.121       75.514       19.950        0.070      331.836        0.108      860.827
04/05/2014  06:45:00     -104.109      -28.773       -1.459       29.787       28.282       18.789      887.243      799.874      353.035        0.685        0.102      108.012       18.456        0.029      331.847        0.127      860.839
04/05/2014  06:46:00     -107.889      -48.636       -0.693       34.857       30.772       18.494     1215.029      946.934      342.044        0.825        0.125      118.345       18.594        0.025      331.937        0.273      860.842
04/05/2014  06:47:00     -105.639      -52.788       -8.861       34.692       26.769       19.119     1203.518      716.565      365.518        0.815        0.114      118.094       14.213        0.014      332.052        0.465      860.849
04/05/2014  06:48:00      -92.278      -36.865        0.862       36.084       24.439       18.960     1302.089      597.251      359.493        0.607        0.113       99.369       18.016        0.033      332.044        0.451      860.865
04/05/2014  06:49:00     -109.050      -54.489        0.420       44.278       26.169       19.406     1960.571      684.809      376.584        0.894        0.151      121.906       23.583        0.037      332.057        0.472      860.885
04/05/2014  06:50:00     -108.364      -27.619       -9.062       20.300       19.382       14.327      412.097      375.644      205.262        0.679        0.050      111.829       11.827        0.011      332.053        0.464      860.897
04/05/2014  06:51:00      -83.676      -36.804        1.226       37.057       29.193       22.293     1373.242      852.260      496.973        0.554        0.136       91.412       23.566        0.066      332.048        0.457      860.909
04/05/2014  06:52:00      -94.180      -17.863       -2.689       29.755       24.412       15.472      885.368      595.957      239.394        0.546        0.086       95.859       16.398        0.029      332.023        0.416      860.918
04/05/2014  06:53:00      -95.844      -16.831       -3.543       34.292       23.480       19.034     1175.941      551.307      362.283        0.579        0.104       97.310       18.379        0.036      332.040        0.444      860.932
04/05/2014  06:54:00      -94.387      -25.269        1.344       34.494       16.802       19.074     1189.812      282.311      363.833        0.569        0.092       97.711       18.990        0.038      332.059        0.475      860.947
04/05/2014  06:55:00     -109.221      -19.256       -6.233       22.512       16.670       16.421      506.805      277.881      269.644        0.670        0.053      110.905       12.987        0.014      331.934        0.268      860.973
04/05/2014  06:56:00     -115.485       -5.050       -8.812       24.934       22.447       18.724      621.714      503.860      350.602        0.746        0.074      115.595       15.053        0.017      331.853        0.136      860.987
04/05/2014  06:57:00     -101.992       -2.916       -8.272       32.982       23.111       18.592     1087.790      534.112      345.651        0.622        0.098      102.034       17.383        0.029      331.834        0.105      860.998
04/05/2014  06:58:00      -70.858      -24.606        1.114       29.254       19.002       14.341      855.820      361.071      205.671        0.352        0.071       75.008       11.922        0.025      331.915        0.238      861.010
04/05/2014  06:59:00      -63.643       -7.789       -2.978       34.765       18.951       16.986     1208.611      359.145      288.513        0.299        0.093       64.118       19.984        0.097      331.890        0.196      861.024
04/05/2014  07:00:00      -67.394       -3.464       -8.313       44.259       17.967       19.894     1958.868      322.821      395.790        0.365        0.134       67.483       22.030        0.107      331.936        0.274      861.037
04/05/2014  07:01:00      -70.027      -10.017       -5.055       41.854       25.595       20.024     1751.717      655.124      400.974        0.392        0.140       70.740       22.537        0.101      331.862        0.151      861.065
04/05/2014  07:02:00      -55.028        0.347       -0.745       33.158       24.858       17.226     1099.478      617.922      296.724        0.252        0.101       55.030       14.757        0.072      331.875        0.173      861.092
04/05/2014  07:03:00      -80.820      -28.552       -2.065       21.874       23.211       14.040      478.486      538.768      197.112        0.428        0.061       85.715       11.538        0.018      331.944        0.285      861.127
04/05/2014  07:04:00      -95.141      -25.644      -13.923       13.987       17.596       11.160      195.645      309.608      124.548        0.527        0.031       98.536        3.470        0.001      331.894        0.203      861.154
04/05/2014  07:05:00      -84.396      -14.745      -10.367       36.432       21.226       12.736     1327.257      450.550      162.208        0.469        0.097       85.674        7.420        0.008      331.944        0.286      861.189
04/05/2014  07:06:00     -100.567       -8.447      -11.673       28.259       33.831       16.081      798.577     1144.551      258.602        0.626        0.110      100.921       11.335        0.013      331.889        0.195      861.214
04/05/2014  07:07:00      -33.022      -12.147        4.006       27.613       13.916       13.517      762.475      193.643      182.696        0.120        0.057       35.186        6.126        0.030      332.010        0.395      861.229
04/05/2014  07:08:00      -57.456       -6.241       -9.473       36.125       17.078       11.700     1305.034      291.651      136.900        0.258        0.087       57.794        8.921        0.024      331.964        0.319      861.245
04/05/2014  07:09:00      -69.080       -4.420      -15.576       24.678       14.224       11.075      609.022      202.315      122.655        0.298        0.047       69.221        3.265        0.002      332.001        0.378      861.267
04/05/2014  07:10:00      -46.104      -14.140       -8.078       12.946       14.117        9.399      167.588      199.301       88.349        0.142        0.023       48.224        9.365        0.038      332.172        0.662      861.282
04/05/2014  07:11:00      -43.117      -16.998       -3.410       16.058       16.245       10.728      257.852      263.906      115.081        0.140        0.032       46.347        6.533        0.020      332.124        0.582      861.296
04/05/2014  07:12:00      -39.615       -0.488      -10.720       10.440       22.433       10.348      108.994      503.250      107.089        0.120        0.036       39.618        8.552        0.047      332.145        0.617      861.297
04/05/2014  07:13:00      -57.425       -4.581       -8.557       32.764       19.414       10.151     1073.457      376.906      103.045        0.247        0.078       57.607        8.964        0.024      332.188        0.689      861.310
04/05/2014  07:14:00      -55.576      -25.706       -1.750       20.169       12.710        8.199      406.805      161.550       67.231        0.219        0.032       61.233        8.674        0.020      332.231        0.758      861.315
04/05/2014  07:15:00      -37.002      -22.064       -0.089       14.761       15.833       12.808      217.877      250.698      164.052        0.124        0.032       43.081        8.003        0.035      332.258        0.805      861.311
04/05/2014  07:16:00      -58.486       -1.062       -3.667       15.437       12.952       10.566      238.311      167.761      111.650        0.198        0.026       58.496        9.432        0.026      332.298        0.871      861.326
04/05/2014  07:17:00      -79.105       -6.440      -11.181        8.769       11.168        9.954       76.894      124.734       99.080        0.336        0.015       79.367        5.444        0.005      332.319        0.904      861.337
04/05/2014  07:18:00      -52.305       -9.033        0.022       22.386       10.933       10.085      501.126      119.525      101.701        0.177        0.036       53.079        8.402        0.025      332.381        1.007      861.361
04/05/2014  07:19:00      -63.141       -5.757       -6.170       10.456       14.674        9.009      109.330      215.320       81.157        0.223        0.020       63.403        3.305        0.003      332.467        1.148      861.378
04/05/2014  07:20:00      -60.935       -7.444       -5.687        8.962       10.534        6.346       80.314      110.963       40.267        0.202        0.012       61.388        4.758        0.006      332.516        1.229      861.384
04/05/2014  07:21:00      -41.198      -11.270        2.031        7.886        9.089        7.513       62.190       82.606       56.444        0.101        0.010       42.712        3.747        0.008      332.516        1.229      861.411
04/05/2014  07:22:00      -44.489       -2.601       -4.919       13.855        9.887        8.385      191.959       97.762       70.316        0.119        0.018       44.565        6.498        0.021      332.534        1.259      861.424
04/05/2014  07:23:00      -57.303       -8.833       -4.539       12.457       11.928        8.475      155.187      142.274       71.828        0.188        0.018       57.980        3.696        0.004      332.586        1.344      861.445
04/05/2014  07:24:00      -42.028      -31.973       -7.284       16.581       13.355        9.992      274.945      178.359       99.849        0.170        0.028       52.808        3.013        0.003      332.629        1.416      861.455
04/05/2014  07:25:00      -25.401      -11.840        0.140       23.140       12.719       11.400      535.455      161.770      129.951        0.081        0.041       28.025       11.093        0.157      332.678        1.498      861.473
04/05/2014  07:26:00      -22.916      -19.234       -1.118       14.214        9.133        7.839      202.027       83.421       61.451        0.062        0.017       29.918        5.580        0.035      332.729        1.582      861.489
04/05/2014  07:27:00      -28.721      -16.901        2.697       13.586       19.642        9.865      184.574      385.814       97.322        0.089        0.033       33.324        5.880        0.031      332.732        1.587      861.492
04/05/2014  07:28:00      -52.020       -7.193       -1.472       18.404       14.638       11.350      338.695      214.270      128.819        0.172        0.034       52.515        9.984        0.036      332.751        1.617      861.506
04/05/2014  07:29:00      -83.925      -20.197      -10.614       18.499       20.054       10.688      342.212      402.180      114.232        0.421        0.043       86.321        7.720        0.008      332.722        1.571      861.519
04/05/2014  07:30:00      -56.359       -9.943       -5.109       18.031       18.471       14.734      325.110      341.170      217.093        0.209        0.044       57.230       13.419        0.055      332.696        1.529      861.541
04/05/2014  07:31:00      -69.180       -6.847       -6.880       18.176       10.078       11.530      330.377      101.569      132.951        0.272        0.028       69.518       10.186        0.021      332.677        1.497      861.565
04/05/2014  07:32:00      -52.104      -12.443       -0.333       16.315       12.418        8.701      266.177      154.209       75.701        0.168        0.025       53.569        7.010        0.017      332.745        1.608      861.582
04/05/2014  07:33:00      -62.706      -20.095       -5.270       15.264       14.019        9.835      233.000      196.523       96.724        0.244        0.026       65.847        3.995        0.004      332.731        1.584      861.603
04/05/2014  07:34:00      -26.494      -28.087        2.657       23.034       23.981       13.265      530.564      575.093      175.972        0.139        0.064       38.611       12.092        0.098      332.803        1.704      861.624
04/05/2014  07:35:00      -77.483      -35.445       -5.677       23.313       17.491       10.842      543.485      305.945      117.557        0.413        0.048       85.205        8.797        0.011      332.757        1.627      861.635
04/05/2014  07:36:00      -96.530      -25.878       -6.852       25.384       16.174       11.858      644.361      261.606      140.614        0.554        0.052       99.938        4.938        0.002      332.778        1.663      861.648
04/05/2014  07:37:00      -81.454      -19.542       -3.483       22.211       13.282       12.334      493.342      176.400      152.121        0.393        0.041       83.765       12.576        0.023      332.746        1.610      861.670
04/05/2014  07:38:00      -65.209      -10.628       -4.070       15.819       16.261        8.816      250.251      264.431       77.720        0.249        0.030       66.069        8.132        0.015      332.837        1.761      861.685
04/05/2014  07:39:00      -48.437      -13.625       -1.000       10.832       12.541        9.765      117.338      157.288       95.361        0.145        0.018       50.317        4.151        0.007      332.844        1.771      861.691
04/05/2014  07:40:00      -47.890        5.174        0.855       17.186       13.174        9.351      295.375      173.559       87.439        0.144        0.028       48.169        7.596        0.025      332.872        1.819      861.695
04/05/2014  07:41:00      -53.949       21.359       -5.117        8.558        8.263        6.340       73.239       68.275       40.191        0.179        0.009       58.023        2.678        0.002      332.852        1.788      861.709
04/05/2014  07:42:00      -41.855        9.695       -4.915        7.694       11.229        5.306       59.203      126.098       28.150        0.104        0.011       42.963        3.108        0.005      332.911        1.883      861.725
04/05/2014  07:43:00      -52.746        5.866       -7.146       10.201       12.116       10.241      104.068      146.796      104.869        0.161        0.018       53.071        5.664        0.011      332.953        1.951      861.741
04/05/2014  07:44:00      -55.602       -7.524       -5.453       12.178       14.703        9.614      148.299      216.177       92.427        0.182        0.023       56.109        5.894        0.011      332.972        1.982      861.754
04/05/2014  07:45:00      -53.576       -6.498       -0.883       20.362       17.735       12.403      414.617      314.529      153.841        0.190        0.044       53.968        8.313        0.024      332.992        2.014      861.755
04/05/2014  07:46:00      -30.847       -4.470        3.213       20.775       10.723       11.214      431.594      114.984      125.755        0.083        0.034       31.169       11.102        0.127      333.171        2.311      861.770
04/05/2014  07:47:00      -22.382       -2.713       -0.916       12.270        7.740       11.147      150.557       59.903      124.250        0.042        0.017       22.546       10.225        0.206      333.187        2.338      861.770
04/05/2014  07:48:00      -41.260       -6.756       -5.321        6.949        7.678        6.129       48.295       58.948       37.563        0.096        0.007       41.810        3.100        0.005      333.084        2.168      861.764
04/05/2014  07:49:00      -32.039        4.799       -9.824       11.092       14.784        9.745      123.042      218.577       94.959        0.079        0.022       32.397        4.116        0.016      333.121        2.227      861.755
04/05/2014  07:50:00      -51.709       -0.104       -2.571       16.617       21.301       12.261      276.141      453.718      150.335        0.178        0.044       51.709        8.214        0.025      333.088        2.174      861.755
04/05/2014  07:51:00      -10.859      -12.388       -0.789       29.101       16.350       12.478      846.840      267.338      155.692        0.077        0.063       16.473       14.472        0.772      333.319        2.555      861.753
04/05/2014  07:52:00      -62.567        3.981       -4.040       22.007       19.358       11.654      484.327      374.735      135.805        0.247        0.050       62.693       10.503        0.028      333.125        2.236      861.762
04/05/2014  07:53:00      -57.416       16.292       -0.636       24.157       13.834       10.601      583.548      191.377      112.374        0.222        0.044       59.683       10.381        0.030      333.142        2.264      861.783
04/05/2014  07:54:00      -39.100       13.340       -7.461       13.155       10.012       10.547      173.061      100.250      111.245        0.107        0.019       41.313        4.576        0.012      333.215        2.382      861.795
04/05/2014  07:55:00      -20.687       24.954        2.890       23.819       17.270       14.530      567.353      298.246      211.130        0.107        0.054       32.414       13.259        0.167      333.579        2.986      861.805
04/05/2014  07:56:00      -49.713      -41.967        1.932       24.874       32.648       15.450      618.733     1065.889      238.705        0.308        0.096       65.058       13.384        0.042      333.342        2.593      861.815
04/05/2014  07:57:00      -31.215      -63.189        5.525       19.850       28.798       14.610      394.028      829.347      213.442        0.322        0.072       70.479       13.539        0.037      333.297        2.517      861.815
04/05/2014  07:58:00       -8.215      -45.584      -13.204       26.308       26.358       16.092      692.124      694.765      258.940        0.198        0.082       46.318       14.419        0.097      333.287        2.501      861.817
04/05/2014  07:59:00      -14.060      -16.385       -2.268       18.893       16.027       11.669      356.940      256.879      136.166        0.061        0.037       21.590       11.162        0.267      333.487        2.834      861.813
04/05/2014  08:00:00      -73.298      -33.001       -2.900       25.874       15.898       11.803      669.462      252.756      139.313        0.377        0.053       80.384        9.148        0.013      333.415        2.714      861.803
04/05/2014  08:01:00      -43.090       -9.579        3.096       30.465       25.389       18.832      928.119      644.620      354.654        0.194        0.096       44.142       21.570        0.239      333.565        2.964      861.809
04/05/2014  08:02:00      -51.269        6.639        1.549       24.056       15.756       14.730      578.690      248.243      216.974        0.186        0.052       51.697       15.910        0.095      333.382        2.659      861.809
04/05/2014  08:03:00      -28.269       10.682        8.724       17.785       14.945       17.069      316.294      223.339      291.355        0.091        0.042       30.220       13.446        0.198      333.739        3.253      861.819
04/05/2014  08:04:00      -39.177        9.005        2.467       18.016       13.039       13.684      324.591      170.025      187.255        0.115        0.034       40.199       12.068        0.090      333.556        2.948      861.841
04/05/2014  08:05:00      -39.757       16.525       -6.012       12.009       13.495       13.010      144.218      182.123      169.257        0.119        0.025       43.054        7.423        0.030      333.559        2.954      861.859
04/05/2014  08:06:00      -38.590       11.459        2.023       16.829       12.686       11.184      283.214      160.930      125.075        0.110        0.028       40.255        5.676        0.020      333.449        2.769      861.871
04/05/2014  08:07:00       -9.905       10.386       18.505       11.024       18.923       14.546      121.523      358.074      211.597        0.062        0.035       14.352        9.317        0.421      334.015        3.710      861.879
04/05/2014  08:08:00       -4.362       13.985        6.504       20.069       20.446       15.921      402.747      418.024      253.484        0.067        0.054       14.650       15.815        1.165      334.165        3.959      861.892
04/05/2014  08:09:00       -7.499       28.833       13.648       27.386       36.900       25.220      750.016     1361.617      636.064        0.191        0.137       29.792       21.139        0.503      334.072        3.803      861.900
04/05/2014  08:10:00       18.132       33.853        7.006       28.218       19.366       25.501      796.265      375.034      650.315        0.167        0.091       38.403       16.746        0.190      334.062        3.787      861.912
04/05/2014  08:11:00       40.186       26.945       13.338       22.577       19.895       27.579      509.737      395.799      760.584        0.209        0.083       48.383       16.511        0.116      333.935        3.577      861.914
04/05/2014  08:12:00        1.796        1.265       17.306       15.874       28.657       15.215      251.993      821.246      231.499        0.080        0.065        2.197       11.152       25.759      334.302        4.184      861.931
04/05/2014  08:13:00        6.998       -0.709       16.913       13.406        8.076       13.620      179.719       65.219      185.497        0.038        0.022        7.034        5.622        0.639      334.333        4.237      861.934
04/05/2014  08:14:00      -27.564      -29.890       -0.597       17.481       28.681       11.195      305.585      822.617      125.331        0.145        0.063       40.660       10.981        0.073      333.685        3.162      861.944
04/05/2014  08:15:00      -39.572      -51.792       -3.119       29.143       18.913       12.667      849.315      357.715      160.454        0.281        0.068       65.179       12.310        0.036      333.622        3.056      861.945
04/05/2014  08:16:00      -45.481      -45.870       -5.014       17.436       22.110       14.266      304.000      488.833      203.510        0.260        0.050       64.596       10.296        0.025      333.628        3.067      861.945
04/05/2014  08:17:00      -19.171       -0.763       15.887       14.887       20.382       17.050      221.620      415.408      290.712        0.077        0.046       19.186       12.520        0.426      334.350        4.266      861.945
04/05/2014  08:18:00      -29.025       -6.907       -1.830        8.742        9.897        6.766       76.430       97.946       45.777        0.056        0.011       29.835        3.695        0.015      333.731        3.236      861.953
04/05/2014  08:19:00      -12.702      -15.737       24.368       20.857       14.558       19.521      435.021      211.937      381.057        0.102        0.051       20.223       16.969        0.704      334.311        4.201      861.966
04/05/2014  08:20:00       17.069       16.341       42.891       23.506       31.546       18.058      552.540      995.160      326.078        0.214        0.094       23.630       14.379        0.370      334.365        4.290      861.980
04/05/2014  08:21:00       41.298       34.210       19.126       41.607       31.019       21.065     1731.123      962.184      443.740        0.319        0.157       53.627       20.201        0.142      334.234        4.072      861.989
04/05/2014  08:22:00       36.705       32.739       17.228       37.656       20.476       20.665     1417.949      419.249      427.062        0.249        0.113       49.184        9.973        0.041      333.956        3.611      861.999
04/05/2014  08:23:00       27.617       32.257        5.068       20.981       26.425       23.422      440.195      698.290      548.602        0.176        0.084       42.464       20.876        0.242      334.087        3.828      862.001
04/05/2014  08:24:00       20.034        7.101       21.338       26.639       47.323       23.931      709.641     2239.509      572.697        0.221        0.176       21.256       16.176        0.579      334.277        4.144      861.999
04/05/2014  08:25:00       12.779        2.873       32.325       33.532       44.239       35.918     1124.385     1957.090     1290.127        0.279        0.219       13.098       37.788        8.323      334.505        4.523      861.999
04/05/2014  08:26:00       -6.468      -39.090       -7.295       21.020       34.834       17.080      441.839     1213.422      291.716        0.178        0.097       39.622       11.692        0.087      334.128        3.897      862.007
04/05/2014  08:27:00      -27.683        0.174       12.049       19.107       15.260       19.608      365.062      232.879      384.475        0.095        0.049       27.684       17.487        0.399      334.289        4.164      862.025
04/05/2014  08:28:00      -37.404        9.819       -2.750       12.772        8.948       10.664      163.127       80.066      113.722        0.093        0.018       38.671        7.597        0.039      333.845        3.426      862.033
04/05/2014  08:29:00       -0.298       11.676       17.913       20.019       14.301       14.446      400.775      204.529      208.686        0.064        0.041       11.680       12.028        1.061      334.613        4.701      862.041
04/05/2014  08:30:00       28.809       15.195       14.759       29.410       17.879       21.043      864.950      319.660      442.813        0.145        0.081       32.571       13.869        0.181      334.425        4.390      862.050
04/05/2014  08:31:00       34.478       34.554       40.191       37.789       28.240       30.328     1428.026      797.489      919.814        0.357        0.157       48.813       22.542        0.213      334.547        4.592      862.046
04/05/2014  08:32:00       27.213       44.303       36.136       37.058       35.395       33.612     1373.290     1252.840     1129.756        0.388        0.188       51.994       13.178        0.064      334.376        4.308      862.053
04/05/2014  08:33:00      108.333       87.192       16.693       50.543       42.666       48.204     2554.634     1820.392     2323.583        1.316        0.335      139.063       31.867        0.053      334.045        3.758      862.047
04/05/2014  08:34:00       59.758       71.590       55.871       69.611       36.579       32.459     4845.650     1338.010     1053.556        0.953        0.362       93.254       34.708        0.139      334.289        4.162      862.053
04/05/2014  08:35:00       22.517       30.803       64.324       30.199       38.616       19.366      911.985     1491.187      375.034        0.419        0.139       38.155       14.808        0.151      334.494        4.503      862.058
04/05/2014  08:36:00       -9.031       26.375       40.837       13.641       37.781       23.827      186.068     1427.381      567.717        0.231        0.109       27.878       25.808        0.857      334.779        4.978      862.074
04/05/2014  08:37:00      -14.830       13.131       46.288       24.050       19.807       23.459      578.382      392.337      550.339        0.203        0.076       19.808       18.963        0.916      334.832        5.066      862.091
04/05/2014  08:38:00      -21.412       -4.949        8.507       29.595       29.515       19.412      875.870      871.165      376.841        0.134        0.106       21.977       11.241        0.262      334.533        4.569      862.112
04/05/2014  08:39:00      -10.590       -9.548       17.690       32.708       24.779       24.662     1069.783      613.991      608.191        0.140        0.115       14.259       23.333        2.678      334.713        4.868      862.136
04/05/2014  08:40:00       -1.168      -27.992       16.321       41.326       25.538       34.111     1707.808      652.188     1163.572        0.229        0.176       28.016       31.715        1.282      334.369        4.297      862.161
04/05/2014  08:41:00      -30.254       42.140       -5.136       23.742       33.953       29.109      563.701     1152.813      847.310        0.264        0.128       51.876       26.993        0.271      334.587        4.660      862.182
04/05/2014  08:42:00       -8.845        6.089        8.362       17.259       22.738       17.188      297.862      517.001      295.425        0.065        0.056       10.738       13.061        1.480      334.750        4.928      862.210
04/05/2014  08:43:00      -15.635        1.214       18.061       16.552       16.866       21.197      273.972      284.465      449.322        0.079        0.050       15.682       15.850        1.022      334.988        5.324      862.228
04/05/2014  08:44:00      -56.135       15.183       -0.455       23.175       17.712        8.632      537.091      313.720       74.517        0.215        0.046       58.152        7.237        0.015      334.118        3.881      862.241
04/05/2014  08:45:00      -21.116       -8.041        1.256       26.221       10.416       14.801      687.559      108.502      219.081        0.076        0.051       22.595       16.722        0.548      334.297        4.176      862.251
04/05/2014  08:46:00       -7.185        0.743       15.790       22.493       12.367       17.061      505.947      152.935      291.070        0.063        0.047        7.223       16.201        5.030      334.832        5.066      862.252
04/05/2014  08:47:00      -17.516      -32.350       -0.631       34.525       49.627       15.994     1192.004     2462.852      255.801        0.263        0.196       36.788       12.539        0.116      334.398        4.345      862.250
04/05/2014  08:48:00      -54.555     -132.540      -10.844       36.108       42.671       31.805     1303.791     1820.839     1011.589        1.240        0.207      143.329       23.213        0.026      334.191        4.000      862.249
04/05/2014  08:49:00      -57.955     -121.404       -5.654       24.357       37.401       23.374      593.253     1398.837      546.333        1.033        0.127      134.528       21.695        0.026      334.090        3.833      862.239
04/05/2014  08:50:00      -44.811      -77.207      -15.449       22.182       22.305       19.360      492.045      497.531      374.821        0.479        0.068       89.269        8.321        0.009      334.175        3.976      862.219
04/05/2014  08:51:00      -65.847      -53.408        3.328       30.360       36.788       23.951      921.743     1353.357      573.631        0.502        0.142       84.784       16.857        0.040      334.292        4.169      862.203
04/05/2014  08:52:00      -55.848      -97.568       -0.966       30.579       60.039       27.612      935.079     3604.675      762.402        0.897        0.265      112.421       29.438        0.069      334.324        4.221      862.205
04/05/2014  08:53:00     -100.428     -132.352      -10.901       41.655       34.991       25.185     1735.144     1224.376      634.279        1.566        0.180      166.141       19.524        0.014      334.124        3.889      862.213
04/05/2014  08:54:00      -42.394      -58.658       -6.390       40.969       40.079       24.235     1678.421     1606.303      587.354        0.457        0.194       72.375       24.515        0.115      334.387        4.327      862.228
04/05/2014  08:55:00      -33.980     -130.203       -5.914       28.623       64.219       22.397      819.303     4124.107      501.604        1.179        0.272      134.564       24.165        0.032      334.244        4.087      862.242
04/05/2014  08:56:00      -54.216      -93.640       -7.103       49.090       47.812       24.092     2409.789     2286.032      580.443        0.852        0.264      108.202       11.950        0.012      334.318        4.213      862.249
04/05/2014  08:57:00      -68.366      -67.858        1.799       55.468       42.775       27.767     3076.646     1829.708      771.029        0.748        0.284       96.326       28.670        0.089      334.448        4.427      862.257
04/05/2014  08:58:00     -112.682      -68.926      -12.760       40.522       37.613       22.568     1642.033     1414.712      509.324        1.059        0.178      132.091       17.484        0.018      334.424        4.387      862.273
04/05/2014  08:59:00      -70.768      -73.490        5.485       52.868       46.267       24.897     2795.013     2140.642      619.873        0.800        0.278      102.024       19.908        0.038      334.408        4.360      862.279
04/05/2014  09:00:00     -106.858     -105.886       -7.506       31.815       21.583       22.347     1012.195      465.812      499.375        1.233        0.099      150.434       15.649        0.011      334.306        4.194      862.287
04/05/2014  09:01:00      -74.037      -84.652       -3.119       32.129       32.892       23.139     1032.247     1081.899      535.401        0.765        0.132      112.460       15.847        0.020      334.395        4.339      862.289
04/05/2014  09:02:00      -77.120      -62.985       -5.016       29.593       22.847       14.789      875.739      521.973      218.725        0.578        0.081       99.573       11.136        0.013      334.402        4.351      862.294
04/05/2014  09:03:00       -5.898      -55.904        2.572       38.172       29.212       31.741     1457.099      853.328     1007.510        0.324        0.166       56.214       20.664        0.135      334.653        4.767      862.294
04/05/2014  09:04:00      -78.408      -23.984        0.231       23.748       25.916       17.153      563.956      671.630      294.217        0.413        0.076       81.994        9.255        0.013      334.521        4.550      862.308
04/05/2014  09:05:00      -47.477      -33.127       -1.777       24.609       13.944        9.810      605.605      194.433       96.227        0.213        0.045       57.892        7.313        0.016      334.486        4.492      862.331
04/05/2014  09:06:00      -40.844        4.275       -5.251       12.677       12.378       10.863      160.698      153.207      117.995        0.107        0.022       41.067        5.199        0.016      334.533        4.567      862.349
04/05/2014  09:07:00      -32.950        1.855        9.708       11.927       13.175       13.557      142.258      173.585      183.791        0.084        0.025       33.002        3.904        0.014      334.892        5.164      862.375
04/05/2014  09:08:00      -13.549       -5.286       29.392       12.444       18.531       14.524      154.857      343.415      210.933        0.089        0.035       14.544        8.234        0.320      335.525        6.218      862.397
04/05/2014  09:09:00       -7.088       24.746       55.449       15.419       21.939       15.166      237.730      481.314      230.005        0.234        0.047       25.741       11.798        0.210      335.782        6.645      862.405
04/05/2014  09:10:00       32.555       58.623       40.253       27.776       27.911       31.046      771.524      779.051      963.843        0.432        0.126       67.056       21.027        0.098      335.300        5.842      862.417
04/05/2014  09:11:00       33.810       44.708        7.567       43.610       41.627       31.197     1901.870     1732.769      973.250        0.390        0.230       56.053       28.605        0.260      335.285        5.819      862.423
04/05/2014  09:12:00      -10.137        1.163       32.694       13.886       16.897       14.814      192.824      285.505      219.444        0.094        0.035       10.204       10.066        0.973      336.028        7.058      862.425
04/05/2014  09:13:00      -56.594      -17.324        3.905       41.021       23.831       21.753     1682.710      567.896      473.183        0.312        0.136       59.187       22.782        0.148      334.911        5.195      862.428
04/05/2014  09:14:00      -73.074       21.414        9.448       53.802       31.680       33.372     2894.685     1003.604     1113.679        0.545        0.251       76.147       30.706        0.163      335.129        5.561      862.429
04/05/2014  09:15:00      -66.325      -43.333       -2.596       38.688       29.345       16.147     1496.755      861.139      260.710        0.445        0.131       79.226       10.460        0.017      334.887        5.156      862.427
04/05/2014  09:16:00       10.265      -15.854       29.568       35.706       30.764       25.227     1274.885      946.418      636.386        0.204        0.143       18.887       23.091        1.495      335.620        6.374      862.416
04/05/2014  09:17:00       18.347      -34.125       27.289       35.619       33.377       24.866     1268.688     1114.057      618.323        0.262        0.150       38.744       17.432        0.202      335.517        6.204      862.417
04/05/2014  09:18:00      -11.470      -36.801       14.357       24.588       30.456       24.532      604.581      927.558      601.823        0.191        0.107       38.547       16.219        0.177      335.204        5.682      862.420
04/05/2014  09:19:00      -59.244      -46.117       -3.198       41.655       22.218       17.082     1735.171      493.661      291.800        0.408        0.126       75.077       17.203        0.053      335.026        5.387      862.418
04/05/2014  09:20:00      -59.213      -60.522        2.988       16.899       21.687       14.061      285.584      470.332      197.725        0.407        0.048       84.671        8.441        0.010      334.930        5.227      862.418
04/05/2014  09:21:00      -10.390        0.946       42.411       42.065       58.031       29.121     1769.463     3367.589      848.053        0.395        0.299       10.433       37.463       12.895      335.502        6.179      862.404
04/05/2014  09:22:00       31.479       61.164       63.755       39.757       33.317       24.794     1580.642     1110.020      614.767        0.605        0.165       68.790       20.073        0.085      335.463        6.114      862.390
04/05/2014  09:23:00       61.465       93.025       67.695       47.615       37.068       33.808     2267.185     1374.027     1142.995        1.090        0.239      111.497       24.260        0.047      335.246        5.753      862.379
04/05/2014  09:24:00       -2.463       40.210       66.489       29.065       36.286       19.341      844.770     1316.692      374.057        0.429        0.127       40.285       20.866        0.268      336.012        7.030      862.383
04/05/2014  09:25:00        0.947       31.241       56.839       45.586       59.364       28.310     2078.038     3524.110      801.468        0.530        0.320       31.255       41.627        1.774      335.423        6.047      862.403
04/05/2014  09:26:00      -19.596      -77.507        5.098       41.045       51.082       31.201     1684.689     2609.338      973.481        0.584        0.263       79.946       27.128        0.115      335.670        6.458      862.419
04/05/2014  09:27:00      -30.062      -52.209       -1.307       29.025       36.050       22.512      842.425     1299.612      506.793        0.314        0.132       60.246       10.376        0.030      335.563        6.280      862.447
04/05/2014  09:28:00      -34.941      -49.513      -19.031       35.170       22.619       21.258     1236.894      511.634      451.917        0.312        0.110       60.601       11.683        0.037      335.523        6.214      862.470
04/05/2014  09:29:00      -48.479      -58.260      -13.803       32.610       18.986       15.707     1063.421      360.463      246.723        0.380        0.084       75.792       10.201        0.018      335.442        6.077      862.481
04/05/2014  09:30:00      -75.075      -50.613       -6.396       31.924       23.345       21.323     1019.170      544.975      454.671        0.513        0.101       90.542       15.470        0.029      335.372        5.961      862.493
04/05/2014  09:31:00      -80.084      -62.751       -0.042       44.350       32.014       25.601     1966.893     1024.891      655.396        0.700        0.182      101.741       23.940        0.055      335.315        5.867      862.509
04/05/2014  09:32:00      -60.995      -43.272        5.669       50.057       41.858       29.208     2505.744     1752.119      853.080        0.537        0.256       74.785       28.986        0.150      335.429        6.055      862.515
04/05/2014  09:33:00      -32.193      -28.276        6.659       44.776       31.463       24.623     2004.883      989.902      606.315        0.274        0.180       42.848       27.053        0.399      335.949        6.926      862.511
04/05/2014  09:34:00      -60.887      -30.474        2.029       57.239       43.639       27.827     3276.294     1904.330      774.365        0.530        0.298       68.088       26.270        0.149      335.725        6.551      862.518
04/05/2014  09:35:00      -17.689       61.368       15.605       26.969       65.652       34.843      727.314     4310.220     1214.050        0.529        0.313       63.866       34.285        0.288      336.334        7.567      862.515
04/05/2014  09:36:00      -12.372       30.483       20.133       53.940       75.130       31.001     2909.484     5644.511      961.065        0.550        0.476       32.898       44.631        1.841      336.046        7.087      862.514
04/05/2014  09:37:00     -143.565      207.967      -41.990       80.326       89.206       45.202     6452.259     7957.704     2043.235        4.104        0.823      252.708       42.710        0.029      335.437        6.068      862.537
04/05/2014  09:38:00      -16.593      308.740      -27.778       89.168      151.510       61.096     7950.911    22955.156     3732.733        6.550        1.732      309.186       74.435        0.058      335.865        6.780      862.547
04/05/2014  09:39:00       80.140      108.597        4.329       70.186       52.975       50.727     4926.086     2806.343     2573.205        1.427        0.515      134.966       46.221        0.117      335.759        6.606      862.603
04/05/2014  09:40:00       34.252       40.867       -3.269       34.636       61.742       37.005     1199.623     3812.051     1369.369        0.462        0.319       53.322       40.636        0.581      335.827        6.720      862.624
04/05/2014  09:41:00       13.261      -31.162        7.059       29.793       40.769       23.736      887.597     1662.078      563.387        0.215        0.156       33.867       20.646        0.372      336.080        7.142      862.619
04/05/2014  09:42:00       35.477       34.728       36.299       42.630       44.358       39.129     1817.354     1967.675     1531.061        0.455        0.266       49.645       19.409        0.153      336.497        7.839      862.613
04/05/2014  09:43:00       66.221       85.852       53.362       79.602       69.200       72.735     6336.556     4788.617     5290.427        1.551        0.821      108.425       59.718        0.303      336.052        7.093      862.616
04/05/2014  09:44:00      173.617      119.195       47.817       76.010       42.443       56.260     5777.472     1801.430     3165.139        2.869        0.537      210.596       42.000        0.040      335.438        6.070      862.635
04/05/2014  09:45:00       99.526       64.370       34.102       95.431       54.681       48.857     9107.162     2989.988     2387.010        1.485        0.724      118.528       56.395        0.226      335.715        6.535      862.644
04/05/2014  09:46:00       25.566       90.718      104.064       54.532       49.597       53.125     2973.753     2459.884     2822.233        1.398        0.413       94.252       46.129        0.240      335.804        6.682      862.653
04/05/2014  09:47:00       25.375       57.712       22.178       32.757       34.899       45.340     1073.053     1217.947     2055.674        0.441        0.217       63.044       30.775        0.238      335.653        6.430      862.655
04/05/2014  09:48:00       93.941       56.536       11.313       30.840       26.186       26.183      951.125      685.698      685.534        0.724        0.116      109.641       13.108        0.014      335.544        6.248      862.661
04/05/2014  09:49:00       10.342      113.805        2.015       75.977       71.342       35.632     5772.453     5089.672     1269.647        1.259        0.607      114.274       36.694        0.103      335.604        6.348      862.670
04/05/2014  09:50:00       22.825      109.467      -20.570       44.944       46.455       25.549     2019.967     2158.099      652.748        0.888        0.242      111.821       21.844        0.038      335.825        6.716      862.670
04/05/2014  09:51:00       22.676      106.169       -5.399       39.391       83.685       34.586     1551.625     7003.167     1196.161        1.078        0.488      108.563       38.771        0.128      335.928        6.889      862.657
04/05/2014  09:52:00        5.379       85.528        0.723       41.568       73.723       32.697     1727.901     5435.037     1069.087        0.779        0.412       85.697       38.095        0.198      335.971        6.961      862.666
04/05/2014  09:53:00      -40.072      135.999       -5.421       64.417      126.414       39.633     4149.587    15980.542     1570.780        2.091        1.085      141.780       50.872        0.129      336.040        7.074      862.674
04/05/2014  09:54:00      -22.808      101.466       -1.277       48.345       97.975       43.977     2337.261     9599.070     1934.016        1.234        0.694      103.998       54.958        0.279      336.055        7.100      862.674
04/05/2014  09:55:00      -44.445      -32.373       11.267       65.696       54.849       35.125     4315.915     3008.365     1233.765        0.585        0.428       54.985       32.596        0.351      336.090        7.159      862.676
04/05/2014  09:56:00     -183.650        8.100      -15.191       36.287       42.273       34.083     1316.730     1786.972     1161.643        1.914        0.213      183.828       23.822        0.017      335.496        6.168      862.669
04/05/2014  09:57:00     -115.931      -33.462      -16.180       35.331       40.516       25.428     1248.276     1641.525      646.587        0.918        0.177      120.664       12.183        0.010      335.381        5.977      862.668
04/05/2014  09:58:00      -18.741     -115.142       -1.925       32.516       30.127       31.302     1057.301      907.645      979.817        0.828        0.147      116.658       17.119        0.022      335.428        6.054      862.646
04/05/2014  09:59:00       23.173       20.276        7.635       74.975       81.644       34.631     5621.314     6665.723     1199.295        0.724        0.674       30.791       28.374        0.849      335.959        6.940      862.629
04/05/2014  10:00:00       31.742      145.408      -21.796       64.152       63.694       33.782     4115.506     4056.891     1141.248        1.597        0.466      148.832       30.745        0.043      335.978        6.972      862.661
04/05/2014  10:01:00       15.646      106.351        3.524       54.480       61.930       49.458     2968.090     3835.338     2446.065        1.041        0.462      107.496       43.810        0.166      336.108        7.189      862.686
04/05/2014  10:02:00      -17.078       97.189      -25.071       29.248       61.042       27.657      855.434     3726.138      764.882        0.786        0.267       98.678       17.886        0.033      335.655        6.434      862.710
04/05/2014  10:03:00       43.961       30.258        5.787       40.187       36.271       20.082     1614.980     1315.581      403.294        0.311        0.167       53.368        4.376        0.007      335.783        6.646      862.709
04/05/2014  10:04:00       97.685       88.144       -5.199       44.118       51.654       37.064     1946.413     2668.185     1373.759        1.166        0.299      131.574       27.227        0.043      335.897        6.836      862.751
04/05/2014  10:05:00       30.286      103.438      -11.325       50.138       43.493       42.875     2513.772     1891.660     1838.298        0.899        0.312      107.781       27.018        0.063      336.112        7.196      862.746
04/05/2014  10:06:00       30.224       -0.011       25.807       26.355       43.214       25.568      694.592     1867.411      653.717        0.240        0.161       30.224       25.249        0.698      336.013        7.031      862.756
04/05/2014  10:07:00       23.165       63.549       39.065       54.121       38.519       51.560     2929.118     1483.700     2658.456        0.658        0.354       67.639       29.996        0.197      336.984        8.652      862.749
04/05/2014  10:08:00       84.072      104.454       59.397       70.616       58.849       58.046     4986.625     3463.245     3369.328        1.666        0.591      134.085       42.150        0.099      336.318        7.539      862.744
04/05/2014  10:09:00      -32.117      133.232       -1.766       53.596       75.210       61.203     2872.480     5656.586     3745.836        1.553        0.614      137.048       54.910        0.161      336.073        7.130      862.780
04/05/2014  10:10:00       -0.251      127.859      -15.771       44.043       44.677       42.657     1939.764     1996.037     1819.645        1.117        0.288      127.859       30.716        0.058      336.268        7.456      862.771
04/05/2014  10:11:00      -75.779       74.020      -28.020       27.176       46.560       25.978      738.520     2167.860      674.863        0.779        0.179      105.931       25.059        0.056      335.634        6.399      862.772
04/05/2014  10:12:00       -8.221        1.703       13.536       38.429       18.901       18.145     1476.789      357.266      329.242        0.121        0.108        8.396       20.674        6.064      336.368        7.623      862.751
04/05/2014  10:13:00      -94.894       17.273      -11.954       57.754       34.875       23.458     3335.563     1216.274      550.258        0.727        0.255       96.453       19.892        0.043      335.962        6.944      862.747
04/05/2014  10:14:00       15.759       29.275       21.629       34.523       32.997       27.408     1191.830     1088.776      751.223        0.230        0.152       33.247       16.127        0.235      336.842        8.417      862.745
04/05/2014  10:15:00       18.380      146.402       -2.047       46.305       99.057       49.666     2144.158     9812.272     2466.751        1.810        0.721      147.551       53.967        0.134      336.291        7.495      862.748
04/05/2014  10:16:00        9.981       92.299       13.540       40.592       58.117       41.854     1647.751     3377.570     1751.727        0.779        0.339       92.837       30.483        0.108      336.736        8.237      862.751
04/05/2014  10:17:00      -15.916       29.195        5.414       51.666       39.729       27.394     2669.399     1578.389      750.412        0.307        0.250       33.251       23.758        0.511      336.315        7.535      862.748
04/05/2014  10:18:00      -11.788      -10.556       16.596       26.143       42.913       25.651      683.459     1841.563      657.979        0.185        0.159       15.824       20.269        1.641      336.383        7.649      862.749
04/05/2014  10:19:00      -14.639        1.275        6.831       24.723       29.493       30.635      611.231      869.856      938.523        0.134        0.121       14.695       25.565        3.027      336.639        8.077      862.730
04/05/2014  10:20:00      -55.186      -50.437       -2.226       37.427       57.566       30.912     1400.788     3313.816      955.579        0.563        0.284       74.762       28.864        0.149      336.249        7.423      862.714
04/05/2014  10:21:00      -22.762      -31.181       13.565       48.184       40.646       31.425     2321.656     1652.102      987.500        0.332        0.248       38.606       34.915        0.818      336.463        7.783      862.718
04/05/2014  10:22:00       15.238       46.771       25.376       40.928       44.474       32.952     1675.108     1977.968     1085.838        0.390        0.237       49.191       30.585        0.387      336.834        8.403      862.714
04/05/2014  10:23:00      -57.944       61.843        4.105       51.176       78.853       34.286     2619.021     6217.860     1175.546        0.860        0.501       84.747       27.837        0.108      336.516        7.871      862.710
04/05/2014  10:24:00      -23.359       96.374       26.225       37.997       68.467       43.987     1443.762     4687.675     1934.885        0.929        0.403       99.165       41.664        0.177      337.118        8.878      862.716
04/05/2014  10:25:00      -75.454      164.334      -18.367       81.742      124.784       53.277     6681.715    15570.951     2838.484        2.906        1.255      180.829       70.656        0.153      336.397        7.669      862.725
04/05/2014  10:26:00     -149.598      124.296      -29.822       72.797       57.160       46.013     5299.464     3267.269     2117.237        2.470        0.534      194.497       41.966        0.047      336.122        7.209      862.725
04/05/2014  10:27:00      -92.071      171.661      -11.093       52.828       86.221       41.790     2790.764     7434.018     1746.424        2.502        0.599      194.794       34.261        0.031      336.651        8.094      862.738
04/05/2014  10:28:00      -86.877      189.064      -13.462       37.425       80.300       38.507     1400.597     6448.032     1482.761        2.640        0.467      208.069       37.221        0.032      336.259        7.439      862.756
04/05/2014  10:29:00      -66.462       47.846        2.127       44.791       52.962       29.425     2006.206     2804.979      865.823        0.619        0.284       81.893       26.613        0.106      336.555        7.937      862.765
04/05/2014  10:30:00      -73.723       -9.985      -12.445       33.453       30.927       15.629     1119.088      956.496      244.265        0.400        0.116       74.396       14.747        0.039      336.055        7.099      862.761
04/05/2014  10:31:00      -83.600       14.348      -11.859       26.395       30.643       19.904      696.710      939.021      396.171        0.468        0.102       84.822       13.535        0.025      336.272        7.463      862.743
04/05/2014  10:32:00     -180.258      -43.469      -11.627       57.544       60.425       35.708     3311.266     3651.193     1275.061        2.138        0.412      185.425       28.301        0.023      336.336        7.568      862.744
04/05/2014  10:33:00     -174.045       -4.014      -17.898       63.245       44.466       25.702     3999.900     1977.209      660.582        1.863        0.332      174.091       22.892        0.017      336.071        7.125      862.766
04/05/2014  10:34:00     -138.918       29.786      -14.087       70.365       40.628       32.129     4951.186     1650.639     1032.244        1.401        0.382      142.075       30.653        0.047      336.094        7.165      862.776
04/05/2014  10:35:00     -179.363      -44.242      -24.819       53.651       59.295       31.853     2878.441     3515.954     1014.615        2.108        0.370      184.739       20.747        0.013      336.198        7.336      862.796
04/05/2014  10:36:00     -213.582      -39.756      -19.596       43.169       46.716       27.199     1863.529     2182.353      739.769        2.618        0.239      217.250       21.974        0.010      336.001        7.006      862.790
04/05/2014  10:37:00     -102.213      -33.370       10.955      102.131       71.555       42.925    10430.798     5120.066     1842.564        1.453        0.870      107.522       58.934        0.300      336.559        7.941      862.795
04/05/2014  10:38:00     -176.152       -9.528      -28.910       75.476       80.828       49.813     5696.587     6533.113     2481.303        2.333        0.736      176.409       44.434        0.063      336.240        7.406      862.804
04/05/2014  10:39:00     -144.377      -27.589      -10.664       89.684       64.127       39.664     8043.258     4112.211     1573.241        1.772        0.686      146.990       45.057        0.094      336.333        7.563      862.820
04/05/2014  10:40:00     -145.312      -54.043       -1.830       75.084       60.979       36.844     5637.578     3718.477     1357.462        1.737        0.536      155.036       34.821        0.050      336.546        7.920      862.823
04/05/2014  10:41:00      -54.327       74.942       10.128       63.152       71.433       43.201     3988.148     5102.705     1866.342        0.981        0.548       92.561       29.008        0.098      337.150        8.931      862.842
04/05/2014  10:42:00      -64.275      130.557       13.363       48.246       61.909       48.692     2327.713     3832.718     2370.925        1.494        0.427      145.521       40.616        0.078      336.944        8.584      862.854
04/05/2014  10:43:00     -105.707       59.889      -14.246       54.700       52.314       29.882     2992.082     2736.802      892.963        1.079        0.331      121.494       25.425        0.044      336.399        7.674      862.886
04/05/2014  10:44:00     -137.705      -21.872      -11.061       63.439       48.771       24.392     4024.559     2378.617      594.982        1.328        0.350      139.431       16.764        0.014      336.310        7.526      862.904
04/05/2014  10:45:00     -170.682      -31.077      -19.682       54.666       64.815       26.943     2988.347     4200.954      725.912        1.920        0.396      173.488       21.595        0.015      336.045        7.083      862.925
04/05/2014  10:46:00      -51.128      -77.972       -3.020       57.223       26.349       22.452     3274.476      694.285      504.083        0.659        0.224       93.240       23.055        0.061      336.066        7.120      862.946
04/05/2014  10:47:00      -65.645     -103.918       14.403       48.918       29.889       30.957     2392.929      893.325      958.341        0.978        0.212      122.915       20.585        0.028      336.225        7.383      862.951
04/05/2014  10:48:00      -44.313      -54.291       -0.074       59.121       40.997       50.305     3495.321     1680.793     2530.641        0.631        0.385       70.079       50.652        0.522      336.379        7.642      862.963
04/05/2014  10:49:00      -43.204      -91.168      -28.684       51.101       48.340       32.573     2611.354     2336.750     1061.027        0.850        0.300      100.887       16.856        0.028      336.365        7.617      862.954
04/05/2014  10:50:00      -55.905      -82.672       10.482       88.663       53.084       49.357     7861.204     2817.864     2436.152        1.159        0.656       99.800       45.814        0.211      336.613        8.032      862.974
04/05/2014  10:51:00     -104.071     -109.370       -0.178      113.141       52.150       39.716    12800.812     2719.652     1577.335        1.994        0.855      150.972       41.471        0.075      336.265        7.449      862.979
04/05/2014  10:52:00      -88.106      -58.458      -16.830       45.396       29.930       23.827     2060.829      895.832      567.729        0.749        0.176      105.736       16.200        0.023      336.107        7.184      862.989
04/05/2014  10:53:00      -63.208     -105.292       -9.546       35.805       36.528       26.907     1282.013     1334.260      724.013        0.926        0.167      122.807       22.800        0.034      336.182        7.311      862.977
04/05/2014  10:54:00      -63.324      -55.594      -10.345       18.445       18.696       13.559      340.227      349.532      183.847        0.404        0.044       84.265       10.116        0.014      336.114        7.198      862.981
04/05/2014  10:55:00      -32.941      -19.102       -0.515       27.541       13.749       19.722      758.503      189.029      388.939        0.139        0.067       38.079       19.347        0.258      336.467        7.789      862.968
04/05/2014  10:56:00       -9.865      -60.253       -0.678       27.568       35.086       20.056      760.015     1230.995      402.255        0.306        0.120       61.055       20.254        0.110      336.443        7.748      862.959
04/05/2014  10:57:00      -17.274      -74.573        9.238       38.806       33.033       31.301     1505.941     1091.200      979.732        0.476        0.179       76.547       15.329        0.040      336.588        7.991      862.936
04/05/2014  10:58:00       -0.422      -65.097       18.905       20.921       55.955       23.042      437.706     3131.006      530.933        0.435        0.205       65.099       21.316        0.107      337.047        8.760      862.919
04/05/2014  10:59:00      -26.279      -73.272       15.231       48.695       46.081       29.946     2371.183     2123.416      896.778        0.584        0.270       77.842       24.930        0.103      336.872        8.466      862.911
04/05/2014  11:00:00      -39.729      -43.853       11.048       36.402       37.591       26.937     1325.091     1413.100      725.600        0.354        0.173       59.173       24.736        0.175      336.807        8.357      862.906
04/05/2014  11:01:00        7.791       43.662       45.504       40.889       32.532       20.543     1671.879     1058.304      422.023        0.359        0.158       44.351       12.832        0.084      337.720        9.886      862.912
04/05/2014  11:02:00     -102.292        8.996        0.703       76.575       58.711       27.966     5863.713     3446.983      782.083        1.032        0.505      102.686       25.938        0.064      336.964        8.620      862.933
04/05/2014  11:03:00     -103.484      -10.494       -2.892       67.896       45.832       22.696     4609.808     2100.615      515.121        0.903        0.361      104.015       13.586        0.017      336.440        7.745      862.943
04/05/2014  11:04:00       20.489       70.710       12.687       46.667       84.210       34.402     2177.785     7091.321     1183.474        0.801        0.523       73.618       42.899        0.340      337.472        9.469      862.940
04/05/2014  11:05:00        4.666      154.931      -10.033       65.223       70.202       49.747     4254.009     4928.372     2474.754        1.789        0.583      155.002       45.366        0.086      337.182        8.983      862.962
04/05/2014  11:06:00       38.512       87.414        8.784       44.511       63.667       50.849     1981.213     4053.452     2585.584        0.891        0.431       95.522       43.118        0.204      337.270        9.132      862.962
04/05/2014  11:07:00       31.666       84.148       -8.509       37.884       64.681       45.678     1435.232     4183.618     2086.462        0.793        0.385       89.909       42.617        0.225      336.725        8.219      862.969
04/05/2014  11:08:00       56.090       86.711       -2.971       48.841       72.373       39.277     2385.402     5237.809     1542.693        0.992        0.458      103.271       20.453        0.039      336.935        8.570      862.935
04/05/2014  11:09:00        8.872       91.997        0.587       32.770       61.168       39.163     1073.860     3741.521     1533.715        0.744        0.317       92.424       31.759        0.118      337.102        8.850      862.918
04/05/2014  11:10:00      178.849      178.739      -14.840       56.020       75.770       56.918     3138.269     5741.160     3239.659        3.813        0.606      252.853       44.629        0.031      336.625        8.050      862.910
04/05/2014  11:11:00       59.719       60.558      -18.714       62.638       43.824       24.435     3923.570     1920.581      597.076        0.701        0.322       85.051       28.013        0.108      336.399        7.674      862.895
04/05/2014  11:12:00      -91.090      -13.342      -13.616       43.499       32.635       18.604     1892.139     1065.054      346.101        0.598        0.165       92.062       16.841        0.033      336.529        7.892      862.875
04/05/2014  11:13:00      -60.618       26.512      -19.159       21.761       27.031       17.915      473.533      730.681      320.947        0.313        0.076       66.162       17.257        0.068      336.588        7.990      862.860
04/05/2014  11:14:00      -11.197        2.745       20.761       15.455       18.565       23.339      238.869      344.666      544.716        0.085        0.056       11.528       15.207        1.740      337.435        9.409      862.828
04/05/2014  11:15:00      -70.797      -47.531      -10.831       27.431       27.269       21.492      752.484      743.614      461.907        0.467        0.098       85.272       18.070        0.045      336.662        8.114      862.802
04/05/2014  11:16:00      -24.652      -12.893       -7.200       35.830       24.094       16.246     1283.807      580.510      263.917        0.148        0.106       27.820       15.888        0.326      336.851        8.430      862.809
04/05/2014  11:17:00       83.823       18.750       46.586       58.353       79.285       52.900     3405.130     6286.182     2798.362        1.102        0.624       85.895       48.148        0.314      337.258        9.111      862.789
04/05/2014  11:18:00        4.905      -26.580        4.926       31.698       46.843       34.488     1004.750     2194.250     1189.396        0.257        0.219       27.028       25.964        0.923      337.633        9.736      862.788
04/05/2014  11:19:00       14.082       53.871       70.276       38.956       44.817       34.700     1517.532     2008.528     1204.114        0.638        0.237       55.681       14.810        0.071      337.964       10.295      862.784
04/05/2014  11:20:00       53.556       54.966       64.659       64.675       49.033       45.574     4182.873     2404.220     2077.020        0.937        0.433       76.743       31.256        0.166      337.915       10.211      862.787
04/05/2014  11:21:00      122.837       68.274       14.528       74.548       61.781       45.310     5557.409     3816.838     2052.983        1.569        0.571      140.535       31.410        0.050      336.946        8.588      862.784
04/05/2014  11:22:00       79.029       66.500        2.327       45.382       41.657       35.633     2059.481     1735.322     1269.692        0.787        0.253      103.285       23.278        0.051      336.962        8.616      862.781
04/05/2014  11:23:00       30.702       17.893       25.966       39.845       29.431       33.868     1587.662      866.208     1147.051        0.277        0.180       35.535       17.531        0.243      337.429        9.397      862.754
04/05/2014  11:24:00       -1.108       20.147       53.028       38.736       66.832       44.591     1500.444     4466.563     1988.347        0.559        0.398       20.177       41.934        4.319      338.124       10.563      862.730
04/05/2014  11:25:00       47.904      -62.494       26.860       70.365      108.256       69.333     4951.203    11719.366     4807.061        1.420        1.074       78.742       66.049        0.704      337.774        9.974      862.685
04/05/2014  11:26:00       92.285     -116.995      -19.620      100.049       96.569       74.221    10009.898     9325.665     5508.739        2.371        1.242      149.011       67.584        0.206      337.370        9.298      862.664
04/05/2014  11:27:00       67.558      -74.786       24.097       88.770      159.051       88.710     7880.070    25297.143     7869.397        2.588        2.052      100.782      105.177        1.089      337.899       10.184      862.636
04/05/2014  11:28:00        3.110        2.025      103.497       47.743      100.680       56.356     2279.437    10136.365     3176.017        1.316        0.780        3.711       60.286      263.906      337.935       10.246      862.631
04/05/2014  11:29:00       23.675      -51.503       60.692       60.874      104.291       68.471     3705.659    10876.679     4688.299        1.308        0.964       56.684       68.298        1.452      337.814       10.041      862.618
04/05/2014  11:30:00       63.301     -136.934      -23.558       80.062       96.596       62.592     6409.868     9330.829     3917.726        2.148        0.983      150.857       53.820        0.127      337.384        9.319      862.625
04/05/2014  11:31:00       65.922      -84.218        7.744       68.531      107.382       62.542     4696.506    11530.862     3911.488        1.581        1.007      106.950       68.485        0.410      337.476        9.476      862.645
04/05/2014  11:32:00       14.899       36.948       86.252       38.088       53.400       26.017     1450.732     2851.519      676.905        0.700        0.249       39.839       24.389        0.375      337.579        9.648      862.661
04/05/2014  11:33:00       23.390       48.169       48.650       38.871       41.129       36.149     1510.959     1691.585     1306.737        0.487        0.225       53.548       17.557        0.108      337.372        9.302      862.678
04/05/2014  11:34:00        3.407       21.736       72.883       32.092       50.558       30.326     1029.877     2556.126      919.657        0.515        0.225       22.002       36.983        2.825      337.838       10.082      862.671
04/05/2014  11:35:00       -2.883       33.117       56.708       28.502       36.111       24.599      812.336     1304.025      605.120        0.352        0.136       33.242       21.114        0.403      338.414       11.050      862.671
04/05/2014  11:36:00       47.104        5.651       22.490       34.397       54.370       39.720     1183.172     2956.050     1577.649        0.424        0.286       47.442       37.628        0.629      337.941       10.255      862.657
04/05/2014  11:37:00       64.356      -17.127       53.246       57.061       89.809       56.494     3255.953     8065.743     3191.623        1.089        0.726       66.596       66.502        0.997      337.507        9.528      862.662
04/05/2014  11:38:00      113.399       -1.837       57.706       97.037       84.912       51.431     9416.127     7210.046     2645.158        1.773        0.964      113.414       62.432        0.303      337.395        9.340      862.655
04/05/2014  11:39:00      100.604       16.370       82.389       97.752      108.730       74.918     9555.459    11822.181     5612.748        2.208        1.350      101.927       83.799        0.676      337.284        9.153      862.641
04/05/2014  11:40:00       31.453      -42.785        8.243       44.153       62.886       34.438     1949.488     3954.658     1185.943        0.499        0.355       53.102       38.687        0.531      337.748        9.933      862.638
04/05/2014  11:41:00       -4.129       -4.187       42.631       34.228       34.562       26.501     1171.544     1194.508      702.293        0.246        0.153        5.881       18.969       10.405      338.757       11.626      862.634
04/05/2014  11:42:00        9.383       69.908       94.813       43.064       65.474       32.952     1854.520     4286.877     1085.843        1.059        0.361       70.535       33.519        0.226      337.701        9.854      862.621
04/05/2014  11:43:00        6.971       33.961       49.391       42.759       32.914       34.263     1828.338     1083.328     1173.965        0.386        0.204       34.669       21.240        0.375      337.802       10.022      862.618
04/05/2014  11:44:00       -2.172       -5.078       25.797       26.950       70.684       28.147      726.280     4996.210      792.266        0.360        0.326        5.523       33.796       37.442      338.200       10.689      862.607
04/05/2014  11:45:00       30.093     -106.179       -3.735       68.055       72.712       49.309     4631.460     5286.994     2431.384        1.227        0.617      110.361       44.346        0.161      337.907       10.198      862.602
04/05/2014  11:46:00       86.752     -129.590      -10.463       72.914       72.489       54.457     5316.501     5254.658     2965.561        1.898        0.677      155.947       50.083        0.103      337.911       10.204      862.610
04/05/2014  11:47:00      138.375     -211.213      -23.671      100.967       98.572       69.950    10194.395     9716.445     4893.026        4.456        1.240      252.504       62.283        0.061      337.395        9.336      862.603
04/05/2014  11:48:00      108.760     -138.946       28.177      101.147      151.293       79.501    10230.632    22889.676     6320.375        3.568        1.972      176.450      100.647        0.325      337.325        9.221      862.591
04/05/2014  11:49:00       -9.364      -34.153       22.754       57.500       49.023       44.429     3306.302     2403.263     1973.914        0.473        0.384       35.414       27.154        0.588      337.928       10.234      862.600
04/05/2014  11:50:00      -34.767     -105.298        1.052       55.185       86.041       37.901     3045.424     7403.097     1436.476        1.209        0.594      110.889       36.708        0.110      337.956       10.280      862.610
04/05/2014  11:51:00      -33.632       11.933       26.753       46.518       50.849       40.932     2163.954     2585.654     1675.430        0.421        0.321       35.687       36.097        1.023      338.155       10.615      862.602
04/05/2014  11:52:00      -96.200      -29.623        0.195       85.872       60.642       36.091     7374.044     3677.406     1302.551        1.124        0.618      100.658       36.597        0.132      337.936       10.247      862.594
04/05/2014  11:53:00      -64.219      -66.417        8.468      110.346       58.920       49.211    12176.213     3471.518     2421.730        1.333        0.903       92.386       43.353        0.220      337.822       10.055      862.560
04/05/2014  11:54:00      148.153     -191.995      -34.016      160.510      109.436       55.774    25763.460    11976.188     3110.729        5.040        2.043      242.510       63.662        0.069      337.435        9.405      862.571
04/05/2014  11:55:00      116.570     -126.876      -26.393       58.920       65.265       43.935     3471.527     4259.459     1930.252        2.002        0.483      172.296       37.952        0.049      337.344        9.253      862.591
04/05/2014  11:56:00       78.741      -81.292       46.884       92.914      170.966      114.680     8632.952    29229.224    13151.453        3.300        2.551      113.175      132.157        1.364      337.791       10.001      862.574
04/05/2014  11:57:00       31.326       35.532       94.868       64.425      136.219       65.737     4150.620    18555.494     4321.318        1.913        1.351       47.370       81.656        2.971      338.000       10.354      862.580
04/05/2014  11:58:00       70.958     -129.807       10.199       80.263       83.718       57.435     6442.170     7008.737     3298.788        1.937        0.837      147.936       39.584        0.072      337.764        9.957      862.596
04/05/2014  11:59:00      -36.032      -56.781       15.096       79.701       80.066       55.054     6352.179     6410.544     3030.973        1.027        0.790       67.249       55.620        0.684      338.303       10.863      862.597
04/05/2014  12:00:00       37.539      -23.902       56.690       91.809      113.549       67.474     8428.975    12893.286     4552.715        1.553        1.294       44.502       73.633        2.738      338.081       10.490      862.599
04/05/2014  12:01:00      -29.253      -82.508      -10.692       60.510       82.595       48.892     3661.490     6822.004     2390.458        1.032        0.644       87.540       49.447        0.319      338.233       10.746      862.599
04/05/2014  12:02:00     -107.979     -220.209      -26.447       47.999       54.533       36.489     2303.912     2973.835     1331.474        3.373        0.330      245.258       21.368        0.008      337.154        8.933      862.614
04/05/2014  12:03:00     -135.299      -56.412       -9.480       64.626       64.540       29.940     4176.572     4165.455      896.408        1.541        0.462      146.589       30.283        0.043      337.402        9.351      862.591
04/05/2014  12:04:00      -40.386      -97.830       -9.675       42.299       49.616       30.406     1789.204     2461.756      924.509        0.823        0.259      105.838       27.295        0.067      337.543        9.587      862.601
04/05/2014  12:05:00      -44.580      -53.311       14.124       60.968       53.031       31.244     3717.082     2812.257      976.170        0.627        0.375       69.494       26.785        0.149      337.674        9.807      862.613
04/05/2014  12:06:00      -97.767      -86.632       -0.167       60.862       56.593       31.995     3704.165     3202.772     1023.701        1.250        0.397      130.628       24.875        0.036      337.541        9.583      862.610
04/05/2014  12:07:00     -116.356     -114.458      -15.754       41.301       31.596       24.467     1705.791      998.300      598.626        1.509        0.165      163.215       16.538        0.010      337.357        9.276      862.617
04/05/2014  12:08:00      -56.634      -37.760       14.755       68.199       55.102       41.009     4651.056     3036.267     1681.737        0.711        0.468       68.068       46.337        0.463      337.934       10.246      862.621
04/05/2014  12:09:00       18.646       32.715       44.676       49.648       41.622       31.855     2464.894     1732.394     1014.727        0.431        0.261       37.656       27.144        0.520      338.627       11.408      862.608
04/05/2014  12:10:00       63.643     -136.572       -6.706      101.201      109.744       63.334    10241.697    12043.641     4011.216        2.452        1.315      150.673       77.025        0.261      337.607        9.694      862.589
04/05/2014  12:11:00       32.765       14.950       51.583       44.720       55.503       37.093     1999.852     3080.557     1375.869        0.521        0.323       36.014       32.280        0.803      338.110       10.538      862.589
04/05/2014  12:12:00       63.042      -13.753       42.262       94.618       71.512       59.451     8952.599     5113.920     3534.395        1.177        0.880       64.525       61.291        0.902      338.071       10.473      862.571
04/05/2014  12:13:00        2.038       54.754       87.732       40.893       50.548       40.313     1672.249     2555.134     1625.176        0.827        0.293       54.792       25.506        0.217      338.786       11.675      862.553
04/05/2014  12:14:00      104.396       93.262      102.003       90.118       94.181       56.953     8121.253     8870.058     3243.692        2.511        1.012      139.986       47.846        0.117      337.938       10.249      862.545
04/05/2014  12:15:00      155.551     -167.477      -16.953       80.287       94.854       53.134     6445.999     8997.294     2823.251        3.540        0.913      228.571       36.032        0.025      337.808       10.029      862.527
04/05/2014  12:16:00       83.372      -53.741       21.800       73.282       59.313       45.307     5370.230     3517.989     2052.726        1.063        0.547       99.191       30.014        0.092      337.586        9.661      862.532
04/05/2014  12:17:00       47.857       15.971       48.850       41.767       46.609       37.623     1744.463     2172.431     1415.476        0.513        0.267       50.452       36.623        0.527      338.329       10.907      862.508
04/05/2014  12:18:00       42.824       71.500       88.975       80.500       85.636       61.280     6480.303     7333.465     3755.225        1.621        0.878       83.344       61.644        0.547      338.403       11.031      862.485
04/05/2014  12:19:00       87.031       73.090       53.920       93.913       65.309       47.718     8819.735     4265.253     2276.983        1.559        0.768      113.651       25.931        0.052      338.166       10.632      862.463
04/05/2014  12:20:00       68.264        6.849       92.263       72.426      125.275       65.491     5245.577    15693.740     4289.104        1.922        1.261       68.607       81.187        1.400      338.454       11.115      862.460
04/05/2014  12:21:00       53.346      -65.932       42.402       61.910      112.948       57.869     3832.833    12757.325     3348.834        1.446        0.997       84.810       75.335        0.789      338.085       10.497      862.452
04/05/2014  12:22:00       76.177       62.018       45.921       74.472       60.671       48.916     5546.045     3681.025     2392.777        1.169        0.581       98.230       45.837        0.218      338.214       10.714      862.432
04/05/2014  12:23:00       29.418       85.761        9.875       51.088       86.675       39.078     2609.964     7512.510     1527.055        0.998        0.582       90.666       42.273        0.217      338.017       10.383      862.418
04/05/2014  12:24:00       18.848       47.113       26.222       37.578       55.467       36.304     1412.122     3076.599     1317.995        0.453        0.290       50.743       31.513        0.386      338.552       11.282      862.401
04/05/2014  12:25:00       74.512      -75.353       20.135       45.394       70.965       45.394     2060.613     5036.048     2060.604        1.039        0.458      105.972       31.345        0.087      338.072       10.477      862.388
04/05/2014  12:26:00       74.841       72.026       90.293       71.843       66.565       54.630     5161.389     4430.855     2984.446        1.576        0.629      103.870       50.982        0.241      338.209       10.704      862.377
04/05/2014  12:27:00       44.936       91.350      115.284       53.509       82.073       51.756     2863.172     6735.979     2678.725        1.796        0.614      101.804       54.300        0.284      338.262       10.794      862.367
04/05/2014  12:28:00       81.111       72.684       54.388       59.179       45.680       48.607     3502.103     2086.678     2362.652        1.138        0.398      108.912       48.195        0.196      337.649        9.767      862.368
04/05/2014  12:29:00       52.519        3.993       24.001       25.127       40.531       40.502      631.390     1642.767     1640.402        0.363        0.196       52.670       34.787        0.436      337.615        9.708      862.373
04/05/2014  12:30:00       85.118       -4.497       36.794       54.833       68.973       56.501     3006.661     4757.226     3192.332        0.979        0.548       85.237       44.279        0.270      337.851       10.104      862.346
04/05/2014  12:31:00       56.446       86.192       96.180       72.512       69.531       48.103     5258.023     4834.507     2313.860        1.613        0.620      103.030       49.194        0.228      338.335       10.917      862.329
04/05/2014  12:32:00       54.522      -15.459       41.837       62.541       77.014       51.618     3911.426     5931.087     2664.438        0.873        0.625       56.672       54.559        0.927      338.300       10.860      862.341
04/05/2014  12:33:00      159.311      119.030       44.686       56.295       55.452       59.575     3169.080     3074.978     3549.210        2.567        0.490      198.867       38.686        0.038      337.903       10.191      862.356
04/05/2014  12:34:00      182.510      117.860       32.061       96.550       69.380       64.894     9321.971     4813.619     4211.253        3.328        0.917      217.258       35.064        0.026      338.079       10.484      862.361
04/05/2014  12:35:00      112.768       41.244       27.261      104.523       98.708       61.734    10925.121     9743.216     3811.037        1.982        1.224      120.074       36.998        0.095      338.198       10.686      862.376
04/05/2014  12:36:00       54.515       48.353       75.648       91.558       88.877       50.528     8382.840     7899.094     2553.095        1.493        0.942       72.869       53.232        0.534      338.596       11.355      862.401
04/05/2014  12:37:00       58.806     -112.852        1.032       54.887       87.885       63.070     3012.546     7723.764     3977.871        1.545        0.736      127.254       60.743        0.228      338.484       11.166      862.429
04/05/2014  12:38:00       91.506     -107.653       37.119       95.009      170.076       72.108     9026.640    28925.693     5199.508        3.224        2.158      141.289      107.357        0.577      338.412       11.045      862.443
04/05/2014  12:39:00      117.689     -103.381        2.586       82.702      171.199       78.626     6839.616    29309.257     6182.069        3.343        2.117      156.647      105.070        0.450      338.240       10.756      862.467
04/05/2014  12:40:00      118.243     -140.752      -13.776       82.291      121.027       70.357     6771.728    14647.595     4950.049        3.017        1.318      183.828       80.469        0.192      338.241       10.756      862.483
04/05/2014  12:41:00       93.709     -135.017        6.105       59.619      100.467       60.434     3554.464    10093.538     3652.241        2.217        0.865      164.351       57.364        0.122      338.502       11.196      862.487
04/05/2014  12:42:00       64.428      -81.204       -1.823       56.128       63.023       42.019     3150.386     3971.948     1765.605        0.982        0.444      103.659       45.117        0.189      338.131       10.574      862.510
04/05/2014  12:43:00       90.141      -94.822        6.273       38.987       41.180       32.154     1519.986     1695.774     1033.854        1.070        0.212      130.830       19.274        0.022      337.933       10.242      862.523
04/05/2014  12:44:00     -122.546       13.710        9.013       85.245       42.282       42.812     7266.715     1787.786     1832.864        1.308        0.544      123.311       53.667        0.189      338.068       10.470      862.517
04/05/2014  12:45:00     -108.074       -9.249       -1.399       54.956       46.720       29.626     3020.110     2182.735      877.701        0.892        0.304      108.469       29.225        0.073      338.180       10.656      862.536
04/05/2014  12:46:00     -145.837      -52.455       -9.123       35.962       48.250       25.439     1293.289     2328.032      647.135        1.418        0.213      154.984       16.309        0.011      337.708        9.863      862.550
04/05/2014  12:47:00      -83.316      -34.759        9.830       63.000       63.183       33.981     3969.005     3992.147     1154.697        0.868        0.456       90.276       37.365        0.171      338.153       10.611      862.538
04/05/2014  12:48:00      -16.261       -3.682       20.308       73.543       36.018       36.898     5408.503     1297.294     1361.458        0.438        0.403       16.673       28.447        2.911      338.541       11.263      862.534
04/05/2014  12:49:00       40.262       43.992       52.381       38.240       29.735       41.401     1462.320      884.174     1714.001        0.518        0.203       59.635       22.236        0.139      338.485       11.169      862.549
04/05/2014  12:50:00       39.322       82.566       50.747       67.512       57.851       44.458     4557.923     3346.794     1976.496        1.041        0.494       91.452       34.704        0.144      338.489       11.174      862.539
04/05/2014  12:51:00       49.794      201.644      -12.587       78.917       93.670       56.830     6227.877     8774.078     3229.689        3.076        0.912      207.701       54.312        0.068      338.151       10.606      862.542
04/05/2014  12:52:00      136.803      104.547        7.161       65.270       45.573       47.091     4260.224     2076.914     2217.531        1.912        0.428      172.178       27.623        0.026      337.687        9.828      862.545
04/05/2014  12:53:00       99.305       42.712       34.398       65.096       44.132       53.752     4237.436     1947.634     2889.260        1.097        0.454      108.101       30.601        0.080      337.844       10.092      862.543
04/05/2014  12:54:00      153.555      134.781      115.309      112.431       86.255       68.738    12640.798     7439.960     4724.852        3.992        1.240      204.316       60.975        0.089      337.871       10.136      862.514
04/05/2014  12:55:00      139.957       28.769        9.824       88.556       79.829       58.336     7842.199     6372.610     3403.059        1.906        0.881      142.883       47.516        0.111      337.749        9.932      862.510
04/05/2014  12:56:00      105.870       46.102       61.446       82.550       88.026       56.779     6814.479     7748.576     3223.849        1.744        0.889      115.472       51.632        0.200      338.149       10.603      862.500
04/05/2014  12:57:00       50.393       92.877       93.874       79.730       67.465       66.186     6356.832     4551.564     4380.646        1.763        0.764      105.668       64.628        0.374      338.433       11.081      862.496
04/05/2014  12:58:00      103.695      120.564      106.761       97.442       77.486       67.906     9494.901     6004.085     4611.193        2.839        1.006      159.024       39.589        0.062      338.355       10.948      862.479
04/05/2014  12:59:00      172.869       90.042      102.455      161.867      112.319       95.505    26200.768    12615.561     9121.191        4.820        2.397      194.913       82.788        0.180      338.508       11.205      862.452
04/05/2014  13:00:00      211.363      167.045       16.907      137.983       90.334       67.412    19039.246     8160.278     4544.379        5.230        1.587      269.404       41.617        0.024      338.500       11.192      862.456
04/05/2014  13:01:00       70.391      147.690        2.814       93.463      116.022       70.957     8735.269    13461.107     5034.956        2.700        1.362      163.606       69.242        0.179      338.413       11.046      862.478
04/05/2014  13:02:00       57.833      191.622      -10.721       80.426      118.573       65.390     6468.372    14059.621     4275.883        3.249        1.240      200.159       67.944        0.115      338.209       10.702      862.487
04/05/2014  13:03:00       95.903      208.022      -16.745       86.506      123.279       81.549     7483.269    15197.679     6650.175        4.104        1.467      229.065       68.019        0.088      338.245       10.762      862.489
04/05/2014  13:04:00       76.908      138.486       -4.448       77.609      114.168       62.205     6023.222    13034.397     3869.413        2.402        1.146      158.408       62.811        0.157      338.327       10.903      862.475
04/05/2014  13:05:00       74.452       81.359       18.557       98.790       71.635       52.249     9759.374     5131.511     2730.006        1.506        0.881      110.284       31.867        0.083      338.550       11.277      862.452
04/05/2014  13:06:00       24.731      105.958       -5.824       36.326       71.226       41.183     1319.573     5073.208     1696.065        0.998        0.404      108.806       42.904        0.155      338.590       11.344      862.447
04/05/2014  13:07:00       51.445       68.242       -6.611       65.585       54.872       40.825     4301.412     3010.930     1666.643        0.816        0.449       85.461       35.756        0.175      338.693       11.517      862.425
04/05/2014  13:08:00       71.553       86.035       84.388       95.946       62.359       60.483     9205.615     3888.662     3658.228        1.819        0.838      111.901       17.114        0.023      339.060       12.135      862.390
04/05/2014  13:09:00       70.698     -124.540        3.391       81.951      102.408       68.053     6715.958    10487.343     4631.261        2.117        1.092      143.208       66.684        0.217      338.626       11.404      862.390
04/05/2014  13:10:00       75.599       99.303       96.235       64.806       90.028       69.350     4199.868     8105.055     4809.479        2.097        0.856      124.805       72.013        0.333      338.344       10.932      862.387
04/05/2014  13:11:00       41.212       44.610       41.251       68.688       53.462       49.322     4717.992     2858.148     2432.674        0.770        0.500       60.732       41.475        0.466      338.903       11.873      862.366
04/05/2014  13:12:00       82.973     -172.180      -10.525       86.200      117.675       69.910     7430.516    13847.297     4887.441        3.140        1.308      191.129       72.427        0.144      338.513       11.214      862.330
04/05/2014  13:13:00      127.250     -144.262      -33.624       72.240      121.997       62.059     5218.602    14883.158     3851.328        3.104        1.198      192.364       69.195        0.129      338.447       11.102      862.321
04/05/2014  13:14:00       23.508       21.215       66.417       40.720       34.194       30.746     1658.086     1169.214      945.317        0.459        0.189       31.665       19.985        0.398      338.842       11.769      862.319
04/05/2014  13:15:00        0.661       28.948       21.173       67.273       29.030       32.854     4525.622      842.732     1079.368        0.387        0.322       28.956       30.335        1.098      338.807       11.710      862.297
04/05/2014  13:16:00        7.315       10.738       28.621       37.142       18.386       28.723     1379.527      338.043      824.989        0.176        0.127       12.993       23.150        3.175      339.180       12.338      862.285
04/05/2014  13:17:00      -62.667       81.036       -5.803       44.764       51.735       33.742     2003.814     2676.473     1138.548        0.817        0.291      102.440       27.537        0.072      338.592       11.350      862.285
04/05/2014  13:18:00      -38.532       60.359      -11.745       43.010       93.443       39.913     1849.851     8731.591     1593.062        0.872        0.609       71.610       38.622        0.291      338.517       11.223      862.289
04/05/2014  13:19:00       35.881       41.370       35.789       64.963       56.691       35.727     4220.190     3213.862     1276.401        0.649        0.436       54.763       25.668        0.220      338.965       11.975      862.279
04/05/2014  13:20:00      -15.599       44.424       28.091       26.438       93.054       45.382      698.957     8658.992     2059.566        0.721        0.571       47.083       47.918        1.036      339.269       12.487      862.273
04/05/2014  13:21:00      -34.076      135.952       -1.813       83.188      110.300       48.022     6920.270    12166.138     2306.131        2.052        1.070      140.157       49.278        0.124      339.040       12.100      862.298
04/05/2014  13:22:00      -49.836      226.882      -19.824       61.808       65.427       44.906     3820.167     4280.658     2016.530        3.223        0.506      232.291       33.245        0.020      338.736       11.587      862.305
04/05/2014  13:23:00      -57.971      148.455      -17.251       49.853       82.619       41.315     2485.296     6825.899     1706.942        1.836        0.551      159.373       34.721        0.047      338.715       11.555      862.301
04/05/2014  13:24:00       31.795      136.381        3.030       67.368      101.356       47.584     4538.507    10272.982     2264.225        1.834        0.854      140.038       44.555        0.101      338.666       11.471      862.287
04/05/2014  13:25:00       18.494       38.075       -6.595       41.579       47.694       21.840     1728.816     2274.759      476.987        0.316        0.224       42.329       10.829        0.065      338.584       11.335      862.294
04/05/2014  13:26:00      -18.044       -9.099       -0.321       27.252       27.472       26.361      742.661      754.710      694.896        0.130        0.110       20.208       15.783        0.610      338.890       11.850      862.278
04/05/2014  13:27:00      -18.547       59.356        7.088       41.446       53.978       36.191     1717.745     2913.596     1309.784        0.493        0.297       62.186       34.708        0.312      339.266       12.482      862.284
04/05/2014  13:28:00      -10.892       42.723       -4.952       22.087       48.548       24.863      487.827     2356.886      618.155        0.271        0.173       44.089        9.131        0.043      338.776       11.658      862.278
04/05/2014  13:29:00      -35.126       74.908       -1.866       31.403       69.369       36.852      986.163     4812.045     1358.049        0.700        0.358       82.735       35.922        0.189      338.804       11.707      862.261
04/05/2014  13:30:00       -1.931      203.126      -18.518       48.241       90.598       43.147     2327.188     8208.021     1861.633        2.700        0.620      203.135       40.872        0.040      338.757       11.622      862.269
04/05/2014  13:31:00      -27.956      210.462      -20.031       64.510       88.932       59.577     4161.513     7908.885     3549.478        3.055        0.781      212.310       48.221        0.052      338.738       11.592      862.250
04/05/2014  13:32:00     -118.446      123.328        7.573       93.287       92.252       60.853     8702.466     8510.513     3703.133        2.510        1.046      170.995       56.251        0.108      338.860       11.797      862.261
04/05/2014  13:33:00     -124.621       80.648      -25.793       63.306       46.983       43.020     4007.691     2207.356     1850.701        1.538        0.403      148.440       25.256        0.029      338.776       11.658      862.256
04/05/2014  13:34:00       17.345       38.634       58.847       88.309       74.873       54.339     7798.466     5606.005     2952.684        1.080        0.818       42.348       53.129        1.574      339.276       12.498      862.248
04/05/2014  13:35:00      149.439       83.252       66.941      132.922       94.390       63.682    17668.267     8909.494     4055.356        3.218        1.532      171.064       51.653        0.091      338.827       11.741      862.233
04/05/2014  13:36:00       69.826      150.284      142.783      112.571       95.943       74.123    12672.197     9205.057     5494.226        3.760        1.369      165.714       66.678        0.162      339.033       12.088      862.210
04/05/2014  13:37:00      181.395       94.305       28.631       90.129       71.205       67.422     8123.260     5070.178     4545.698        3.017        0.887      204.444       41.749        0.042      338.665       11.470      862.242
04/05/2014  13:38:00      183.694      108.415       54.440       91.382       67.963       64.745     8350.611     4619.000     4191.910        3.281        0.858      213.301       49.784        0.054      338.702       11.531      862.220
04/05/2014  13:39:00      192.600      151.614       59.989      103.943       71.552       75.682    10804.081     5119.719     5727.702        4.266        1.083      245.115       26.455        0.012      338.990       12.013      862.219
04/05/2014  13:40:00       91.794      187.790      -28.559       88.367      120.048       61.453     7808.662    14411.587     3776.503        3.525        1.300      209.024       66.543        0.101      338.685       11.503      862.246
04/05/2014  13:41:00       97.420      107.209        6.457       73.719       68.460       58.511     5434.554     4686.792     3423.576        1.728        0.677      144.860       44.843        0.096      338.780       11.663      862.224
04/05/2014  13:42:00      157.651      160.982       11.336       95.176       83.726       62.165     9058.440     7010.126     3864.538        3.541        0.997      225.320       51.024        0.051      339.265       12.478      862.219
04/05/2014  13:43:00      173.646      135.996        5.500       85.288       68.539       60.447     7274.004     4697.602     3653.867        3.215        0.781      220.562       43.629        0.039      338.598       11.355      862.246
04/05/2014  13:44:00      133.811      102.172       -7.627       66.352       68.082       50.311     4402.635     4635.175     2531.225        1.998        0.578      168.358       38.603        0.053      338.382       10.996      862.240
04/05/2014  13:45:00       51.940     -141.349        4.180       81.197      102.315       63.914     6592.877    10468.460     4084.984        2.192        1.057      150.590       41.031        0.074      338.937       11.927      862.189
04/05/2014  13:46:00      111.212     -218.135      -52.433       88.168      106.694       53.235     7773.676    11383.688     2833.979        4.234        1.100      244.849       45.998        0.035      338.639       11.424      862.159
04/05/2014  13:47:00      130.236     -255.859      -54.561       88.238       80.528       50.314     7785.917     6484.718     2531.473        5.110        0.840      287.098       44.232        0.024      338.484       11.165      862.130
04/05/2014  13:48:00      100.970     -215.821      -35.787       90.803       77.584       49.187     8245.165     6019.205     2419.390        3.737        0.834      238.272       48.727        0.042      338.447       11.102      862.120
04/05/2014  13:49:00       52.301      -65.699       25.226       60.711       76.531       36.341     3685.800     5857.017     1320.640        0.927        0.543       83.975       41.816        0.248      338.951       11.952      862.118
04/05/2014  13:50:00       23.710        6.335       72.403       70.565       98.919       46.994     4979.349     9785.039     2208.414        1.141        0.849       24.542       34.477        1.974      339.345       12.616      862.111
04/05/2014  13:51:00      140.096       78.847       13.051       67.500       54.942       51.698     4556.306     3018.640     2672.704        1.813        0.512      160.760       23.402        0.021      338.718       11.559      862.120
04/05/2014  13:52:00      150.281       81.383       15.346       77.456       81.596       43.969     5999.419     6657.859     1933.252        2.201        0.730      170.902       37.195        0.047      338.725       11.570      862.126
04/05/2014  13:53:00      161.031       97.325       21.781       56.403       56.057       50.565     3181.325     3142.424     2556.786        2.238        0.444      188.158       24.686        0.017      338.732       11.582      862.121
04/05/2014  13:54:00      151.304      168.806       -3.861      105.289      111.964       72.125    11085.765    12536.032     5201.988        4.011        1.441      226.690       61.331        0.073      338.864       11.803      862.115
04/05/2014  13:55:00      -17.215      315.770      -22.170      126.428      144.157       82.667    15984.060    20781.115     6833.835        7.204        2.180      316.239       73.094        0.053      338.976       11.991      862.082
04/05/2014  13:56:00       77.608      155.650      -11.403       76.397       96.674       62.284     5836.518     9345.852     3879.352        2.472        0.953      173.925       65.597        0.142      338.756       11.622      862.108
04/05/2014  13:57:00      201.057      149.246       34.349       87.686       47.153       56.398     7688.858     2223.387     3180.683        3.848        0.655      250.396       31.035        0.015      338.757       11.621      862.060
04/05/2014  13:58:00       83.934       68.805        3.617       83.521       56.268       33.150     6975.683     3166.074     1098.909        1.151        0.562      108.531       30.683        0.080      338.830       11.747      862.075
04/05/2014  13:59:00       23.097      163.355      -18.509       67.215       92.793       46.536     4517.896     8610.564     2165.629        2.142        0.765      164.980       48.508        0.086      338.919       11.897      862.096
04/05/2014  14:00:00      -55.735      239.197      -11.767       70.952      126.260       50.217     5034.196    15941.600     2521.699        4.197        1.175      245.605       56.552        0.053      338.893       11.850      862.111
04/05/2014  14:01:00      -70.329       73.355       -3.645       69.714       50.205       38.023     4860.109     2520.557     1445.765        0.958        0.441      101.622       37.190        0.134      338.853       11.786      862.081
04/05/2014  14:02:00      -85.892       28.534        5.008       62.591       69.499       40.495     3917.677     4830.053     1639.873        0.930        0.519       90.507       34.434        0.145      339.111       12.221      862.050
04/05/2014  14:03:00      -92.253      -27.857       -3.472       61.125       45.912       39.981     3736.247     2107.942     1598.512        0.837        0.372       96.367       29.170        0.092      339.138       12.266      862.024
04/05/2014  14:04:00     -126.141      -46.948       -8.095      117.529      106.031       46.649    13813.078    11242.570     2176.097        2.270        1.362      134.594       35.666        0.070      338.743       11.600      861.993
04/05/2014  14:05:00       18.335       94.184       -7.572       52.217      102.293       31.252     2726.571    10463.931      976.669        1.171        0.708       95.952       44.928        0.219      339.158       12.300      861.966
04/05/2014  14:06:00       60.303      103.156      -29.219       31.338       51.506       27.624      982.084     2652.903      763.101        0.976        0.220      119.489       20.395        0.029      339.088       12.183      861.959
04/05/2014  14:07:00       69.690       35.426       -0.344       39.010       38.402       29.183     1521.780     1474.689      851.660        0.498        0.192       78.178       15.808        0.041      339.154       12.292      861.944
04/05/2014  14:08:00       42.956      173.220        3.609       90.964      104.955       69.612     8274.422    11015.651     4845.868        2.799        1.207      178.466       55.765        0.098      339.180       12.337      861.959
04/05/2014  14:09:00      124.760      170.759       12.897      117.412      101.826       80.720    13785.642    10368.618     6515.750        3.777        1.534      211.479       61.466        0.084      339.492       12.860      861.941
04/05/2014  14:10:00       69.792      201.197      -11.335       98.318      145.013       84.518     9666.406    21028.881     7143.304        4.165        1.892      212.958       81.691        0.147      339.315       12.561      861.949
04/05/2014  14:11:00       54.113      206.039       -6.093       90.375      132.492       80.781     8167.644    17554.031     6525.548        3.883        1.612      213.027       77.678        0.133      339.180       12.335      861.984
04/05/2014  14:12:00       94.674      120.341       16.301       80.708       97.687       81.636     6513.707     9542.811     6664.384        2.321        1.136      153.118       66.617        0.189      339.166       12.313      861.983
04/05/2014  14:13:00       82.656      103.816        6.255       94.457       61.366       48.825     8922.193     3765.844     2383.893        1.636        0.754      132.702       41.933        0.100      339.413       12.730      861.975
04/05/2014  14:14:00       46.998      114.563        4.295       82.590      103.720       49.687     6821.075    10757.768     2468.792        1.770        1.002      123.829       44.057        0.127      339.391       12.692      861.987
04/05/2014  14:15:00     -104.029      -12.293       13.726       72.904       59.012       37.511     5315.057     3482.414     1407.049        1.068        0.510      104.752       35.250        0.113      339.565       12.986      861.941
04/05/2014  14:16:00      -45.198      112.333      -17.357       53.090       57.393       30.255     2818.572     3293.981      915.354        1.099        0.351      121.085       26.981        0.050      339.020       12.068      861.921
04/05/2014  14:17:00       -0.567       19.729       -4.710       33.318       71.603       35.106     1110.112     5126.986     1232.399        0.394        0.373       19.737       39.062        3.917      339.062       12.139      861.919
04/05/2014  14:18:00        2.178       50.642        7.609       30.867       55.864       31.847      952.794     3120.796     1014.226        0.386        0.254       50.688       31.112        0.377      339.703       13.219      861.925
04/05/2014  14:19:00      -45.876      268.683      -33.365       90.019      171.531       59.617     8103.434    29422.749     3554.139        5.824        2.054      272.572       63.368        0.054      339.460       12.806      861.952
04/05/2014  14:20:00       25.249      354.583      -20.108       84.678      209.664       80.111     7170.357    43958.961     6417.692        9.215        2.877      355.481       89.288        0.063      339.385       12.680      861.933
04/05/2014  14:21:00     -112.546      301.600      -40.420      127.716      174.227       65.572    16311.260    30355.183     4299.669        7.810        2.548      321.915       80.638        0.063      339.145       12.277      861.945
04/05/2014  14:22:00      -91.474      254.207      -37.760      108.366       92.606       52.981    11743.113     8575.936     2806.950        4.877        1.156      270.165       58.587        0.047      339.323       12.575      861.959
04/05/2014  14:23:00        9.343      215.482      -30.945       68.026      121.671       40.606     4627.590    14803.801     1648.861        3.427        1.054      215.684       51.562        0.057      339.345       12.614      861.959
04/05/2014  14:24:00      -24.603      256.224       -8.180       94.204      112.058       69.129     8874.304    12556.960     4778.845        4.626        1.311      257.402       73.132        0.081      339.653       13.130      861.958
04/05/2014  14:25:00      -34.515      245.460      -18.072       78.607      100.504       49.791     6178.992    10100.989     2479.135        4.026        0.938      247.875       42.355        0.029      339.446       12.784      861.961
04/05/2014  14:26:00      -27.586      319.610      -26.100       67.355      127.672       55.442     4536.696    16300.208     3073.798        6.375        1.196      320.798       68.805        0.046      339.246       12.446      861.947
04/05/2014  14:27:00       19.332      258.348      -19.086       76.571      156.188       78.236     5863.183    24394.753     6120.839        5.192        1.819      259.070       87.625        0.114      339.131       12.252      861.949
04/05/2014  14:28:00       13.513      245.640      -37.102       81.969      128.372       54.369     6718.920    16479.267     2956.031        4.402        1.308      246.012       54.292        0.049      339.138       12.262      861.938
04/05/2014  14:29:00        6.297      160.143      -10.378       67.982       84.462       43.600     4621.601     7133.773     1900.925        1.972        0.683      160.267       44.088        0.076      339.290       12.520      861.947
04/05/2014  14:30:00     -114.921      118.656      -15.613       82.295       73.377       46.821     6772.461     5384.241     2192.206        2.094        0.717      165.185       43.864        0.071      339.474       12.830      861.954
04/05/2014  14:31:00      -44.025       22.667      -15.488       77.263      120.120       40.897     5969.511    14428.914     1672.552        1.238        1.104       49.517       26.681        0.290      339.169       12.317      861.948
04/05/2014  14:32:00       39.199       19.033       22.852       40.519       43.300       29.676     1641.790     1874.859      880.646        0.341        0.220       43.575       16.205        0.138      339.656       13.140      861.901
04/05/2014  14:33:00       22.440        9.487        5.585       25.355       22.161       18.230      642.862      491.114      332.351        0.105        0.073       24.364       13.270        0.297      339.573       13.001      861.864
04/05/2014  14:34:00        7.664       -3.202       -3.206       15.918       34.022       25.426      253.379     1157.513      646.496        0.107        0.103        8.306        9.812        1.395      339.625       13.086      861.828
04/05/2014  14:35:00      -43.005       32.933       -1.301       91.356       44.414       44.324     8345.861     1972.610     1964.641        0.761        0.614       54.167       28.757        0.282      339.360       12.640      861.811
04/05/2014  14:36:00     -103.486       61.493      -25.501       81.815       51.145       35.158     6693.719     2615.776     1236.086        1.284        0.527      120.377       40.773        0.115      339.073       12.156      861.807
04/05/2014  14:37:00       20.693       14.872        4.199       26.029       30.021       24.251      677.505      901.233      588.105        0.142        0.108       25.483       22.990        0.814      339.319       12.572      861.782
04/05/2014  14:38:00      -71.467       95.770      -16.105      130.720       62.755       41.832    17087.660     3938.199     1749.883        1.865        1.139      119.497       40.089        0.113      339.286       12.515      861.788
04/05/2014  14:39:00      -71.253      175.878       -7.229       75.328      111.071       49.973     5674.317    12336.860     2497.264        2.828        1.025      189.763       55.114        0.084      339.443       12.778      861.800
04/05/2014  14:40:00      -20.705      361.156      -37.179       55.417       78.066       33.128     3071.096     6094.376     1097.462        7.125        0.513      361.749       26.461        0.005      338.841       11.763      861.802
04/05/2014  14:41:00       60.858      217.385      -18.080       69.260      128.902       59.397     4796.902    16615.614     3528.030        3.811        1.247      225.743       67.895        0.090      339.123       12.238      861.791
04/05/2014  14:42:00       -2.849       88.826       -5.640       50.913       68.690       37.098     2592.124     4718.285     1376.281        0.831        0.434       88.872       37.194        0.175      339.450       12.791      861.787
04/05/2014  14:43:00       42.321      172.736       -8.472       59.831       82.390       57.484     3579.711     6788.063     3304.455        2.268        0.684      177.845       54.267        0.093      339.213       12.391      861.793
04/05/2014  14:44:00      160.859      182.338        2.820      108.691       92.667       56.948    11813.788     8587.131     3243.097        4.138        1.182      243.152       61.117        0.063      339.107       12.210      861.771
04/05/2014  14:45:00       28.126      122.049       24.231       95.207       95.948       65.151     9064.451     9206.061     4244.697        1.939        1.126      125.248       67.711        0.292      339.347       12.616      861.778
04/05/2014  14:46:00       35.342      226.127      -14.910       57.066      109.769       63.817     3256.524    12049.193     4072.553        3.599        0.969      228.872       70.382        0.095      339.228       12.416      861.769
04/05/2014  14:47:00      -60.105       95.450        0.637       78.032       84.237       48.559     6088.920     7095.932     2357.931        1.413        0.777      112.797       54.747        0.236      339.570       12.993      861.735
04/05/2014  14:48:00      -46.533      166.644       -7.732       78.494      105.865       54.507     6161.298    11207.329     2971.054        2.516        1.017      173.019       58.010        0.112      339.662       13.148      861.745
04/05/2014  14:49:00       22.768      118.658        4.886       81.424      117.388       65.233     6629.804    13779.878     4255.285        1.964        1.233      120.822       64.531        0.285      339.753       13.301      861.751
04/05/2014  14:50:00      105.313       85.765       20.578       93.629       67.058       67.660     8766.473     4496.734     4577.825        1.835        0.892      135.817       47.765        0.124      339.627       13.089      861.728
04/05/2014  14:51:00      276.207      187.975       29.751      107.894       83.594       67.473    11641.223     6987.974     4552.588        6.784        1.159      334.103       24.597        0.005      339.353       12.626      861.707
04/05/2014  14:52:00      308.885      182.216       18.949      108.279       78.482       74.260    11724.301     6159.417     5514.597        7.618        1.170      358.626       45.346        0.016      339.152       12.286      861.695
04/05/2014  14:53:00      281.418      166.834       17.511       69.578       74.985       67.917     4841.103     5622.782     4612.753        6.120        0.754      327.154       47.346        0.021      339.179       12.331      861.694
04/05/2014  14:54:00      148.282      139.098        3.833      102.876       74.295       63.709    10583.458     5519.804     4058.822        3.075        1.008      203.312       38.471        0.036      339.293       12.525      861.687
04/05/2014  14:55:00       27.110      213.976        1.159      108.565      129.728       65.063    11786.324    16829.251     4233.234        3.968        1.642      215.687       68.949        0.102      339.423       12.743      861.681
04/05/2014  14:56:00      -35.671      185.236      -23.263       42.585       50.798       42.839     1813.495     2580.471     1835.154        2.118        0.311      188.639       21.602        0.013      339.486       12.851      861.693
04/05/2014  14:57:00     -134.444      129.934      -21.190       84.426       78.283       43.685     7127.759     6128.153     1908.343        2.528        0.758      186.970       45.725        0.060      339.509       12.889      861.696
04/05/2014  14:58:00     -133.389       58.930      -38.779       93.621       45.607       25.333     8764.944     2079.978      641.747        1.713        0.574      145.826       37.320        0.065      338.951       11.950      861.705
04/05/2014  14:59:00     -105.383      -50.887        2.186      117.630       70.272       38.731    13836.825     4938.205     1500.079        1.698        1.014      117.026       45.010        0.148      339.329       12.587      861.693
04/05/2014  15:00:00        5.320      -51.453       39.381       77.656       79.016       49.452     6030.530     6243.566     2445.467        0.947        0.736       51.727       52.510        1.031      339.633       13.100      861.684
04/05/2014  15:01:00        1.364       29.809       47.663       19.425       46.037       25.458      377.334     2119.394      648.135        0.315        0.157       29.840       23.898        0.641      339.765       13.323      861.682
04/05/2014  15:02:00      -10.450       85.462        7.173       54.513       73.173       41.841     2971.673     5354.222     1750.698        0.877        0.504       86.099       41.678        0.234      339.975       13.675      861.683
04/05/2014  15:03:00      -85.508      157.014      -22.811       96.032      110.637       52.249     9222.183    12240.617     2730.009        2.833        1.210      178.788       59.615        0.111      339.725       13.253      861.696
04/05/2014  15:04:00     -103.621      240.183      -33.015       61.815       85.547       45.074     3821.111     7318.311     2031.670        4.134        0.659      261.582       42.361        0.026      339.489       12.855      861.701
04/05/2014  15:05:00      -16.540      123.623       18.573      205.654      102.165       87.575    42293.413    10437.692     7669.391        3.814        3.020      124.724       99.050        0.631      339.719       13.244      861.683
04/05/2014  15:06:00      150.740      117.473       17.989       96.655       72.813       57.418     9342.099     5301.786     3296.790        2.739        0.897      191.109       35.640        0.035      339.377       12.667      861.683
04/05/2014  15:07:00      101.449       91.830       -1.151       85.880       57.232       43.979     7375.427     3275.477     1934.116        1.565        0.629      136.838       33.923        0.061      339.577       13.004      861.653
04/05/2014  15:08:00       -8.002      208.005      -13.459       79.646       70.930       51.483     6343.446     5031.075     2650.537        2.877        0.701      208.159       47.938        0.053      339.510       12.889      861.683
04/05/2014  15:09:00     -115.379       71.129       -6.046       69.766       60.323       45.016     4867.331     3638.890     2026.444        1.447        0.527      135.542       38.710        0.082      339.701       13.215      861.669
04/05/2014  15:10:00      -92.460       -1.562        7.464      109.412       70.112       40.710    11971.014     4915.738     1657.319        1.357        0.927       92.473       42.242        0.209      340.163       13.995      861.660
04/05/2014  15:11:00     -222.085      -53.496       -9.704       98.252       57.080       33.860     9653.402     3258.090     1146.475        3.317        0.703      228.438       29.331        0.016      339.398       12.702      861.678
04/05/2014  15:12:00      -25.963        4.332       -0.971       29.334       30.471       29.385      860.465      928.485      863.472        0.167        0.133       26.322       23.641        0.807      339.787       13.361      861.675
04/05/2014  15:13:00       63.781       64.072       52.318       66.666       55.828       52.064     4444.300     3116.783     2710.689        1.059        0.514       90.406       46.134        0.260      339.667       13.156      861.660
04/05/2014  15:14:00       38.734      -28.216       17.387       58.202       91.996       37.681     3387.467     8463.283     1419.883        0.793        0.664       47.922       44.171        0.850      339.521       12.911      861.649
04/05/2014  15:15:00       26.577        6.032       20.544       66.157      111.359       46.156     4376.723    12400.893     2130.336        1.003        0.945       27.253       30.346        1.240      340.196       14.050      861.589
04/05/2014  15:16:00      -23.866      172.013      -19.579       67.483      118.343       43.969     4553.993    14005.181     1933.312        2.551        1.025      173.660       53.798        0.096      340.031       13.770      861.630
04/05/2014  15:17:00     -155.279      280.659      -46.045      119.030      131.179       71.531    14168.151    17207.917     5116.619        7.074        1.825      320.751       49.328        0.024      340.013       13.737      861.630
04/05/2014  15:18:00     -182.413      215.752      -30.171      108.943      181.544       60.362    11868.477    32958.364     3643.563        6.459        2.424      282.531       37.786        0.018      339.695       13.201      861.653
04/05/2014  15:19:00     -124.221      227.999      -30.845      126.968      117.876       59.579    16120.923    13894.713     3549.618        5.096        1.678      259.643       61.769        0.057      339.752       13.297      861.652
04/05/2014  15:20:00       -1.290      145.986        0.435       75.556       95.295       55.154     5708.674     9081.215     3041.964        1.957        0.892      145.991       55.005        0.142      339.957       13.645      861.638
04/05/2014  15:21:00     -106.007      199.655      -40.210       96.269      101.898       50.234     9267.713    10383.262     2523.426        3.744        1.109      226.052       43.726        0.037      339.825       13.421      861.646
04/05/2014  15:22:00      -38.805      352.704      -20.886       58.425      103.195       57.173     3413.482    10649.259     3268.794        7.183        0.867      354.832       47.218        0.018      339.591       13.026      861.653
04/05/2014  15:23:00      -71.045      202.251       -3.378       96.817       97.861       66.863     9373.554     9576.869     4470.659        3.469        1.171      214.366       58.836        0.075      339.903       13.551      861.654
04/05/2014  15:24:00     -193.603      222.060      -61.890       89.214       80.597       55.706     7959.126     6495.928     3103.210        5.409        0.878      294.606       52.239        0.031      339.497       12.867      861.689
04/05/2014  15:25:00      -40.996       59.671        3.019       49.047       70.102       36.165     2405.573     4914.332     1307.883        0.694        0.431       72.397       31.189        0.186      340.072       13.842      861.677
04/05/2014  15:26:00     -114.381      165.866      -11.599      130.209      122.955       83.606    16954.293    15118.008     6990.035        3.989        1.953      201.481       90.916        0.204      340.014       13.740      861.666
04/05/2014  15:27:00     -170.864       80.161      -27.372       87.647      107.315       60.524     7682.070    11516.473     3663.172        2.961        1.143      188.733       42.185        0.050      340.233       14.110      861.645
04/05/2014  15:28:00     -109.073       30.420      -17.401       80.986       78.407       50.738     6558.678     6147.684     2574.378        1.420        0.764      113.235       32.534        0.083      339.941       13.620      861.644
04/05/2014  15:29:00      -64.737      102.040       -5.597       70.394      121.452       54.421     4955.310    14750.480     2961.641        1.865        1.133      120.844       49.965        0.171      339.808       13.393      861.619
04/05/2014  15:30:00       -9.458      186.244       -9.387      108.291      119.471       65.237    11727.037    14273.381     4255.920        3.255        1.513      186.484       60.881        0.107      339.974       13.673      861.615
04/05/2014  15:31:00       55.471      109.322        3.494       74.745       80.527       64.188     5586.849     6484.529     4120.062        1.561        0.810      122.590       45.261        0.136      339.881       13.517      861.605
04/05/2014  15:32:00       32.641       79.738       -2.417       94.044       90.909       65.625     8844.277     8264.368     4306.637        1.442        1.071       86.160       56.488        0.430      339.852       13.469      861.603
04/05/2014  15:33:00       31.235      201.541      -27.218       81.769       72.635       54.112     6686.099     5275.857     2928.131        2.861        0.745      203.947       49.560        0.059      339.559       12.972      861.621
04/05/2014  15:34:00       33.908       47.374       20.940       59.742       53.669       48.032     3569.141     2880.335     2307.114        0.629        0.438       58.259       37.749        0.420      339.932       13.605      861.615
04/05/2014  15:35:00      -86.510       75.993       -9.953       69.463       65.724       37.664     4825.156     4319.698     1418.584        1.196        0.528      115.148       40.605        0.124      340.133       13.942      861.609
04/05/2014  15:36:00      -52.140      193.547      -20.608       62.439       80.435       58.102     3898.587     6469.751     3375.884        2.717        0.687      200.448       36.675        0.033      340.103       13.890      861.599
04/05/2014  15:37:00     -141.202      120.818      -19.644       64.154       69.979       50.502     4115.717     4897.004     2550.477        2.324        0.578      185.836       36.252        0.038      339.957       13.645      861.616
04/05/2014  15:38:00     -243.678      209.599      -29.879      121.815      124.631       62.815    14838.865    15532.809     3945.779        6.925        1.716      321.420       58.267        0.033      339.923       13.586      861.603
04/05/2014  15:39:00     -177.727      104.136      -24.444      177.795      144.574       54.221    31610.966    20901.780     2939.889        4.923        2.773      205.988       57.105        0.077      339.603       13.046      861.585
04/05/2014  15:40:00      -31.452      236.075      -34.545       48.526       58.793       29.493     2354.778     3456.559      869.814        3.230        0.334      238.161       30.206        0.016      339.465       12.813      861.599
04/05/2014  15:41:00      -37.896       78.161        8.465       69.410       76.871       42.617     4817.738     5909.113     1816.183        1.008        0.627       86.863       31.043        0.128      340.292       14.210      861.610
04/05/2014  15:42:00      -13.193      127.655      -21.859       47.666       70.397       31.304     2272.075     4955.762      979.931        1.258        0.410      128.335       32.165        0.063      339.488       12.854      861.622
04/05/2014  15:43:00      -66.318       33.670       16.253       74.211       64.874       37.204     5507.200     4208.623     1384.158        0.845        0.555       74.376       37.351        0.252      340.059       13.821      861.616
04/05/2014  15:44:00      -26.953      -71.953       -1.697       53.420       50.508       37.988     2853.736     2551.023     1443.071        0.638        0.342       76.835       24.739        0.104      339.967       13.663      861.620
04/05/2014  15:45:00      161.543      111.817       14.764      137.289       63.715       62.455    18848.147     4059.580     3900.642        3.281        1.340      196.467       38.281        0.038      339.765       13.320      861.627
04/05/2014  15:46:00       51.764      103.186        6.581       64.992       70.238       49.303     4224.025     4933.382     2430.784        1.248        0.579      115.442       43.183        0.140      339.771       13.332      861.616
04/05/2014  15:47:00       88.475      122.764      -28.557       62.288      116.963       38.551     3879.754    13680.446     1486.159        2.138        0.952      151.324       54.184        0.128      339.539       12.939      861.606
04/05/2014  15:48:00      -16.081       99.692      -18.180       30.977       79.583       24.532      959.574     6333.453      601.802        0.921        0.395      100.981       29.179        0.083      339.826       13.425      861.613
04/05/2014  15:49:00      -53.897      151.532      -14.565       59.795       93.066       44.329     3575.462     8661.350     1965.080        2.014        0.710      160.832       44.023        0.075      340.190       14.039      861.658
04/05/2014  15:50:00      -54.541      228.067      -38.571       75.304      124.664       42.943     5670.727    15541.219     1844.129        3.976        1.153      234.498       45.053        0.037      340.113       13.906      861.651
04/05/2014  15:51:00     -185.488      204.362      -49.221       62.585       97.897       44.308     3916.845     9583.903     1963.237        4.702        0.773      275.988       42.254        0.023      339.742       13.280      861.649
04/05/2014  15:52:00        6.136       98.825       11.723       65.373       68.020       51.238     4273.594     4626.731     2625.287        1.073        0.576       99.015       46.130        0.217      340.118       13.919      861.638
04/05/2014  15:53:00      -24.996      191.636      -19.077       96.629      151.147       52.828     9337.177    22845.374     2790.751        3.634        1.749      193.259       71.959        0.139      339.946       13.627      861.636
04/05/2014  15:54:00       36.898      282.238      -23.286      157.256      171.207       87.634    24729.514    29311.906     7679.779        7.163        3.086      284.640       83.536        0.086      340.085       13.860      861.637
04/05/2014  15:55:00      -58.898      295.496      -37.296       89.401      103.451       41.415     7992.559    10702.138     1715.230        5.629        1.020      301.308       42.972        0.020      339.880       13.514      861.709
04/05/2014  15:56:00        7.209      274.910      -29.808       95.363      101.613       64.340     9094.152    10325.144     4139.658        5.003        1.178      275.004       63.870        0.054      339.710       13.227      861.705
04/05/2014  15:57:00     -108.910      352.541      -41.359      102.665      133.469       65.121    10540.101    17813.914     4240.774        8.522        1.630      368.981       67.741        0.034      339.711       13.229      861.725
04/05/2014  15:58:00     -174.304      409.167      -47.411       89.429      114.726       63.571     7997.583    13161.977     4041.254       11.262        1.260      444.747       52.143        0.014      339.622       13.078      861.759
04/05/2014  15:59:00     -123.386      237.689      -26.335       79.780      128.502       48.075     6364.793    16512.683     2311.239        4.880        1.259      267.806       44.291        0.027      339.759       13.308      861.770
04/05/2014  16:00:00     -169.297       53.825      -14.766      127.508      107.954       53.307    16258.234    11653.984     2841.679        3.126        1.538      177.647       55.218        0.097      339.873       13.502      861.746
04/05/2014  16:01:00       34.688      367.769      -46.173       91.348      149.331       66.073     8344.376    22299.834     4365.619        8.679        1.750      369.402       80.871        0.048      339.626       13.085      861.752
04/05/2014  16:02:00     -165.559      260.929      -56.866      141.624      116.993       60.196    20057.472    13687.377     3623.527        6.804        1.868      309.020       66.547        0.046      339.853       13.467      861.784
04/05/2014  16:03:00     -178.972      145.538      -35.855       83.980       69.196       42.756     7052.717     4788.037     1828.106        3.408        0.683      230.678       37.352        0.026      339.906       13.557      861.796
04/05/2014  16:04:00      -28.817      145.793       -8.424       39.686       92.119       40.896     1574.974     8485.954     1672.500        1.694        0.587      148.614       42.981        0.084      339.917       13.577      861.775
04/05/2014  16:05:00      -78.620      170.648      -23.212       47.138       92.352       34.066     2221.971     8528.870     1160.460        2.387        0.596      187.888       23.297        0.015      339.817       13.409      861.740
04/05/2014  16:06:00     -122.787      -75.295       -5.862      156.813       68.890       54.356    24590.260     4745.794     2954.521        2.653        1.615      144.035       70.975        0.243      340.053       13.805      861.692
04/05/2014  16:07:00      -28.089      119.946      -26.231       85.670      156.821       37.741     7339.340    24592.767     1424.353        2.460        1.668      123.191       59.274        0.232      339.987       13.696      861.694
04/05/2014  16:08:00     -163.468      231.096      -40.916       99.857       89.354       50.727     9971.371     7984.204     2573.211        5.116        1.026      283.068       61.493        0.047      340.140       13.954      861.760
04/05/2014  16:09:00     -179.142      104.740      -24.560       90.475       99.397       56.386     8185.811     9879.767     3179.385        3.245        1.062      207.514       20.690        0.010      340.185       14.028      861.790
04/05/2014  16:10:00     -139.462       -2.198      -13.875      127.241       85.307       72.370    16190.169     7277.337     5237.357        2.417        1.435      139.479       72.593        0.271      340.264       14.165      861.781
04/05/2014  16:11:00     -111.383      -34.542       12.244       92.411       70.730       47.130     8539.852     5002.713     2221.202        1.475        0.788      116.616       41.205        0.125      340.272       14.177      861.799
04/05/2014  16:12:00     -152.324        5.880       -7.078       78.301       85.261       37.905     6130.993     7269.453     1436.807        1.906        0.742      152.438       30.401        0.040      340.247       14.135      861.785
04/05/2014  16:13:00     -191.760     -106.802       -2.194      104.800       79.317       51.688    10983.097     6291.165     2671.672        3.406        0.997      219.497       46.686        0.045      340.061       13.820      861.758
04/05/2014  16:14:00     -146.028      -78.367        2.003      139.190       90.586       46.556    19373.750     8205.857     2167.454        2.860        1.487      165.728       60.401        0.133      339.803       13.383      861.727
04/05/2014  16:15:00      -66.661      -56.858       14.346       82.687       63.264       49.248     6837.059     4002.328     2425.394        1.057        0.663       87.616       54.715        0.390      340.034       13.775      861.731
04/05/2014  16:16:00      -69.145      -61.308        9.101       73.177       45.578       33.377     5354.944     2077.333     1114.006        0.858        0.427       92.410       36.473        0.156      340.120       13.922      861.735
04/05/2014  16:17:00     -104.207      -32.989       -0.871       65.345       32.660       25.878     4269.971     1066.699      669.652        0.898        0.300      109.304       28.515        0.068      340.022       13.757      861.743
04/05/2014  16:18:00      -73.500       -1.700       -1.266       85.394       74.903       30.661     7292.127     5610.392      940.078        0.962        0.692       73.519       31.473        0.183      340.272       14.178      861.745
04/05/2014  16:19:00      112.967      124.953       -1.942      127.503       61.157       41.059    16256.929     3740.229     1685.871        2.503        1.084      168.448       33.033        0.038      340.019       13.748      861.751
04/05/2014  16:20:00      178.285      115.069       11.085       81.413       62.436       48.482     6628.157     3898.252     2350.492        2.901        0.644      212.194       28.899        0.019      339.676       13.169      861.751
04/05/2014  16:21:00      -25.459      161.514      -25.820       72.153       55.338       35.044     5206.035     3062.319     1228.080        1.845        0.475      163.508       31.406        0.037      339.827       13.427      861.784
04/05/2014  16:22:00      -21.401      228.231      -27.732       68.144      134.664       41.410     4643.656    18134.387     1714.757        3.890        1.225      229.232       62.539        0.074      339.924       13.587      861.777
04/05/2014  16:23:00       57.574       90.589        8.964       92.546       90.542       52.680     8564.842     8197.829     2775.192        1.557        0.977      107.336       51.294        0.228      340.240       14.124      861.781
04/05/2014  16:24:00       -9.331      141.261       -9.713       45.979       94.291       35.703     2114.091     8890.793     1274.720        1.621        0.614      141.569       45.512        0.103      340.198       14.052      861.786
04/05/2014  16:25:00      104.474       69.607        8.900       88.676       50.276       49.695     7863.421     2527.705     2469.592        1.435        0.643      125.539       31.676        0.064      340.151       13.972      861.766
04/05/2014  16:26:00       51.381      140.138       13.824       97.074       97.754       59.287     9423.434     9555.765     3514.929        2.248        1.125      149.260       56.664        0.144      340.142       13.956      861.766
04/05/2014  16:27:00      -79.164      165.745      -17.277       79.514       95.488       53.663     6322.483     9117.880     2879.667        2.617        0.916      183.680       57.059        0.097      340.102       13.888      861.768
04/05/2014  16:28:00      -53.952      265.034      -34.250       42.864       82.559       31.395     1837.345     6816.007      985.670        4.198        0.482      270.470       27.136        0.010      339.916       13.575      861.789
04/05/2014  16:29:00      -32.908      157.508      -16.878       53.017       77.964       35.902     2810.798     6078.410     1288.946        1.818        0.509      160.909       26.611        0.027      340.182       14.023      861.790
04/05/2014  16:30:00       14.925       61.420       24.652       55.420       41.113       42.069     3071.359     1690.270     1769.801        0.557        0.327       63.207       36.803        0.339      340.477       14.525      861.782
04/05/2014  16:31:00       32.607       83.063      -15.477       67.232       65.859       36.258     4520.203     4337.468     1314.619        0.919        0.509       89.233       31.292        0.123      340.131       13.940      861.795
04/05/2014  16:32:00       56.727       43.884      -10.659       51.800       53.900       43.470     2683.205     2905.245     1889.602        0.637        0.374       71.720       27.244        0.144      340.409       14.409      861.781
04/05/2014  16:33:00       13.789       78.177        5.409       85.158       71.816       45.824     7251.857     5157.535     2099.831        1.042        0.725       79.384       46.335        0.341      340.418       14.425      861.791
04/05/2014  16:34:00      231.481      170.741        3.174      144.456      105.673       77.875    20867.459    11166.742     6064.465        6.041        1.905      287.639       53.472        0.035      339.794       13.369      861.769
04/05/2014  16:35:00      187.515      145.200       18.466       77.996       76.133       59.234     6083.326     5796.247     3508.664        3.598        0.769      237.160       17.029        0.005      339.971       13.667      861.801
04/05/2014  16:36:00      202.132      127.695       28.207       78.634       78.135       66.572     6183.351     6105.089     4431.839        3.734        0.836      239.089       40.311        0.028      340.256       14.147      861.809
04/05/2014  16:37:00      224.732      152.909       25.956      121.563       97.076       68.534    14777.683     9423.700     4696.977        5.172        1.445      271.819       48.169        0.031      339.906       13.558      861.817
04/05/2014  16:38:00       86.825      153.613       -9.936       93.758       84.727       68.114     8790.645     7178.723     4639.453        2.592        1.030      176.452       53.595        0.092      339.957       13.644      861.837
04/05/2014  16:39:00       73.208       69.379        5.950       76.820       69.035       49.678     5901.327     4765.799     2467.931        1.167        0.657      100.860       35.874        0.127      339.832       13.434      861.869
04/05/2014  16:40:00        6.096      201.507      -39.924       81.288       42.193       28.356     6607.732     1780.235      804.039        2.571        0.460      201.599       18.800        0.009      339.765       13.319      861.890
04/05/2014  16:41:00      -99.492      128.231      -24.561       89.946      122.686       46.638     8090.338    15051.755     2175.072        2.613        1.266      162.302       40.599        0.063      340.265       14.163      861.918
04/05/2014  16:42:00      -41.305      117.952      -13.211       54.016       72.816       43.281     2917.778     5302.170     1873.230        1.294        0.505      124.975       41.244        0.109      340.479       14.527      861.948
04/05/2014  16:43:00     -155.649        8.138      -11.107       85.058       82.354       40.833     7234.794     6782.157     1667.322        2.005        0.784      155.861       30.356        0.038      340.552       14.650      861.957
04/05/2014  16:44:00     -140.522       87.590      -17.484       82.545       68.835       48.219     6813.697     4738.191     2325.065        2.080        0.694      165.585       44.286        0.072      339.993       13.706      861.977
04/05/2014  16:45:00     -101.294      218.681      -36.110       79.943      126.482       39.718     6390.847    15997.662     1577.486        4.167        1.198      241.002       43.052        0.032      339.909       13.563      862.004
04/05/2014  16:46:00      -91.901       45.711       -7.851      104.812      127.922       47.362    10985.504    16364.153     2243.176        2.009        1.480      102.641       49.028        0.228      340.154       13.978      862.014
04/05/2014  16:47:00      -46.713       30.808       21.068       85.973       94.957       52.692     7391.384     9016.826     2776.397        1.138        0.959       55.958       42.575        0.579      340.196       14.048      862.018
04/05/2014  16:48:00     -306.131      -30.105      -26.279      198.659      181.370       76.960    39465.232    32895.011     5922.898        8.678        3.914      307.607       56.860        0.034      340.138       13.949      862.003
04/05/2014  16:49:00     -143.218      186.554      -34.372       87.035       83.283       45.049     7575.007     6936.007     2029.393        3.651        0.827      235.188       49.137        0.044      340.014       13.739      862.095
04/05/2014  16:50:00      -46.448      123.369      -10.317       68.206       64.812       41.798     4652.095     4200.543     1747.032        1.404        0.530      131.823       40.638        0.095      340.028       13.765      862.089
04/05/2014  16:51:00      -83.111      158.695      -31.182       76.782       67.963       30.721     5895.511     4618.922      943.776        2.226        0.573      179.141       24.501        0.019      340.088       13.865      862.072
04/05/2014  16:52:00      -99.239      211.400      -15.748       73.978      100.312       48.404     5472.818    10062.505     2342.932        3.633        0.894      233.535       44.203        0.036      339.987       13.694      862.104
04/05/2014  16:53:00     -159.769       35.320      -14.537       95.124       88.743       46.126     9048.534     7875.362     2127.618        2.301        0.953      163.627       29.607        0.033      340.005       13.725      862.085
04/05/2014  16:54:00     -148.831      -31.463       -8.955       72.070       74.909       43.132     5194.036     5611.343     1860.357        1.794        0.633      152.121       23.668        0.024      340.012       13.738      862.061
04/05/2014  16:55:00     -160.466      113.184      -18.513       70.683       64.063       56.549     4996.110     4104.036     3197.838        2.560        0.615      196.366       46.655        0.056      339.926       13.592      862.068
04/05/2014  16:56:00      -58.571      173.314      -11.441       69.586       87.948       41.535     4842.236     7734.898     1725.139        2.395        0.715      182.944       39.207        0.046      339.918       13.579      862.083
04/05/2014  16:57:00      -73.210      202.193      -29.218       63.164       83.869       37.338     3989.639     7034.056     1394.136        2.975        0.621      215.039       41.554        0.037      339.977       13.674      862.073
04/05/2014  16:58:00      -45.279      259.603      -23.142       75.997      105.533       58.705     5775.480    11137.270     3446.310        4.517        1.018      263.522       57.300        0.047      339.980       13.682      862.072
04/05/2014  16:59:00       25.180      449.612      -65.084       98.013      129.367       60.499     9606.554    16735.816     3660.118       11.851        1.500      450.317       59.763        0.018      339.683       13.182      862.094
04/05/2014  17:00:00      -13.056      383.164      -44.060       95.309      114.998       65.826     9083.778    13224.472     4333.058        8.778        1.332      383.386       58.673        0.023      339.630       13.090      862.097
04/05/2014  17:01:00      -53.288      245.880      -22.295       66.004      106.274       53.822     4356.466    11294.152     2896.783        4.117        0.927      251.588       59.036        0.055      339.652       13.129      862.099
04/05/2014  17:02:00     -159.857      205.700      -41.133       59.104       85.956       37.883     3493.252     7388.445     1435.148        4.094        0.616      260.512       29.158        0.013      339.596       13.034      862.079
04/05/2014  17:03:00      -91.069      172.682      -43.189      101.759       83.522       50.588    10354.798     6975.858     2559.170        2.993        0.994      195.225       51.233        0.069      339.666       13.154      862.056
04/05/2014  17:04:00      -44.227      203.080      -18.525       49.616       99.367       37.064     2461.726     9873.845     1373.761        2.862        0.685      207.840       38.320        0.034      339.813       13.401      862.031
04/05/2014  17:05:00      -17.529      298.407      -34.667       52.894      124.159       45.022     2797.724    15415.448     2026.944        5.539        1.012      298.922       63.406        0.045      339.735       13.270      862.045
04/05/2014  17:06:00      -16.164      358.455      -53.391       56.819       66.502       32.294     3228.384     4422.466     1042.889        7.015        0.435      358.820       30.801        0.007      339.673       13.164      862.043
04/05/2014  17:07:00      -18.998      173.385      -13.568       52.354       76.199       35.065     2740.959     5806.212     1229.531        2.019        0.489      174.423       38.434        0.049      339.598       13.041      862.034
04/05/2014  17:08:00      -14.800      125.359       -4.811       66.558       49.057       40.497     4429.972     2406.596     1640.005        1.222        0.424      126.229       24.288        0.037      339.755       13.306      862.040
04/05/2014  17:09:00      -47.715      240.413      -29.547       72.836      100.196       48.683     5305.046    10039.280     2370.005        3.933        0.886      245.102       56.559        0.053      339.780       13.345      862.045
04/05/2014  17:10:00      -49.228      171.250      -28.736       58.218       81.207       36.478     3389.292     6594.647     1330.664        2.194        0.566      178.185       37.190        0.044      339.912       13.567      862.070
04/05/2014  17:11:00      -87.864      196.992      -26.558       68.584       98.513       46.317     4703.823     9704.718     2145.250        3.189        0.828      215.698       43.995        0.042      339.805       13.389      862.085
04/05/2014  17:12:00     -179.941      264.893      -49.048      108.681       86.725       53.293    11811.621     7521.204     2840.160        6.356        1.109      320.230       54.729        0.029      339.891       13.531      862.093
04/05/2014  17:13:00      -44.996      148.289      -13.280       77.048       69.991       43.099     5936.389     4898.776     1857.552        1.844        0.635      154.966       41.462        0.072      339.980       13.683      862.103
04/05/2014  17:14:00       40.144      163.190       -4.842      102.864      120.753       48.144    10580.940    14581.318     2317.833        2.787        1.374      168.055       53.298        0.101      339.873       13.504      862.108
04/05/2014  17:15:00       -1.048      296.382      -39.253       88.176      128.887       55.935     7775.062    16611.769     3128.759        5.844        1.376      296.384       64.937        0.048      339.845       13.456      862.121
04/05/2014  17:16:00      -76.944      188.936      -25.988       70.142       87.550       48.391     4919.909     7664.945     2341.682        2.861        0.746      204.003       39.326        0.037      340.001       13.719      862.145
04/05/2014  17:17:00     -137.014       -6.240      -29.084       93.383       94.554       47.802     8720.377     8940.402     2285.021        1.980        0.997      137.156       29.534        0.046      340.192       14.043      862.170
04/05/2014  17:18:00      -37.288       54.174       27.765       50.061       43.505       37.069     2506.133     1892.664     1374.134        0.543        0.289       65.767       29.086        0.196      340.311       14.244      862.160
04/05/2014  17:19:00     -111.240       98.012      -29.143       66.564       72.136       41.748     4430.767     5203.608     1742.882        1.710        0.569      148.259       32.282        0.047      340.033       13.773      862.186
04/05/2014  17:20:00      -46.513      143.648      -20.579       42.010       55.528       48.837     1764.868     3083.322     2385.100        1.523        0.362      150.991       32.329        0.046      339.981       13.688      862.219
04/05/2014  17:21:00      -31.631      205.413      -25.928       83.179       68.992       37.747     6918.807     4759.892     1424.807        2.848        0.655      207.834       41.551        0.040      339.906       13.557      862.251
04/05/2014  17:22:00     -117.306      195.530      -33.645       62.075       42.786       35.639     3853.334     1830.667     1270.163        3.004        0.348      228.018       32.981        0.021      339.891       13.531      862.265
04/05/2014  17:23:00     -148.459      166.139      -37.571       65.658       65.234       37.942     4311.021     4255.435     1439.611        3.053        0.500      222.805       29.620        0.018      339.986       13.691      862.285
04/05/2014  17:24:00        9.028      196.935      -28.594       85.243      108.585       52.396     7266.432    11790.776     2745.324        3.074        1.090      197.142       50.566        0.066      339.899       13.547      862.305
04/05/2014  17:25:00       55.690      266.680      -38.199       64.638      127.090       56.971     4178.016    16151.749     3245.750        4.962        1.179      272.433       66.948        0.060      339.766       13.321      862.307
04/05/2014  17:26:00       10.903      281.984      -43.179       73.478       75.873       41.249     5399.019     5756.715     1701.508        4.718        0.643      282.195       39.321        0.019      339.749       13.290      862.279
04/05/2014  17:27:00       76.029      280.126      -22.530      108.400      141.723       81.736    11750.656    20085.335     6680.723        6.163        1.926      290.260       89.062        0.094      339.740       13.279      862.256
04/05/2014  17:28:00      156.372      167.564        8.588      120.770      106.408       82.086    14585.358    11322.763     6738.150        4.262        1.632      229.194       58.238        0.065      339.777       13.340      862.209
04/05/2014  17:29:00      -34.551      143.888      -10.926       99.249      101.201       40.632     9850.347    10241.708     1650.942        2.188        1.087      147.978       42.291        0.082      340.374       14.349      862.235
04/05/2014  17:30:00     -108.403      273.498      -42.748       75.730      127.762       57.505     5735.082    16323.029     3306.836        5.687        1.268      294.198       66.758        0.051      340.088       13.864      862.246
04/05/2014  17:31:00      -73.409      446.932      -68.352       73.283       71.822       36.409     5370.417     5158.465     1325.639       11.083        0.593      452.921       29.550        0.004      339.758       13.308      862.238
04/05/2014  17:32:00      -79.919      341.186      -56.653       70.565      133.905       50.344     4979.422    17930.501     2534.481        7.572        1.272      350.421       44.212        0.016      339.822       13.417      862.219
04/05/2014  17:33:00      -72.887      219.229      -30.902       70.052       54.947       36.392     4907.294     3019.128     1324.398        3.179        0.463      231.028       30.713        0.018      339.976       13.676      862.211
04/05/2014  17:34:00      -33.523      104.179      -12.515       59.447       82.172       35.053     3533.992     6752.293     1228.738        1.182        0.576      109.439       33.572        0.094      340.259       14.158      862.211
04/05/2014  17:35:00       12.785      250.178      -32.069       75.361      162.795       58.033     5679.324    26502.143     3367.825        4.966        1.777      250.505       84.360        0.113      340.151       13.972      862.216
04/05/2014  17:36:00     -137.262      266.326      -22.477      121.484      158.596       68.067    14758.336    25152.715     4633.080        6.740        2.227      299.617       69.518        0.054      340.200       14.054      862.231
04/05/2014  17:37:00     -225.710       51.637      -27.465      145.674       92.473       61.261    21221.026     8551.185     3752.953        4.394        1.676      231.541       72.866        0.099      340.222       14.090      862.247
04/05/2014  17:38:00     -193.035       44.899      -11.404      132.380       72.098       60.511    17524.507     5198.167     3661.618        3.289        1.319      198.187       69.729        0.124      340.221       14.088      862.268
04/05/2014  17:39:00     -180.655       31.322      -20.749       87.179      120.841       49.126     7600.141    14602.447     2413.331        2.933        1.231      183.350       44.813        0.060      340.099       13.885      862.259
04/05/2014  17:40:00      -79.721       49.999       -9.402      103.463       89.155       50.958    10704.652     7948.545     2596.669        1.509        1.062       94.103       50.433        0.287      340.295       14.215      862.261
04/05/2014  17:41:00     -108.592      171.994      -13.242       61.129      123.048       48.994     3736.767    15140.931     2400.386        3.141        1.064      203.407       34.608        0.029      340.333       14.279      862.286
04/05/2014  17:42:00     -168.149      263.277      -34.593       87.953       93.342       56.256     7735.793     8712.753     3164.690        5.920        0.981      312.392       48.183        0.024      340.152       13.970      862.317
04/05/2014  17:43:00     -223.139      223.867      -36.087      119.553      105.226       58.579    14292.964    11072.455     3431.511        6.500        1.440      316.082       60.913        0.037      340.022       13.752      862.333
04/05/2014  17:44:00     -107.777      115.962       -8.082       91.435       77.976       56.430     8360.381     6080.276     3184.365        2.137        0.881      158.313       51.195        0.105      340.259       14.154      862.337
04/05/2014  17:45:00     -220.151      208.846      -36.351      152.006      156.808       84.268    23105.697    24588.709     7101.157        7.409        2.740      303.452       98.565        0.106      340.254       14.144      862.362
04/05/2014  17:46:00     -153.131      238.895      -26.046      124.332      113.527       68.679    15458.506    12888.462     4716.763        5.712        1.653      283.760       74.153        0.068      340.024       13.757      862.349
04/05/2014  17:47:00      -70.714      242.565      -20.829       90.743      130.838       52.643     8234.254    17118.665     2771.267        4.619        1.406      252.662       44.333        0.031      340.100       13.883      862.324
04/05/2014  17:48:00     -192.055      112.738       -6.830      153.549      183.309       87.664    23577.318    33602.212     7684.933        5.724        3.243      222.699       91.215        0.168      340.201       14.056      862.310
04/05/2014  17:49:00     -191.842       50.276      -38.682      107.357      101.259       61.885    11525.600    10253.453     3829.745        3.321        1.280      198.320       58.223        0.086      340.194       14.044      862.296
04/05/2014  17:50:00      -69.585       12.920       11.635      110.719      111.649       55.821    12258.632    12465.598     3116.038        1.649        1.392       70.775       56.236        0.631      340.294       14.214      862.282
04/05/2014  17:51:00      -52.253       49.255        8.174       87.693       73.376       43.242     7690.045     5384.048     1869.870        1.008        0.747       71.808       35.137        0.239      340.350       14.308      862.273
04/05/2014  17:52:00      -39.764       64.739        1.705      103.484       70.900       41.481    10708.869     5026.782     1720.713        1.161        0.873       75.976       27.777        0.134      340.537       14.626      862.275
04/05/2014  17:53:00     -200.163      205.409      -31.303      114.217      138.672       65.584    13045.491    19229.796     4301.234        5.990        1.829      286.807       67.913        0.056      340.267       14.165      862.284
04/05/2014  17:54:00     -170.331      285.738      -28.716      131.533      187.355       79.437    17300.927    35101.945     6310.255        8.509        2.936      332.655       92.897        0.078      340.142       13.956      862.273
04/05/2014  17:55:00     -213.550      217.395      -45.350       81.500       97.912       60.609     6642.269     9586.684     3673.420        5.741        0.995      304.737       53.712        0.031      340.104       13.890      862.270
04/05/2014  17:56:00     -126.215      263.735      -22.816      102.305      130.261       70.641    10466.347    16967.802     4990.089        5.921        1.621      292.380       79.162        0.073      340.127       13.930      862.287
04/05/2014  17:57:00     -157.104      164.580      -23.893       79.034      105.136       53.832     6246.369    11053.617     2897.873        3.626        1.010      227.526       44.847        0.039      340.309       14.237      862.307
04/05/2014  17:58:00     -149.110      124.973      -24.926       91.851       82.768       47.243     8436.553     6850.596     2231.896        2.799        0.876      194.556       37.988        0.038      340.169       14.001      862.325
04/05/2014  17:59:00     -161.056       69.660      -31.144       62.852       77.745       43.249     3950.327     6044.300     1870.484        2.181        0.593      175.475       29.117        0.028      340.166       13.997      862.335
04/05/2014  18:00:00     -121.686      -37.719       -8.051       83.081       80.920       45.220     6902.386     6547.976     2044.852        1.589        0.775      127.398       42.497        0.111      340.157       13.982      862.335
04/05/2014  18:01:00     -225.474       48.091      -21.927      149.095       75.612       57.800    22229.323     5717.111     3340.881        4.245        1.564      230.545       57.374        0.062      340.083       13.856      862.341
04/05/2014  18:02:00     -178.895      161.942      -37.992      128.150      112.180       71.358    16422.311    12584.344     5091.969        4.688        1.705      241.306       76.860        0.101      340.080       13.851      862.360
04/05/2014  18:03:00     -261.350        1.290      -39.074      126.342      157.005       58.502    15962.227    24650.607     3422.510        5.692        2.202      261.353       40.417        0.024      340.062       13.819      862.366
04/05/2014  18:04:00     -253.365       68.523      -40.782      120.719      128.167       52.709    14573.071    16426.789     2778.257        5.216        1.689      262.468       43.983        0.028      340.126       13.928      862.395
04/05/2014  18:05:00     -247.435        2.907      -30.075      110.867      131.507       70.182    12291.427    17294.191     4925.462        4.832        1.726      247.452       40.696        0.027      340.236       14.113      862.412
04/05/2014  18:06:00     -244.829       36.138      -21.239      111.346       98.767       49.064    12397.839     9754.895     2407.262        4.312        1.228      247.482       47.549        0.037      340.035       13.774      862.433
04/05/2014  18:07:00     -198.415        5.838      -33.105       57.909       58.124       32.302     3353.467     3378.407     1043.403        2.414        0.389      198.500       28.178        0.020      340.088       13.865      862.436
04/05/2014  18:08:00     -155.184        5.711      -11.784       75.852      106.061       40.663     5753.512    11248.986     1653.498        2.145        0.933      155.289       42.545        0.075      340.146       13.963      862.420
04/05/2014  18:09:00     -224.096      -45.723      -14.750      102.555      117.126       46.143    10517.555    13718.550     2129.193        3.944        1.318      228.713       33.597        0.022      339.969       13.664      862.411
04/05/2014  18:10:00     -183.299      -70.052       -8.800      108.375      106.951       63.923    11745.223    11438.501     4086.142        3.292        1.363      196.229       60.031        0.094      340.044       13.789      862.397
04/05/2014  18:11:00     -206.796       92.902      -43.657      147.193      144.058       71.685    21665.679    20752.640     5138.700        5.042        2.378      226.706       83.683        0.136      340.086       13.862      862.422
04/05/2014  18:12:00     -239.240       45.322      -24.584      102.383      120.755       72.163    10482.341    14581.838     5207.560        4.508        1.514      243.495       60.073        0.061      340.107       13.896      862.452
04/05/2014  18:13:00     -176.739       -9.086      -20.593      128.714       81.908       55.445    16567.289     6708.993     3074.122        2.904        1.318      176.972       54.397        0.094      340.114       13.909      862.463
04/05/2014  18:14:00     -287.941      -49.486      -23.846      161.702       95.595       58.229    26147.431     9138.339     3390.636        6.229        1.934      292.163       66.335        0.052      339.945       13.625      862.471
04/05/2014  18:15:00     -301.180        7.085      -25.795      130.729      127.380       52.300    17090.174    16225.753     2735.303        6.373        1.803      301.263       49.005        0.026      340.038       13.780      862.469
04/05/2014  18:16:00     -272.728      -89.441      -20.430      100.339      103.949       53.523    10067.921    10805.467     2864.729        5.326        1.187      287.020       44.263        0.024      339.986       13.691      862.471
04/05/2014  18:17:00     -304.132      -44.582      -17.254      132.065      101.181       52.858    17441.095    10237.664     2794.009        6.262        1.524      307.382       48.257        0.025      339.929       13.596      862.488
04/05/2014  18:18:00     -156.495      -76.675       -7.115      129.236       89.556       49.756    16701.889     8020.324     2475.662        2.880        1.360      174.269       56.466        0.105      339.845       13.456      862.476
04/05/2014  18:19:00     -184.701     -102.064       -1.431      140.102       82.092       53.180    19628.646     6739.140     2828.079        3.686        1.460      211.025       66.981        0.101      339.931       13.600      862.466
04/05/2014  18:20:00     -205.955     -100.596       -8.146       95.539       64.280       46.159     9127.781     4131.959     2130.684        3.399        0.770      229.209       32.458        0.020      339.870       13.497      862.481
04/05/2014  18:21:00     -242.168      -81.528      -24.739      144.717       95.149       65.584    20943.022     9053.384     4301.317        5.009        1.715      255.523       56.657        0.049      339.967       13.661      862.489
04/05/2014  18:22:00     -362.958     -123.472      -25.381      166.001      129.107       81.946    27556.349    16668.616     6715.159        9.927        2.547      383.385       88.199        0.053      339.823       13.418      862.495
04/05/2014  18:23:00     -217.678      -99.250        2.297      102.742       90.606       51.426    10555.998     8209.487     2644.611        3.932        1.071      239.237       46.280        0.037      339.836       13.439      862.522
04/05/2014  18:24:00     -181.951      -26.088      -10.133      103.574       87.622       47.506    10727.624     7677.590     2256.773        2.727        1.033      183.812       53.624        0.085      339.834       13.437      862.535
04/05/2014  18:25:00     -225.277      -42.287      -17.379      106.739      143.823       56.900    11393.283    20685.079     3237.644        4.407        1.766      229.212       60.853        0.070      339.854       13.471      862.540
04/05/2014  18:26:00     -169.844       52.507      -13.671       91.497      163.748       51.093     8371.733    26813.380     2610.453        3.479        1.890      177.775       48.551        0.075      339.977       13.679      862.549
04/05/2014  18:27:00     -215.677      117.550      -38.383       87.490       74.092       42.532     7654.475     5489.610     1808.982        3.838        0.748      245.631       37.737        0.024      339.860       13.480      862.560
04/05/2014  18:28:00     -120.464      110.722      -26.947       80.962      127.311       44.666     6554.895    16208.114     1995.073        2.612        1.238      163.618       17.645        0.012      339.923       13.588      862.576
04/05/2014  18:29:00     -170.548       -7.515      -11.663       88.915      106.384       46.961     7905.825    11317.573     2205.303        2.535        1.071      170.713       41.666        0.060      340.024       13.756      862.572
04/05/2014  18:30:00     -229.157       38.419      -47.349       88.605      104.429       45.673     7850.829    10905.513     2085.992        3.853        1.042      232.356       36.877        0.025      339.921       13.583      862.594
04/05/2014  18:31:00      -69.514       55.467       19.892       57.459       84.266       41.684     3301.559     7100.810     1737.570        1.022        0.607       88.931       32.438        0.133      339.960       13.651      862.627
04/05/2014  18:32:00      -91.599       26.087      -10.730       55.638       74.756       36.552     3095.541     5588.479     1336.068        0.960        0.501       95.241        9.876        0.011      339.934       13.609      862.651
04/05/2014  18:33:00      -92.295      -32.377       -6.734       53.703       80.343       36.149     2884.059     6454.931     1306.722        1.013        0.532       97.809       27.749        0.080      340.050       13.803      862.662
04/05/2014  18:34:00     -128.762      -32.205       -0.844       93.245       55.476       41.517     8694.551     3077.614     1723.659        1.555        0.675      132.728       41.771        0.099      339.896       13.543      862.682
04/05/2014  18:35:00      -89.391      -44.832        8.071       98.199       71.044       48.097     9643.031     5047.223     2313.361        1.353        0.850      100.004       53.604        0.287      339.852       13.467      862.688
04/05/2014  18:36:00     -179.396       38.700      -23.076       60.564       60.516       31.520     3668.011     3662.197      993.541        2.127        0.416      183.523       15.884        0.007      339.899       13.547      862.695
04/05/2014  18:37:00     -143.548       11.151      -24.925       84.753       94.369       56.977     7183.059     8905.522     3246.427        2.034        0.967      143.981       35.200        0.060      339.856       13.472      862.693
04/05/2014  18:38:00     -134.817       14.757      -10.980       55.386       54.008       39.761     3067.585     2916.871     1580.947        1.304        0.378      135.622       25.190        0.034      339.949       13.633      862.675
04/05/2014  18:39:00     -128.974      -43.342      -19.981       79.947       70.530       48.713     6391.532     4974.475     2372.998        1.632        0.687      136.061       36.159        0.071      340.039       13.784      862.688
04/05/2014  18:40:00     -210.571      -59.491      -26.048       83.824       86.222       42.987     7026.447     7434.223     1847.860        3.243        0.815      218.814       30.640        0.020      339.728       13.259      862.705
04/05/2014  18:41:00     -160.856      -68.892      -12.923       87.471       78.835       42.494     7651.173     6214.887     1805.705        2.323        0.784      174.987       42.414        0.059      339.777       13.342      862.715
04/05/2014  18:42:00      -82.191      -25.061      -10.231       64.677       61.030       31.920     4183.077     3724.610     1018.900        0.821        0.446       85.927       24.505        0.081      339.791       13.366      862.755
04/05/2014  18:43:00     -107.624       24.952       -4.316       61.725       63.477       36.501     3809.955     4029.379     1332.359        1.070        0.459      110.479       37.602        0.116      339.774       13.338      862.772
04/05/2014  18:44:00      -79.057      -16.358        7.857       56.332       58.842       37.639     3173.267     3462.397     1416.697        0.731        0.403       80.731       27.226        0.114      339.762       13.317      862.799
04/05/2014  18:45:00     -100.192      -27.780       -1.814       69.934       62.132       38.247     4890.760     3860.346     1462.860        1.051        0.511      103.972       32.813        0.100      339.747       13.292      862.817
04/05/2014  18:46:00      -92.981        6.222       -7.140       57.509       69.023       39.321     3307.312     4764.144     1546.109        0.917        0.481       93.189       31.160        0.112      339.795       13.372      862.821
04/05/2014  18:47:00     -146.984      -34.857       -2.537       83.508       92.502       55.060     6973.577     8556.687     3031.625        2.069        0.928      151.060       44.351        0.086      339.725       13.255      862.831
04/05/2014  18:48:00      -92.809       87.695      -21.366       59.131       56.036       35.811     3496.455     3140.056     1282.452        1.234        0.396      127.686       31.882        0.062      339.766       13.325      862.837
04/05/2014  18:49:00     -227.354       55.605      -38.525       73.350       65.355       51.658     5380.266     4271.268     2668.548        3.429        0.616      234.055       36.217        0.024      339.667       13.155      862.839
04/05/2014  18:50:00      -94.885       21.053      -10.017       70.520       75.876       45.620     4973.038     5757.153     2081.156        1.118        0.641       97.193       48.801        0.252      339.769       13.329      862.844
04/05/2014  18:51:00      -98.826       27.376       10.362       70.894       71.665       54.594     5025.997     5135.847     2980.542        1.188        0.657      102.548       35.038        0.117      339.721       13.248      862.849
04/05/2014  18:52:00     -111.055      177.427      -21.213       78.141       76.815       49.687     6106.028     5900.585     2468.781        2.937        0.724      209.317       49.195        0.055      339.651       13.129      862.880
04/05/2014  18:53:00     -152.283      163.636      -33.698       69.493      100.132       51.594     4829.273    10026.433     2661.896        3.431        0.876      223.533       49.505        0.049      339.649       13.125      862.900
04/05/2014  18:54:00     -133.855      171.580      -22.388       85.226       92.069       48.894     7263.481     8476.702     2390.628        3.299        0.907      217.616       48.772        0.050      339.652       13.130      862.917
04/05/2014  18:55:00     -219.312      212.277      -42.307       96.881      103.171       49.601     9385.998    10644.248     2460.299        5.872        1.125      305.220       42.722        0.020      339.681       13.178      862.938
04/05/2014  18:56:00     -185.588      214.848      -43.776       91.528       77.966       44.638     8377.374     6078.694     1992.550        4.948        0.822      283.906       45.875        0.026      339.585       13.017      862.944
04/05/2014  18:57:00      -96.452      154.493      -25.975       85.805      132.892       52.643     7362.529    17660.227     2771.298        3.081        1.390      182.129       38.598        0.045      339.678       13.173      862.950
04/05/2014  18:58:00      -94.196      311.682      -37.887       82.005      106.411       62.727     6724.807    11323.381     3934.714        6.471        1.099      325.605       68.242        0.044      339.556       12.967      862.973
04/05/2014  18:59:00      -88.952      217.825      -34.768       59.675       70.718       31.904     3561.102     5000.968     1017.847        3.307        0.479      235.287       25.878        0.012      339.565       12.983      862.977
04/05/2014  19:00:00      -52.005      194.677      -22.916       65.810       88.522       44.934     4330.974     7836.136     2019.022        2.765        0.709      201.503       42.118        0.044      339.557       12.968      862.973
04/05/2014  19:01:00      -88.152      170.558      -23.874       64.313       56.672       39.033     4136.174     3211.673     1523.597        2.315        0.444      191.992       29.790        0.024      339.598       13.038      862.968
04/05/2014  19:02:00      -85.898      207.836      -26.284       52.407       76.267       36.095     2746.448     5816.667     1302.848        3.056        0.493      224.888       35.725        0.025      339.617       13.069      862.983
04/05/2014  19:03:00      -86.864       97.014      -17.621       50.608       45.829       26.050     2561.193     2100.339      678.597        1.130        0.267      130.219       20.919        0.026      339.695       13.205      863.005
04/05/2014  19:04:00     -147.063      224.531      -29.701       70.739      115.305       52.772     5003.943    13295.149     2784.927        4.700        1.054      268.406       52.985        0.039      339.556       12.967      863.019
04/05/2014  19:05:00     -108.304      240.284      -27.332       79.350      145.567       59.731     6296.358    21189.839     3567.749        5.063        1.553      263.565       72.478        0.076      339.512       12.892      863.025
04/05/2014  19:06:00     -134.306      262.332      -26.867       88.014      101.902       70.710     7746.415    10384.093     4999.895        5.535        1.157      294.714       62.354        0.045      339.479       12.837      863.030
04/05/2014  19:07:00     -135.695      247.124      -36.066       71.558       99.703       51.553     5120.565     9940.632     2657.718        4.925        0.886      281.928       57.946        0.042      339.439       12.770      863.045
04/05/2014  19:08:00     -155.912      298.681      -44.249       77.460      155.603       53.947     5999.990    24212.179     2910.240        7.429        1.656      336.926       69.872        0.043      339.403       12.709      863.047
04/05/2014  19:09:00      -87.302      221.689      -40.860       51.797       84.408       33.932     2682.962     7124.677     1151.408        3.470        0.548      238.260       36.405        0.023      339.445       12.780      863.038
04/05/2014  19:10:00      -73.010      206.520      -16.206       52.642       99.416       51.580     2771.228     9883.565     2660.470        3.178        0.766      219.045       48.349        0.049      339.513       12.895      863.045
04/05/2014  19:11:00     -108.610       75.842      -14.994       70.632       57.907       37.701     4988.838     3353.254     1421.365        1.377        0.488      132.469       37.233        0.079      339.539       12.940      863.046
04/05/2014  19:12:00     -137.207      143.519      -25.999       69.164       75.447       42.672     4783.599     5692.318     1820.860        2.620        0.615      198.553       32.155        0.026      339.482       12.842      863.049
04/05/2014  19:13:00      -90.597       90.794      -16.092       65.689       64.700       31.215     4315.081     4186.052      974.381        1.309        0.474      128.262       25.494        0.040      339.545       12.951      863.045
04/05/2014  19:14:00     -114.942      198.837      -29.659       80.787      107.404       44.623     6526.606    11535.612     1991.223        3.684        1.003      229.668       56.049        0.060      339.441       12.772      863.048
04/05/2014  19:15:00      -87.619      123.382       -3.906       71.045       73.145       46.263     5047.374     5350.188     2140.253        1.772        0.627      151.328       42.818        0.080      339.479       12.840      863.046
04/05/2014  19:16:00     -111.943      293.886      -52.666       64.942      135.340       48.113     4217.510    18316.945     2314.876        6.326        1.242      314.483       61.152        0.038      339.390       12.687      863.043
04/05/2014  19:17:00      -60.138      139.326       -9.351       73.193       87.187       43.733     5357.204     7601.521     1912.603        1.899        0.744      151.751       41.820        0.076      339.417       12.735      863.036
04/05/2014  19:18:00     -156.751      124.544      -20.079       61.486       82.445       43.439     3780.539     6797.221     1886.973        2.647        0.623      200.205       39.510        0.039      339.392       12.691      863.063
04/05/2014  19:19:00      -97.322      125.755      -36.734       58.730       50.060       33.724     3449.229     2505.995     1137.298        1.686        0.355      159.015       21.616        0.018      339.381       12.674      863.075
04/05/2014  19:20:00     -125.006      103.954      -35.710       68.468      114.056       45.870     4687.904    13008.667     2104.036        2.375        0.990      162.582       61.968        0.145      339.438       12.771      863.081
04/05/2014  19:21:00     -104.412       68.950      -18.251       57.699       69.197       30.868     3329.167     4788.239      952.863        1.253        0.454      125.124       34.469        0.076      339.365       12.647      863.092
04/05/2014  19:22:00     -129.955       29.643      -17.427       47.972       51.437       31.192     2301.271     2645.764      972.956        1.199        0.296      133.293       21.218        0.025      339.291       12.524      863.107
04/05/2014  19:23:00     -104.055       -9.269      -27.041       56.585       46.608       41.518     3201.846     2172.291     1723.729        0.937        0.355      104.467       35.413        0.115      339.234       12.427      863.122
04/05/2014  19:24:00     -132.919       -8.378      -20.599       53.625       66.932       33.378     2875.639     4479.885     1114.124        1.331        0.423      133.183       21.133        0.025      339.214       12.392      863.137
04/05/2014  19:25:00     -123.978       33.836      -24.188       61.025       46.325       20.915     3724.095     2145.992      437.440        1.170        0.315      128.513       17.330        0.018      339.050       12.118      863.144
04/05/2014  19:26:00      -75.324       45.809        0.281       33.930       69.528       30.160     1151.219     4834.209      909.609        0.733        0.345       88.160       22.149        0.063      339.091       12.188      863.153
04/05/2014  19:27:00     -123.516      -10.000      -13.449       43.752       33.246       28.884     1914.222     1105.324      834.293        0.969        0.193      123.920       24.216        0.038      339.036       12.093      863.142
04/05/2014  19:28:00      -42.711      -35.921        3.378       58.698       47.264       30.205     3445.489     2233.901      912.369        0.486        0.330       55.809       30.380        0.296      339.033       12.090      863.133
04/05/2014  19:29:00     -100.952       30.229       -9.599       52.951       48.351       31.133     2803.797     2337.854      969.289        0.865        0.306      105.381       23.785        0.051      338.984       12.007      863.128
04/05/2014  19:30:00     -101.434      -14.738      -14.554       56.231       32.155       32.885     3161.882     1033.958     1081.443        0.800        0.264      102.499       25.216        0.061      338.934       11.921      863.120
04/05/2014  19:31:00      -44.571       -4.884        6.235       43.507       36.498       25.644     1892.852     1332.095      657.590        0.297        0.194       44.837       23.197        0.268      338.919       11.898      863.115
04/05/2014  19:32:00      -87.161       -6.163        3.637       54.734       25.088       29.317     2995.817      629.396      859.511        0.607        0.224       87.378       29.545        0.114      338.890       11.848      863.104
04/05/2014  19:33:00      -45.829       -2.403       -0.109       46.904       47.017       29.404     2199.962     2210.571      864.621        0.369        0.264       45.892       27.286        0.354      338.951       11.950      863.093
04/05/2014  19:34:00      -92.203      -16.634      -19.970       60.921       37.347       29.901     3711.336     1394.800      894.091        0.759        0.300       93.692       19.909        0.045      338.906       11.875      863.074
04/05/2014  19:35:00      -95.919       21.108       -8.671       82.652       59.375       38.746     6831.379     3525.407     1501.246        1.079        0.593       98.214       45.934        0.219      338.976       11.993      863.086
04/05/2014  19:36:00     -132.132        6.558       -8.002       82.477       71.774       36.241     6802.396     5151.481     1313.384        1.541        0.663      132.294       27.876        0.044      338.982       12.003      863.083
04/05/2014  19:37:00      -92.563        5.541      -11.978       57.459       44.423       41.212     3301.574     1973.424     1698.451        0.786        0.349       92.728       41.884        0.204      339.006       12.043      863.094
04/05/2014  19:38:00     -106.090       11.140      -11.361       48.655       48.020       32.502     2367.340     2305.925     1056.402        0.862        0.286      106.673       28.589        0.072      338.914       11.889      863.102
04/05/2014  19:39:00     -121.127      -15.667       -9.213       47.566       58.984       25.323     2262.569     3479.074      641.232        1.069        0.319      122.136       15.537        0.016      338.889       11.848      863.108
04/05/2014  19:40:00      -51.409        7.731        2.751       39.556       33.020       25.162     1564.707     1090.324      633.141        0.300        0.164       51.987       17.617        0.115      338.833       11.754      863.128
04/05/2014  19:41:00     -110.693       41.201      -20.757       35.284       35.916       21.112     1244.979     1289.954      445.723        0.868        0.149      118.112       18.037        0.023      338.847       11.775      863.135
04/05/2014  19:42:00     -136.266       28.083      -14.443       33.030       45.625       25.854     1091.005     2081.637      668.425        1.170        0.192      139.129       22.118        0.025      338.834       11.756      863.156
04/05/2014  19:43:00      -66.545       16.644       -0.606       64.403       41.920       30.344     4147.766     1757.249      920.761        0.576        0.341       68.595       23.328        0.116      338.706       11.540      863.176
04/05/2014  19:44:00      -75.004        3.356      -13.583       45.403       49.570       25.757     2061.434     2457.203      663.446        0.550        0.259       75.079       24.611        0.107      338.877       11.827      863.192
04/05/2014  19:45:00      -75.236        8.547       -8.128       55.260       47.505       31.290     3053.613     2256.684      979.080        0.604        0.314       75.720       28.279        0.139      338.731       11.580      863.215
04/05/2014  19:46:00      -39.530       -0.931        4.954       39.471       30.296       23.676     1557.976      917.854      560.554        0.231        0.152       39.541       20.419        0.267      338.721       11.566      863.232
04/05/2014  19:47:00      -97.546       54.581        0.572       39.738       58.977       32.140     1579.112     3478.259     1032.981        0.929        0.305      111.778       25.509        0.052      338.772       11.650      863.255
04/05/2014  19:48:00      -90.220       21.206      -17.289       52.826       64.836       28.641     2790.582     4203.709      820.286        0.835        0.391       92.679       26.620        0.082      338.722       11.565      863.266
04/05/2014  19:49:00      -81.566      -10.269       -3.250       48.198       49.210       24.677     2323.080     2421.665      608.967        0.606        0.268       82.210       22.781        0.077      338.679       11.494      863.280
04/05/2014  19:50:00      -88.741       -1.964      -10.710       57.296       67.986       29.789     3282.780     4622.154      887.412        0.839        0.440       88.763       19.941        0.050      338.607       11.373      863.297
04/05/2014  19:51:00     -104.066       -2.614       -5.782       49.294       53.759       36.825     2429.945     2889.978     1356.093        0.877        0.334      104.099       30.324        0.085      338.580       11.329      863.306
04/05/2014  19:52:00     -110.507      -27.240       -3.746       42.818       38.232       22.987     1833.367     1461.670      528.424        0.839        0.191      113.815       17.957        0.025      338.558       11.291      863.305
04/05/2014  19:53:00     -114.997        9.899      -11.542       46.333       56.575       29.504     2146.708     3200.740      870.499        0.984        0.311      115.422       11.257        0.010      338.593       11.348      863.310
04/05/2014  19:54:00     -102.853       41.862      -10.719       47.069       41.001       27.527     2215.487     1681.053      757.747        0.855        0.233      111.046       24.703        0.049      338.592       11.350      863.307
04/05/2014  19:55:00     -130.329       31.936      -23.613       43.200       53.473       36.765     1866.214     2859.388     1351.646        1.232        0.304      134.185       15.402        0.013      338.586       11.339      863.316
04/05/2014  19:56:00     -113.280      -40.032       -7.113       59.638       38.278       42.976     3556.707     1465.170     1846.901        1.068        0.343      120.146       41.433        0.119      338.476       11.153      863.328
04/05/2014  19:57:00      -86.373      -47.093      -18.478       40.898       38.697       29.841     1672.674     1497.474      890.456        0.704        0.203       98.377       21.630        0.048      338.434       11.083      863.351
04/05/2014  19:58:00     -160.760       57.586      -27.630       72.703       65.544       32.375     5285.663     4295.969     1048.151        2.027        0.531      170.763       26.393        0.024      338.500       11.192      863.377
04/05/2014  19:59:00     -128.338       63.532      -14.651       42.688       44.799       27.478     1822.242     2006.959      755.014        1.265        0.229      143.203       18.321        0.016      338.572       11.314      863.404
04/05/2014  20:00:00     -105.595       28.271      -15.868       44.176       49.714       35.599     1951.552     2471.451     1267.306        0.894        0.285      109.314       24.994        0.052      338.582       11.332      863.424
04/05/2014  20:01:00      -92.053       45.154       -0.898       44.141       65.544       32.814     1948.459     4295.962     1076.728        0.892        0.366      102.531       25.805        0.063      338.659       11.460      863.432
04/05/2014  20:02:00      -64.275        3.853       -3.726       44.643       50.627       40.727     1992.957     2563.108     1658.702        0.519        0.311       64.390       13.963        0.047      338.616       11.389      863.453
04/05/2014  20:03:00      -76.954       39.212       -4.301       72.487       45.003       30.500     5254.417     2025.227      930.244        0.784        0.410       86.368       30.583        0.125      338.612       11.381      863.471
04/05/2014  20:04:00      -87.289       29.576       -0.796       68.451       47.575       29.389     4685.596     2263.423      863.719        0.815        0.391       92.163       34.502        0.140      338.619       11.395      863.499
04/05/2014  20:05:00      -84.091       69.693       -7.225       49.146       60.720       34.072     2415.307     3686.902     1160.882        0.962        0.363      109.217       28.011        0.066      338.670       11.480      863.520
04/05/2014  20:06:00      -87.181       63.477       -8.504       40.075       60.297       36.231     1606.039     3635.764     1312.655        0.913        0.328      107.842       30.314        0.079      338.698       11.525      863.532
04/05/2014  20:07:00      -57.897       67.565       -6.841       30.090       50.360       28.719      905.393     2536.120      824.802        0.611        0.213       88.978       20.906        0.055      338.638       11.426      863.551
04/05/2014  20:08:00      -87.439      131.379      -17.468       42.703       74.903       36.710     1823.559     5610.386     1347.612        1.699        0.439      157.817       41.354        0.069      338.693       11.517      863.570
04/05/2014  20:09:00     -100.585       65.886      -17.923       55.792       37.868       24.171     3112.752     1433.992      584.216        0.995        0.257      120.242       15.948        0.018      338.645       11.437      863.579
04/05/2014  20:10:00      -63.910       12.340       -7.970       45.011       33.473       22.406     2026.033     1120.436      502.040        0.397        0.182       65.091       20.682        0.101      338.702       11.533      863.594
04/05/2014  20:11:00      -89.520       52.958       -7.079       40.288       42.498       27.006     1623.150     1806.063      729.343        0.751        0.208      104.011       21.972        0.045      338.908       11.880      863.601
04/05/2014  20:12:00      -58.815       21.776       -4.523       50.628       52.242       27.441     2563.181     2729.271      752.990        0.500        0.302       62.717       27.028        0.186      338.747       11.609      863.617
04/05/2014  20:13:00     -105.158       55.402      -16.048       56.412       56.512       31.116     3182.296     3193.573      968.180        1.086        0.367      118.860       31.043        0.068      338.710       11.545      863.630
04/05/2014  20:14:00      -97.923       77.338       -7.220       37.607       69.442       32.374     1414.255     4822.143     1048.063        1.145        0.364      124.780       24.342        0.038      338.682       11.499      863.645
04/05/2014  20:15:00      -43.802       26.482       -6.384       34.885       46.432       27.986     1216.956     2155.969      783.230        0.341        0.208       51.185       15.339        0.090      338.671       11.479      863.668
04/05/2014  20:16:00      -66.991       46.508      -16.767       38.395       72.968       19.844     1474.156     5324.372      393.791        0.706        0.360       81.552       22.980        0.079      338.613       11.384      863.685
04/05/2014  20:17:00      -86.823       79.832      -10.214       43.401       39.039       31.963     1883.676     1524.022     1021.626        0.922        0.221      117.946       28.576        0.059      338.647       11.441      863.708
04/05/2014  20:18:00      -95.572       94.887      -18.240       39.272       40.730       29.213     1542.302     1658.922      853.389        1.126        0.203      134.676       21.426        0.025      338.643       11.434      863.720
04/05/2014  20:19:00      -80.653       86.610      -21.689       28.590       27.596       17.260      817.401      761.522      297.896        0.818        0.094      118.348       14.662        0.015      338.639       11.426      863.726
04/05/2014  20:20:00      -80.953       64.975      -13.795       30.406       39.524       22.647      924.545     1562.121      512.870        0.698        0.150      103.803       16.983        0.027      338.694       11.520      863.737
04/05/2014  20:21:00      -88.256      117.508      -21.246       43.878       45.989       27.500     1925.269     2115.022      756.249        1.342        0.240      146.960       31.075        0.045      338.594       11.352      863.738
04/05/2014  20:22:00     -102.218       76.173      -21.183       32.215       36.302       18.980     1037.797     1317.803      360.228        0.971        0.136      127.479       14.841        0.014      338.615       11.386      863.751
04/05/2014  20:23:00      -80.371      102.926      -23.526       21.249       35.567       19.934      451.516     1265.036      397.371        0.986        0.106      130.588       13.491        0.011      338.588       11.341      863.765
04/05/2014  20:24:00      -83.187      125.041      -20.747       25.201       47.515       21.874      635.101     2257.671      478.456        1.318        0.169      150.184       20.130        0.018      338.541       11.263      863.769
04/05/2014  20:25:00      -69.377       50.000       -4.845       35.191       35.969       20.295     1238.441     1293.771      411.887        0.514        0.147       85.517       14.061        0.027      338.638       11.425      863.782
04/05/2014  20:26:00      -44.702       27.993       -1.162       27.279       31.175       26.437      744.163      971.864      698.917        0.260        0.121       52.744       24.630        0.218      338.583       11.333      863.787
04/05/2014  20:27:00      -66.943       79.167      -12.463       27.698       30.449       21.011      767.193      927.132      441.481        0.652        0.107      103.676       17.604        0.029      338.572       11.315      863.797
04/05/2014  20:28:00      -70.546      124.075      -21.699       41.250       42.808       28.432     1701.547     1832.554      808.384        1.259        0.217      142.728       30.040        0.044      338.582       11.332      863.825
04/05/2014  20:29:00      -91.276       62.983      -12.547       23.844       30.224       24.573      568.546      913.504      603.840        0.727        0.104      110.897       17.678        0.025      338.732       11.583      863.853
04/05/2014  20:30:00      -78.946       42.360      -10.342       34.430       46.718       21.189     1185.456     2182.564      448.970        0.597        0.191       89.593       21.440        0.057      338.674       11.485      863.877
04/05/2014  20:31:00      -81.378       65.357      -14.886       33.826       30.363       25.090     1144.226      921.901      629.504        0.691        0.135      104.374       14.680        0.020      338.566       11.305      863.896
04/05/2014  20:32:00      -71.738       13.987      -10.937       31.595       51.901       21.694      998.256     2693.670      470.649        0.481        0.208       73.089       18.127        0.062      338.675       11.489      863.911
04/05/2014  20:33:00      -12.925       -7.970       15.370       34.242       23.913       21.113     1172.492      571.843      445.759        0.133        0.110       15.185       23.216        2.338      338.409       11.041      863.913
04/05/2014  20:34:00      -57.364      -18.152        1.212       39.648       45.543       25.664     1571.991     2074.205      658.666        0.396        0.215       60.167       13.386        0.049      338.451       11.111      863.922
04/05/2014  20:35:00     -103.388      -10.284       -6.854       36.411       35.995       22.755     1325.753     1295.623      517.805        0.699        0.157      103.898       17.933        0.030      338.497       11.188      863.944
04/05/2014  20:36:00      -72.764       -4.777       -0.291       33.867       27.378       15.179     1146.970      749.559      230.401        0.372        0.106       72.920        2.925        0.002      338.273       10.813      863.949
04/05/2014  20:37:00      -72.768       -6.434       -6.879       24.896       22.996       20.082      619.791      528.827      403.277        0.347        0.078       73.052        6.805        0.009      338.613       11.383      863.956
04/05/2014  20:38:00      -43.263      -35.070       -3.080       41.307       39.316       25.685     1706.235     1545.746      659.705        0.351        0.196       55.692       29.935        0.289      338.313       10.878      863.976
04/05/2014  20:39:00      -58.936       53.555      -13.250       25.479       42.970       21.859      649.159     1846.447      477.799        0.474        0.149       79.634       14.264        0.032      338.407       11.038      863.999
04/05/2014  20:40:00      -47.727       -9.670        2.553       39.062       31.218       26.288     1525.850      974.550      691.080        0.278        0.160       48.697        8.489        0.030      338.405       11.033      864.007
04/05/2014  20:41:00      -37.832        8.963       -1.471       37.763       24.656       31.635     1426.058      607.928     1000.794        0.227        0.152       38.880       29.507        0.576      338.358       10.955      864.012
04/05/2014  20:42:00      -65.329        9.386       -8.123       37.304       42.117       17.309     1391.600     1773.819      299.605        0.394        0.173       66.000       19.644        0.089      338.281       10.826      864.021
04/05/2014  20:43:00      -46.996       21.371       -8.367       38.310       34.973       22.733     1467.644     1223.117      516.795        0.297        0.160       51.627       10.838        0.044      338.334       10.916      864.031
04/05/2014  20:44:00      -58.909        6.796        0.656       36.051       30.679       21.205     1299.696      941.218      449.635        0.310        0.135       59.300       14.332        0.058      338.277       10.819      864.035
04/05/2014  20:45:00      -62.156       22.049       -5.672       25.285       32.464       25.845      639.323     1053.943      667.938        0.337        0.118       65.951       14.212        0.046      338.267       10.800      864.035
04/05/2014  20:46:00      -46.872        5.697       -0.870       34.179       30.378       29.300     1168.185      922.846      858.495        0.259        0.147       47.217       21.012        0.198      338.365       10.968      864.044
04/05/2014  20:47:00      -60.858        2.833       -3.199       27.230       55.917       17.377      741.489     3126.682      301.949        0.395        0.209       60.924       14.458        0.056      338.362       10.962      864.050
04/05/2014  20:48:00      -22.918      -20.275       12.026       42.782       25.751       21.882     1830.338      663.129      478.834        0.203        0.149       30.599       26.870        0.771      338.216       10.716      864.046
04/05/2014  20:49:00      -57.609       10.233      -11.818       33.551       40.022       17.790     1125.694     1601.762      316.479        0.330        0.152       58.511       21.618        0.137      338.246       10.768      864.053
04/05/2014  20:50:00      -97.886        2.227      -10.537       29.164       49.004       20.204      850.565     2401.381      408.210        0.668        0.183       97.912       10.448        0.011      338.212       10.710      864.058
04/05/2014  20:51:00      -56.539      -10.790       11.217       43.531       27.547       20.291     1894.983      758.853      411.721        0.325        0.153       57.560       17.909        0.097      338.275       10.816      864.069
04/05/2014  20:52:00      -57.400        7.993       -8.206       40.957       49.845       19.790     1677.462     2484.512      391.647        0.399        0.228       57.953       21.784        0.141      338.258       10.787      864.081
04/05/2014  20:53:00      -83.025      -16.105       -5.255       55.095       38.084       26.848     3035.497     1450.362      720.839        0.619        0.260       84.572       22.102        0.068      338.179       10.654      864.089
04/05/2014  20:54:00      -64.849      -14.568       -4.747       30.575       36.940       19.282      934.834     1364.542      371.786        0.356        0.134       66.465       13.395        0.041      338.297       10.854      864.092
04/05/2014  20:55:00     -115.089       -7.536       -9.784       44.355       48.180       25.960     1967.385     2321.345      673.937        0.918        0.248      115.335       20.160        0.031      338.209       10.704      864.094
04/05/2014  20:56:00      -89.166      -21.998       -6.240       37.102       58.511       30.576     1376.577     3423.581      934.884        0.710        0.287       91.840       18.161        0.039      338.164       10.629      864.080
04/05/2014  20:57:00      -62.570      -35.286       -6.716       36.664       28.540       16.921     1344.281      814.520      286.305        0.382        0.122       71.834       11.096        0.024      338.145       10.597      864.087
04/05/2014  20:58:00      -53.511      -25.878        4.499       35.887       38.986       26.588     1287.873     1519.917      706.933        0.353        0.176       59.440       15.548        0.068      338.158       10.621      864.068
04/05/2014  20:59:00      -74.985      -38.238      -11.387       38.856       31.690       23.976     1509.805     1004.278      574.855        0.515        0.154       84.172        8.295        0.010      338.159       10.621      864.059
04/05/2014  21:00:00     -141.470      -21.716      -12.358       59.948       40.422       30.320     3593.766     1633.963      919.322        1.339        0.307      143.127       26.965        0.035      338.128       10.568      864.060
04/05/2014  21:01:00      -33.675      -23.220        1.423       42.942       50.628       17.748     1844.004     2563.222      314.980        0.320        0.236       40.905       17.360        0.180      338.033       10.410      864.059
04/05/2014  21:02:00      -57.604      -22.437       13.759       58.684       60.260       20.897     3443.839     3631.299      436.705        0.576        0.376       61.820       23.939        0.150      338.080       10.489      864.073
04/05/2014  21:03:00     -102.724      -67.178       -8.600       51.589       50.223       30.131     2661.384     2522.336      907.850        1.061        0.305      122.740       22.711        0.034      338.028       10.402      864.092
04/05/2014  21:04:00      -43.442      -15.058        4.728       42.157       31.021       28.420     1777.181      962.287      807.682        0.284        0.177       45.977       22.680        0.243      337.948       10.267      864.103
04/05/2014  21:05:00      -73.192       40.763      -16.546       52.754       47.754       40.686     2782.950     2280.439     1655.348        0.700        0.336       83.777       22.687        0.073      338.085       10.497      864.106
04/05/2014  21:06:00     -103.583       23.180      -11.734       52.012       59.274       30.490     2705.278     3513.463      929.628        0.927        0.357      106.145       27.570        0.067      338.079       10.488      864.119
04/05/2014  21:07:00      -95.943       19.948       -6.530       43.528       49.280       31.022     1894.708     2428.479      962.355        0.746        0.264       97.995       27.378        0.078      338.113       10.543      864.144
04/05/2014  21:08:00     -109.386      -33.324      -15.992       71.024       78.707       34.759     5044.448     6194.816     1208.182        1.289        0.622      114.349       22.051        0.037      338.023       10.391      864.165
04/05/2014  21:09:00     -132.203       22.078      -17.759       66.917       76.972       38.559     4477.844     5924.724     1486.789        1.508        0.594      134.034       34.469        0.066      338.104       10.529      864.171
04/05/2014  21:10:00      -87.814        6.669      -20.393       50.761       42.814       29.003     2576.643     1833.068      841.171        0.671        0.263       88.067       23.659        0.072      338.187       10.668      864.177
04/05/2014  21:11:00     -101.118      -27.198       -7.675       57.480       60.362       33.563     3303.912     3643.546     1126.450        0.955        0.404      104.712       19.900        0.036      338.111       10.539      864.198
04/05/2014  21:12:00      -83.952      -13.014       -3.807       74.291       42.343       36.482     5519.125     1792.902     1330.952        0.794        0.432       84.955       39.834        0.220      338.035       10.414      864.217
04/05/2014  21:13:00      -58.984       36.774        1.143       55.275       51.216       37.527     3055.358     2623.041     1408.289        0.596        0.354       69.509       27.095        0.152      338.175       10.648      864.242
04/05/2014  21:14:00      -81.921       40.852        9.591       50.004       41.071       37.298     2500.352     1686.790     1391.138        0.702        0.279       91.542       24.100        0.069      338.226       10.733      864.249
04/05/2014  21:15:00     -134.428       19.809      -17.439       66.444       63.549       36.053     4414.814     4038.532     1299.853        1.426        0.488      135.880       31.011        0.052      338.235       10.748      864.259
04/05/2014  21:16:00     -101.567       -1.700       -3.327       63.325       53.470       42.328     4010.098     2859.065     1791.682        0.949        0.433      101.581       37.499        0.136      338.096       10.515      864.265
04/05/2014  21:17:00     -125.526       47.686      -11.165       73.826       84.520       48.330     5450.315     7143.620     2335.754        1.654        0.746      134.278       51.019        0.144      338.202       10.692      864.282
04/05/2014  21:18:00     -160.501       24.010      -23.718       73.664       57.444       41.911     5426.455     3299.825     1756.552        1.869        0.524      162.287       42.397        0.068      338.243       10.760      864.290
04/05/2014  21:19:00      -86.085       25.221      -16.953       40.557       50.333       30.778     1644.899     2533.421      947.312        0.673        0.256       89.703       18.659        0.043      338.278       10.820      864.286
04/05/2014  21:20:00      -89.577       33.711      -12.446       72.820       49.216       34.218     5302.765     2422.180     1170.853        0.910        0.445       95.710       36.527        0.146      338.297       10.852      864.306
04/05/2014  21:21:00     -139.510       53.105       -7.206      100.433       60.980       41.530    10086.836     3718.530     1724.701        1.893        0.777      149.276       42.540        0.081      338.302       10.858      864.313
04/05/2014  21:22:00     -104.663       84.436       -8.131       59.245       83.864       31.762     3509.984     7033.129     1008.802        1.485        0.578      134.476       27.872        0.043      338.289       10.840      864.313
04/05/2014  21:23:00      -62.491       11.214        4.585       48.163       80.243       33.074     2319.716     6438.997     1093.906        0.695        0.493       63.489       27.010        0.181      338.247       10.768      864.306
04/05/2014  21:24:00      -78.650       61.454       -7.715       47.410       82.005       33.167     2247.716     6724.780     1100.028        1.005        0.504       99.812       30.984        0.096      338.357       10.953      864.314
04/05/2014  21:25:00      -87.728       73.036        4.028       82.892       57.238       40.513     6871.043     3276.202     1641.327        1.242        0.589      114.151       42.572        0.139      338.325       10.899      864.328
04/05/2014  21:26:00      -89.345       75.606       -9.355       61.191       43.316       34.327     3744.377     1876.301     1178.366        1.029        0.340      117.042       27.540        0.055      338.361       10.959      864.338
04/05/2014  21:27:00     -129.271      116.105      -19.906       70.590       71.595       40.369     4982.972     5125.896     1629.660        2.116        0.587      173.757       40.709        0.055      338.426       11.068      864.342
04/05/2014  21:28:00     -108.594      120.406      -13.964       49.621       46.574       37.288     2462.221     2169.153     1390.359        1.625        0.301      162.142       24.621        0.023      338.314       10.880      864.352
04/05/2014  21:29:00     -150.961      130.621      -40.037       51.786       59.611       25.021     2681.800     3553.494      626.044        2.416        0.343      199.627       19.860        0.010      338.425       11.066      864.371
04/05/2014  21:30:00      -85.716      140.139      -27.482       53.564       43.673       20.880     2869.053     1907.364      435.982        1.648        0.261      164.275       19.965        0.015      338.411       11.045      864.375
04/05/2014  21:31:00      -77.014       95.979       -9.128       45.115       49.965       30.253     2035.349     2496.487      915.244        1.034        0.272      123.058       25.737        0.044      338.517       11.222      864.373
04/05/2014  21:32:00      -64.971       56.244       -7.531       48.730       52.715       24.321     2374.585     2778.850      591.531        0.659        0.287       85.934       17.318        0.041      338.483       11.164      864.381
04/05/2014  21:33:00        4.186       93.199      -15.879       37.251       32.933       25.677     1387.602     1084.563      659.331        0.604        0.157       93.293       23.540        0.064      338.164       10.629      864.378
04/05/2014  21:34:00       16.692      181.674      -34.117       26.492       26.544       12.798      701.850      704.588      163.786        1.801        0.079      182.439       11.392        0.004      337.824       10.058      864.375
04/05/2014  21:35:00      -26.128      128.103      -28.871       60.518       35.849       19.763     3662.468     1285.179      390.589        1.163        0.267      130.741       18.205        0.019      338.042       10.425      864.375
04/05/2014  21:36:00      -31.098       82.559      -11.376       41.863       48.440       26.806     1752.494     2346.401      718.579        0.636        0.241       88.222       28.035        0.101      337.964       10.293      864.387
04/05/2014  21:37:00      -32.725      134.947      -27.731       40.307       43.726       21.648     1624.651     1911.966      468.625        1.203        0.200      138.858       16.999        0.015      337.882       10.156      864.393
04/05/2014  21:38:00      -17.106      154.977      -32.335       40.349       36.467       17.794     1628.029     1329.816      316.637        1.431        0.164      155.918       18.623        0.014      337.880       10.153      864.396
04/05/2014  21:39:00      -23.900      160.294      -30.939       23.892       35.746       16.779      570.809     1277.812      281.540        1.468        0.107      162.066       13.726        0.007      337.909       10.201      864.402
04/05/2014  21:40:00      -39.372       89.028      -17.138       30.637       47.434       19.324      938.625     2250.030      373.422        0.667        0.178       97.346       12.525        0.017      338.082       10.492      864.410
04/05/2014  21:41:00      -26.783      124.052      -24.376       28.195       61.979       17.551      794.931     3841.342      308.031        1.082        0.247      126.910       23.160        0.033      337.997       10.350      864.422
04/05/2014  21:42:00       -8.684      145.697      -26.918       25.994       27.663       11.599      675.692      765.232      134.540        1.180        0.079      145.956        7.308        0.003      337.957       10.282      864.431
04/05/2014  21:43:00      -29.788      176.382      -30.343       23.541       28.510       12.550      554.188      812.817      157.508        1.722        0.076      178.879        9.938        0.003      337.902       10.189      864.443
04/05/2014  21:44:00      -31.982      163.276      -27.148       17.924       24.365       14.423      321.268      593.674      208.028        1.477        0.056      166.379       11.335        0.005      337.904       10.194      864.451
04/05/2014  21:45:00      -15.854      168.137      -28.523       36.839       34.071       19.878     1357.144     1160.810      395.119        1.612        0.146      168.883       19.541        0.013      337.914       10.209      864.479
04/05/2014  21:46:00      -30.923      178.545      -33.039       23.016       35.010       15.158      529.757     1225.685      229.777        1.796        0.099      181.203       12.639        0.005      337.859       10.117      864.501
04/05/2014  21:47:00      -22.393      166.056      -27.311       30.821       36.345       17.881      949.939     1320.926      319.727        1.571        0.130      167.559       17.620        0.011      337.848       10.099      864.516
04/05/2014  21:48:00      -24.318      192.979      -28.099       35.785       38.227       21.898     1280.593     1461.272      479.515        2.092        0.161      194.505       20.307        0.011      337.884       10.158      864.527
04/05/2014  21:49:00      -32.542      178.936      -29.827       26.985       57.572       23.058      728.164     3314.591      531.661        1.927        0.229      181.871       25.339        0.019      337.891       10.171      864.528
04/05/2014  21:50:00      -33.677       82.236       -0.396       32.007       52.863       27.310     1024.457     2794.459      745.813        0.623        0.228       88.865       23.287        0.069      338.025       10.397      864.544
04/05/2014  21:51:00      -49.079       86.428       -8.760       45.307       35.093       22.533     2052.758     1231.490      507.749        0.687        0.190       99.391       15.597        0.025      337.985       10.330      864.550
04/05/2014  21:52:00      -46.630       58.167       -2.745       37.154       32.637       31.394     1380.424     1065.192      985.576        0.450        0.172       74.550       28.042        0.141      338.078       10.485      864.548
04/05/2014  21:53:00      -21.500       74.533      -11.860       21.295       40.083       20.561      453.474     1606.656      422.743        0.432        0.124       77.572       23.613        0.093      338.137       10.585      864.553
04/05/2014  21:54:00      -22.251       68.825       -4.009       28.180       36.493       25.412      794.129     1331.764      645.773        0.401        0.139       72.332       24.976        0.119      338.089       10.504      864.557
04/05/2014  21:55:00      -35.882      111.056      -16.253       20.486       28.725       17.756      419.695      825.127      315.291        0.772        0.078      116.708       10.612        0.008      338.080       10.488      864.567
04/05/2014  21:56:00      -35.262      146.622      -18.793       24.474       40.891       20.362      598.984     1672.041      414.604        1.289        0.134      150.802       17.915        0.014      337.952       10.274      864.567
04/05/2014  21:57:00      -45.101      128.879      -19.656       32.121       36.684       19.879     1031.774     1345.704      395.167        1.090        0.139      136.543       17.946        0.017      337.971       10.304      864.566
04/05/2014  21:58:00      -41.170      129.022      -17.822       37.255       48.885       27.590     1387.937     2389.770      761.196        1.160        0.227      135.431       24.236        0.032      337.921       10.222      864.566
04/05/2014  21:59:00      -40.516      197.780      -38.299       31.334       36.549       21.042      981.846     1335.809      442.777        2.249        0.138      201.887       16.674        0.007      337.768        9.963      864.572
04/05/2014  22:00:00      -53.753      147.952      -24.998       37.961       48.307       26.062     1441.053     2333.597      679.229        1.493        0.223      157.414       25.940        0.027      337.903       10.191      864.590
04/05/2014  22:01:00      -49.378      162.379      -25.357       38.495       44.316       22.821     1481.866     1963.877      520.779        1.671        0.198      169.721       22.093        0.017      337.756        9.945      864.604
04/05/2014  22:02:00      -30.905      184.086      -27.303       30.063       44.930       18.535      903.773     2018.740      343.546        1.943        0.163      186.663       12.150        0.004      337.796       10.011      864.607
04/05/2014  22:03:00      -44.062      150.808      -22.524       31.642       37.015       27.036     1001.222     1370.124      730.959        1.415        0.155      157.113       16.789        0.011      337.808       10.033      864.606
04/05/2014  22:04:00      -41.933      163.229      -25.610       45.838       50.225       23.956     2101.082     2522.514      573.895        1.713        0.260      168.529       23.504        0.019      337.821       10.054      864.610
04/05/2014  22:05:00      -34.511      136.360      -16.021       34.148       68.156       27.126     1166.097     4645.277      735.834        1.329        0.327      140.659       35.813        0.065      337.798       10.014      864.609
04/05/2014  22:06:00      -61.984      140.271      -22.820       34.251       56.957       30.122     1173.129     3244.110      907.360        1.468        0.266      153.356       24.890        0.026      337.864       10.127      864.602
04/05/2014  22:07:00      -64.967      164.768      -27.370       36.578       61.457       27.487     1337.954     3776.911      755.520        1.899        0.294      177.114       28.821        0.026      337.864       10.125      864.594
04/05/2014  22:08:00      -42.518      149.079      -30.779       38.188       65.230       27.142     1458.324     4254.952      736.682        1.571        0.322      155.024       27.107        0.031      337.869       10.134      864.602
04/05/2014  22:09:00      -89.713      139.474      -17.791       47.626       53.420       33.983     2268.271     2853.672     1154.873        1.705        0.314      165.835       33.132        0.040      337.916       10.214      864.605
04/05/2014  22:10:00      -25.589      183.711      -34.848       50.962       57.870       24.409     2597.169     3348.995      595.777        2.108        0.327      185.485       25.184        0.018      337.829       10.066      864.601
04/05/2014  22:11:00      -85.090      178.894      -28.250       38.091       60.104       28.802     1450.904     3612.510      829.537        2.297        0.295      198.100       28.907        0.021      337.897       10.178      864.597
04/05/2014  22:12:00      -44.297      205.081      -33.664       45.018       67.914       24.881     2026.662     4612.371      619.048        2.620        0.363      209.811       26.306        0.016      337.879       10.150      864.610
04/05/2014  22:13:00      -41.468      254.046      -47.726       40.178       55.554       22.904     1614.251     3086.243      524.583        3.688        0.261      257.408       23.416        0.008      337.777        9.977      864.607
04/05/2014  22:14:00      -58.022      185.816      -32.442       51.857       69.230       35.400     2689.101     4792.807     1253.171        2.384        0.437      194.665       41.332        0.045      337.785        9.993      864.611
04/05/2014  22:15:00     -102.057      179.440      -30.297       48.690       56.123       32.337     2370.686     3149.845     1045.678        2.505        0.328      206.432       30.030        0.021      337.707        9.860      864.616
04/05/2014  22:16:00      -71.793      120.488      -20.524       56.658       73.428       29.135     3210.147     5391.645      848.825        1.477        0.473      140.256       32.928        0.055      337.714        9.873      864.630
04/05/2014  22:17:00      -63.578      173.254      -32.013       48.123       54.026       29.375     2315.790     2918.775      862.870        2.059        0.305      184.551       15.780        0.007      337.789        9.999      864.640
04/05/2014  22:18:00      -43.243      150.775      -21.693       38.089       46.664       27.610     1450.748     2177.565      762.299        1.473        0.220      156.853       25.460        0.026      337.741        9.921      864.652
04/05/2014  22:19:00      -90.246      179.896      -30.032       42.833       62.490       35.027     1834.661     3905.026     1226.920        2.419        0.348      201.263       36.257        0.032      337.761        9.953      864.660
04/05/2014  22:20:00      -58.732      229.892      -31.157       44.850       96.045       30.179     2011.534     9224.696      910.782        3.471        0.607      237.275       34.665        0.021      337.726        9.892      864.680
04/05/2014  22:21:00      -53.020      188.495      -23.250       41.125       55.138       38.855     1691.298     3040.252     1509.733        2.256        0.312      195.810       36.864        0.035      337.660        9.784      864.687
04/05/2014  22:22:00      -55.933      218.718      -28.649       36.599       93.414       38.432     1339.475     8726.265     1477.051        3.166        0.577      225.756       43.193        0.037      337.694        9.838      864.677
04/05/2014  22:23:00      -53.471      140.414      -22.351       43.579       59.881       30.178     1899.099     3585.704      910.697        1.473        0.320      150.251       29.894        0.040      337.771        9.969      864.671
04/05/2014  22:24:00      -93.848      139.712      -17.678       45.246       64.705       33.291     2047.157     4186.691     1108.286        1.799        0.367      168.306       26.168        0.024      337.771        9.968      864.680
04/05/2014  22:25:00      -91.118      133.545      -26.884       49.957       78.124       34.072     2495.666     6103.414     1160.906        1.831        0.488      161.668       30.720        0.036      337.733        9.905      864.675
04/05/2014  22:26:00      -83.497      148.085      -24.966       46.012       62.278       33.679     2117.104     3878.545     1134.273        1.833        0.356      170.003       30.786        0.033      337.659        9.781      864.672
04/05/2014  22:27:00      -93.579      149.230      -26.735       62.792       91.269       37.881     3942.898     8330.008     1434.986        2.272        0.685      176.144       48.522        0.076      337.692        9.837      864.681
04/05/2014  22:28:00      -94.485      145.185      -27.946       57.336       47.170       29.148     3287.386     2224.985      849.612        1.857        0.318      173.223       20.402        0.014      337.639        9.748      864.691
04/05/2014  22:29:00      -98.988      201.302      -28.662       59.553       85.890       34.797     3546.614     7377.135     1210.866        3.164        0.607      224.324       28.148        0.016      337.674        9.804      864.685
04/05/2014  22:30:00     -140.092      131.013      -33.125       76.392       71.736       44.587     5835.780     5146.078     1987.961        2.543        0.648      191.808       53.398        0.078      337.717        9.878      864.690
04/05/2014  22:31:00     -139.074      125.134      -33.390       53.067       66.780       32.072     2816.100     4459.517     1028.625        2.221        0.415      187.083       35.391        0.036      337.663        9.788      864.707
04/05/2014  22:32:00     -124.251      122.409      -14.506       51.494       67.242       36.971     2651.653     4521.452     1366.828        1.958        0.427      174.420       29.366        0.028      337.675        9.807      864.719
04/05/2014  22:33:00     -132.375      170.419      -28.328       50.289       55.527       35.330     2528.956     3083.247     1248.207        2.711        0.343      215.791       23.432        0.012      337.533        9.567      864.714
04/05/2014  22:34:00     -116.883      131.255      -21.541       61.815       66.012       41.026     3821.040     4357.629     1683.122        2.061        0.493      175.754       43.658        0.062      337.600        9.681      864.711
04/05/2014  22:35:00     -136.842      144.807      -33.798       45.995       44.914       31.983     2115.496     2017.298     1022.905        2.300        0.258      199.236       28.380        0.020      337.590        9.664      864.727
04/05/2014  22:36:00     -106.396      111.605      -20.497       45.307       46.414       34.536     2052.750     2154.224     1192.740        1.480        0.270      154.194       27.453        0.032      337.584        9.656      864.729
04/05/2014  22:37:00     -119.351       88.427      -22.975       43.821       41.548       27.517     1920.262     1726.262      757.181        1.350        0.220      148.539       19.697        0.018      337.753        9.940      864.729
04/05/2014  22:38:00      -91.060       80.666      -11.649       42.050       79.250       37.295     1768.217     6280.546     1390.889        1.219        0.472      121.651       40.743        0.112      337.713        9.873      864.734
04/05/2014  22:39:00     -111.421       98.132      -12.804       61.007       74.988       37.703     3721.875     5623.141     1421.523        1.649        0.538      148.474       37.390        0.063      337.603        9.687      864.737
04/05/2014  22:40:00      -67.954       46.182      -12.194       39.483       48.411       27.116     1558.875     2343.586      735.255        0.577        0.232       82.161       19.997        0.059      337.672        9.804      864.730
04/05/2014  22:41:00     -101.844       43.169       -4.722       46.849       32.215       26.835     2194.789     1037.833      720.097        0.810        0.198      110.616       15.624        0.020      337.846       10.096      864.729
04/05/2014  22:42:00      -83.125       49.002        2.102       38.803       43.101       24.224     1505.670     1857.678      586.806        0.663        0.198       96.493       20.025        0.043      337.863       10.125      864.748
04/05/2014  22:43:00      -99.089       76.845      -16.972       47.883       53.353       30.483     2292.777     2846.578      929.216        1.104        0.303      125.395       34.143        0.074      337.639        9.749      864.754
04/05/2014  22:44:00      -93.051       72.499      -14.192       47.627       49.558       28.705     2268.298     2456.019      824.003        0.983        0.277      117.960       30.646        0.067      337.690        9.834      864.775
04/05/2014  22:45:00     -121.910      107.190      -29.482       40.603       44.729       29.491     1648.570     2000.671      869.738        1.587        0.226      162.333       28.861        0.032      337.674        9.807      864.790
04/05/2014  22:46:00     -107.493       95.537      -19.478       50.804       53.270       36.176     2581.035     2837.680     1308.728        1.389        0.336      143.813       36.185        0.063      337.603        9.686      864.817
04/05/2014  22:47:00     -141.829      160.262      -40.467       63.176       44.373       33.030     3991.212     1968.983     1090.971        2.724        0.353      214.008       27.272        0.016      337.654        9.773      864.850
04/05/2014  22:48:00     -131.814      127.561      -25.915       70.032       74.573       36.505     4904.511     5561.070     1332.638        2.306        0.590      183.431       41.922        0.052      337.625        9.723      864.863
04/05/2014  22:49:00      -79.850      128.179      -12.404       45.059       64.046       39.067     2030.344     4101.912     1526.194        1.531        0.383      151.016       32.536        0.046      337.583        9.654      864.868
04/05/2014  22:50:00     -113.888      128.846      -20.358       64.843       55.517       44.127     4204.631     3082.170     1947.152        1.961        0.462      171.964       29.917        0.030      337.707        9.861      864.881
04/05/2014  22:51:00     -132.441      163.614      -33.379       56.483       74.699       39.137     3190.275     5579.907     1531.671        2.786        0.515      210.500       42.015        0.040      337.725        9.893      864.904
04/05/2014  22:52:00     -121.723      140.272      -22.857       73.386       65.697       37.662     5385.574     4316.094     1418.461        2.307        0.556      185.722       38.371        0.043      337.689        9.829      864.927
04/05/2014  22:53:00      -88.643      133.160      -21.740       53.136       54.290       31.429     2823.487     2947.427      987.798        1.641        0.338      159.966       29.797        0.035      337.641        9.750      864.953
04/05/2014  22:54:00     -119.882      164.370      -32.149       70.946       91.587       41.749     5033.319     8388.254     1742.952        2.879        0.758      203.443       38.341        0.036      337.535        9.571      864.968
04/05/2014  22:55:00     -131.424      211.366      -29.811       62.617       85.893       42.884     3920.899     7377.562     1839.023        3.798        0.657      248.894       36.517        0.022      337.522        9.548      864.981
04/05/2014  22:56:00     -110.541      175.964      -30.708       60.184       60.538       36.548     3622.093     3664.814     1335.734        2.637        0.431      207.805       30.178        0.021      337.473        9.467      864.990
04/05/2014  22:57:00      -88.616      130.444       -6.805       66.223       79.790       40.089     4385.434     6366.465     1607.151        1.863        0.618      157.697       33.644        0.046      337.562        9.618      865.004
04/05/2014  22:58:00      -75.427      120.427       -5.781       49.703       63.434       38.544     2470.395     4023.858     1485.663        1.410        0.399      142.098       39.091        0.076      337.509        9.531      865.011
04/05/2014  22:59:00      -67.631      117.889       -2.666       55.693      100.953       48.323     3101.657    10191.483     2335.077        1.705        0.781      135.911       50.689        0.139      337.509        9.530      865.013
04/05/2014  23:00:00      -70.937       99.857        0.409       46.232       53.558       38.635     2137.421     2868.407     1492.637        1.075        0.325      122.489       36.699        0.090      337.549        9.598      865.011
04/05/2014  23:01:00      -91.852      149.665      -22.503       44.254       73.054       32.076     1958.440     5336.915     1028.865        1.983        0.416      175.603       34.906        0.040      337.493        9.503      865.035
04/05/2014  23:02:00     -106.918      137.268      -26.136       53.124       56.109       34.531     2822.107     3148.264     1192.415        1.906        0.358      173.994       29.911        0.030      337.463        9.452      865.036
04/05/2014  23:03:00      -77.447       74.210      -11.914       58.881       57.068       28.854     3466.978     3256.802      832.535        0.960        0.378      107.262       32.929        0.094      337.482        9.485      865.044
04/05/2014  23:04:00      -76.218      154.651      -17.562       41.969       52.545       39.360     1761.360     2760.980     1549.208        1.805        0.304      172.412       33.480        0.038      337.397        9.343      865.056
04/05/2014  23:05:00     -110.751       98.722      -17.805       48.262       58.518       36.394     2329.252     3424.365     1324.523        1.470        0.354      148.364       34.511        0.054      337.469        9.463      865.068
04/05/2014  23:06:00      -94.245      140.431      -21.418       59.797       61.803       44.699     3575.710     3819.616     1998.002        1.923        0.470      169.124       37.743        0.050      337.447        9.426      865.095
04/05/2014  23:07:00      -90.511      167.378      -18.731       51.172       80.392       39.234     2618.553     6462.800     1539.312        2.359        0.531      190.283       29.394        0.024      337.450        9.430      865.109
04/05/2014  23:08:00     -155.659      181.173      -36.791       68.677       66.877       42.697     4716.502     4472.475     1823.020        3.471        0.551      238.858       42.052        0.031      337.367        9.291      865.110
04/05/2014  23:09:00      -89.186      132.104      -29.113       50.317       63.774       32.946     2531.848     4067.156     1085.452        1.697        0.384      159.391       23.108        0.021      337.494        9.505      865.115
04/05/2014  23:10:00     -128.815      148.930      -23.641       55.236       66.667       32.312     3051.046     4444.486     1044.033        2.393        0.427      196.910       30.757        0.024      337.403        9.351      865.139
04/05/2014  23:11:00     -102.116      110.547      -21.079       44.593       64.142       33.547     1988.516     4114.232     1125.402        1.516        0.361      150.493       34.597        0.053      337.410        9.365      865.174
04/05/2014  23:12:00     -106.043      109.070      -26.585       47.790       49.443       28.198     2283.871     2444.641      795.112        1.468        0.276      152.123       26.779        0.031      337.531        9.568      865.180
04/05/2014  23:13:00     -128.042      129.662      -30.252       63.844       49.794       40.111     4075.999     2479.393     1608.855        2.114        0.408      182.228       35.120        0.037      337.385        9.323      865.227
04/05/2014  23:14:00     -123.318      200.445      -24.502       59.183       85.896       47.433     3502.596     7378.135     2249.886        3.456        0.657      235.341       47.184        0.040      337.241        9.079      865.253
04/05/2014  23:15:00     -125.480      163.520      -23.796       65.232       97.094       44.707     4255.159     9427.312     1998.746        2.936        0.784      206.117       27.806        0.018      337.325        9.220      865.261
04/05/2014  23:16:00     -122.818      129.778      -29.234       47.349       52.104       31.588     2241.935     2714.849      997.770        1.937        0.298      178.680       24.893        0.019      337.429        9.395      865.262
04/05/2014  23:17:00      -89.710      117.417      -20.394       46.121       78.689       33.096     2127.136     6191.976     1095.341        1.583        0.471      147.765       37.602        0.065      337.360        9.281      865.259
04/05/2014  23:18:00      -94.201       75.440      -12.686       69.154       67.461       34.522     4782.318     4550.922     1191.777        1.262        0.526      120.685       28.360        0.055      337.342        9.252      865.258
04/05/2014  23:19:00     -132.784      139.920      -34.236       60.453       47.855       28.262     3654.623     2290.084      798.749        2.256        0.337      192.897       27.672        0.021      337.251        9.097      865.259
04/05/2014  23:20:00     -112.527      146.143      -34.914       78.286       82.172       40.321     6128.697     6752.275     1625.788        2.487        0.725      184.446       40.348        0.048      337.275        9.136      865.264
04/05/2014  23:21:00     -109.115       64.598       -0.349       63.861       65.850       37.493     4078.241     4336.234     1405.745        1.295        0.491      126.803       31.492        0.062      337.236        9.073      865.260
04/05/2014  23:22:00      -86.198      101.487       -9.685       58.361       55.964       33.751     3405.957     3132.014     1139.131        1.275        0.384      133.153       36.404        0.075      337.228        9.061      865.279
04/05/2014  23:23:00      -92.455      115.655      -11.787       50.315       59.943       41.872     2531.649     3593.124     1753.259        1.497        0.394      148.067       34.079        0.053      337.214        9.036      865.308
04/05/2014  23:24:00     -106.400       89.895      -17.472       70.619       63.892       35.643     4987.016     4082.218     1270.418        1.502        0.517      139.291       41.108        0.087      337.216        9.039      865.322
04/05/2014  23:25:00     -116.671      131.226      -22.132       61.054       79.263       39.719     3727.590     6282.672     1577.605        2.145        0.579      175.591       40.081        0.052      337.192        8.998      865.343
04/05/2014  23:26:00      -99.861       43.510       -3.960       49.311       44.490       34.149     2431.575     1979.343     1166.143        0.873        0.279      108.928       26.124        0.058      337.345        9.258      865.360
04/05/2014  23:27:00      -49.158       84.059       -1.474       46.958       65.776       29.707     2205.014     4326.482      882.509        0.845        0.371       97.378       29.703        0.093      337.254        9.105      865.370
04/05/2014  23:28:00      -85.740      102.898       -7.788       70.073       69.839       40.425     4910.234     4877.426     1634.184        1.471        0.571      133.938       35.544        0.070      337.190        8.996      865.389
04/05/2014  23:29:00      -87.951      111.797       -5.035       44.557       67.839       38.966     1985.353     4602.119     1518.335        1.418        0.405      142.246       34.239        0.058      337.103        8.850      865.395
04/05/2014  23:30:00     -146.695       92.258      -27.571       91.866       52.392       32.732     8439.399     2744.869     1071.366        2.152        0.613      173.294       29.705        0.029      337.166        8.956      865.416
04/05/2014  23:31:00     -125.747       81.126      -20.825       43.757       43.005       27.057     1914.634     1849.415      732.091        1.366        0.225      149.646       19.816        0.018      337.222        9.050      865.425
04/05/2014  23:32:00     -143.344       79.496      -24.831       51.474       51.226       31.644     2649.586     2624.075     1001.313        1.688        0.314      163.912       27.065        0.027      337.146        8.922      865.441
04/05/2014  23:33:00     -148.707      116.650      -31.702       53.923       52.847       33.961     2907.654     2792.808     1153.383        2.179        0.343      189.000       31.402        0.028      337.162        8.949      865.465
04/05/2014  23:34:00     -124.486       91.625       -9.829       56.960       51.056       40.926     3244.401     2606.669     1674.942        1.576        0.376      154.570       35.456        0.053      337.266        9.124      865.480
04/05/2014  23:35:00     -134.162      134.722      -29.584       62.837       71.420       36.840     3948.437     5100.809     1357.222        2.371        0.520      190.130       34.414        0.033      337.191        8.996      865.478
04/05/2014  23:36:00     -126.954      120.286      -34.682       46.761       49.794       30.808     2186.599     2479.474      949.148        1.870        0.281      174.888       27.758        0.025      337.207        9.023      865.484
04/05/2014  23:37:00     -112.072      166.389      -25.681       46.432       70.633       36.407     2155.905     4989.037     1325.435        2.469        0.424      200.613       37.351        0.035      337.173        8.966      865.498
04/05/2014  23:38:00     -105.148      145.810      -29.687       49.618       67.160       35.359     2461.934     4510.444     1250.268        2.071        0.411      179.768       30.844        0.029      337.147        8.924      865.508
04/05/2014  23:39:00     -141.576       86.452      -22.291       51.793       53.456       30.102     2682.527     2857.503      906.107        1.723        0.322      165.884       19.482        0.014      337.212        9.034      865.511
04/05/2014  23:40:00     -124.297      101.405      -29.231       42.835       55.747       33.268     1834.816     3107.702     1106.734        1.632        0.302      160.414       28.053        0.031      337.164        8.954      865.520
04/05/2014  23:41:00      -91.274      117.301      -22.455       33.710       62.133       31.151     1136.388     3860.521      970.357        1.428        0.298      148.628       16.162        0.012      337.187        8.990      865.531
04/05/2014  23:42:00     -115.878      138.887      -25.938       46.127       62.291       33.604     2127.676     3880.175     1129.232        2.026        0.357      180.880       33.491        0.034      337.230        9.062      865.547
04/05/2014  23:43:00     -122.655      197.561      -35.077       42.343       82.212       31.458     1792.917     6758.734      989.610        3.242        0.477      232.539       20.693        0.008      337.165        8.952      865.555
04/05/2014  23:44:00     -139.269      208.370      -37.370       74.048       85.476       52.327     5483.037     7306.210     2738.071        3.987        0.776      250.627       51.624        0.042      337.234        9.067      865.558
04/05/2014  23:45:00     -115.105      138.546      -20.399       59.722       66.442       33.612     3566.745     4414.481     1129.739        2.098        0.456      180.123       33.625        0.035      337.216        9.037      865.568
04/05/2014  23:46:00      -95.070      140.008      -18.181       52.702       61.464       33.947     2777.474     3777.860     1152.423        1.834        0.385      169.235       36.075        0.045      337.225        9.054      865.580
04/05/2014  23:47:00      -97.810      169.524      -17.897       55.213       82.493       43.561     3048.445     6805.075     1897.544        2.519        0.588      195.717       45.871        0.055      337.125        8.885      865.591
04/05/2014  23:48:00     -114.661      160.825      -20.768       51.538       58.015       35.951     2656.207     3365.702     1292.461        2.338        0.366      197.515       31.676        0.026      337.022        8.713      865.608
04/05/2014  23:49:00     -160.296      143.934      -25.151       69.391       72.191       44.206     4815.095     5211.487     1954.131        2.951        0.599      215.434       40.360        0.035      337.264        9.118      865.612
04/05/2014  23:50:00     -111.843      152.820      -22.712       38.380       54.812       31.041     1473.051     3004.359      963.569        2.091        0.272      189.374       24.299        0.016      337.176        8.971      865.623
04/05/2014  23:51:00     -127.933      184.747      -16.913       49.383       79.032       48.667     2438.725     6246.055     2368.494        3.092        0.553      224.718       40.344        0.032      337.228        9.056      865.647
04/05/2014  23:52:00     -161.098      235.204      -46.891       60.166       69.050       40.656     3619.891     4767.933     1652.896        4.675        0.502      285.085       36.858        0.017      337.243        9.083      865.647
04/05/2014  23:53:00     -125.331      144.395      -26.462       50.372       67.160       34.143     2537.322     4510.517     1165.727        2.273        0.411      191.201       34.488        0.033      337.250        9.094      865.625
04/05/2014  23:54:00      -89.545      102.278      -13.280       49.418       55.670       28.297     2442.104     3099.117      800.693        1.250        0.317      135.938       28.578        0.044      337.269        9.128      865.620
04/05/2014  23:55:00      -91.654       91.002       -9.906       45.063       44.538       31.588     2030.642     1983.616      997.812        1.090        0.251      129.158       24.996        0.037      337.290        9.164      865.617
04/05/2014  23:56:00     -107.193      175.579      -30.113       55.944       62.843       36.652     3129.768     3949.294     1343.361        2.582        0.421      205.714       36.425        0.031      337.187        8.990      865.626
04/05/2014  23:57:00      -90.773       88.501       -5.574       64.117       54.098       42.983     4110.987     2926.587     1847.515        1.249        0.444      126.777       34.981        0.076      337.389        9.328      865.633
04/05/2014  23:58:00     -139.159      145.906      -30.120       53.507       68.760       35.788     2862.985     4727.909     1280.767        2.521        0.444      201.628       33.018        0.027      337.384        9.320      865.635
04/05/2014  23:59:00     -120.533      135.022      -18.925       63.178       87.204       40.482     3991.468     7604.582     1638.824        2.317        0.662      180.995       37.180        0.042      337.320        9.213      865.634
